[[{"header":{"parameterUnit":"m.s-1","parameterCategory":1,"la1":30.6,"la2":28.766,"lo1":-90.7593,"lo2":-88.6598,"dy":0.0162,"dx":0.0183,"nx":116,"ny":114,"refTime":"2023-10-03T18:00:00:Z","depth":0,"parameterNumber":2,"parameterNumberName":"U-component_of_WINDS"},"data":[0.0,0.0,0.0,0.0,0.0,0.0,0.0,0.0,0.0,0.0,0.0,0.0,0.0,0.0,0.0,0.0,0.0,0.0,0.0,0.0,0.0,0.0,0.0,0.0,0.0,0.0,0.0,0.0,0.0,0.0,0.0,0.0,0.0,0.0,0.0,0.0,0.0,0.0,0.0,0.0,0.0,0.0,0.0,0.0,0.0,0.0,0.0,0.0,0.0,0.0,0.0,0.0,0.0,0.0,0.0,0.0,0.0,0.0,0.0,0.0,0.0,0.0,0.0,0.0,0.0,0.0,0.0,0.0,0.0,0.0,0.0,0.0,0.0,0.0,0.0,0.0,0.0,0.0,0.0,0.0,0.0,0.0,0.0,0.0,0.0,0.0,0.0,0.0,0.0,0.0,0.0,0.0,0.0,0.0,0.0,0.0,0.0,0.0,0.0,0.0,0.0,0.0,0.0,0.0,0.0,0.0,0.0,0.0,0.0,0.0,0.0,0.0,0.0,0.0,0.0,0.0,0.0,0.0,0.0,0.0,0.0,0.0,0.0,0.0,0.0,0.0,0.0,0.0,0.0,0.0,0.0,0.0,0.0,0.0,0.0,0.0,0.0,0.0,0.0,0.0,0.0,0.0,0.0,0.0,0.0,0.0,0.0,0.0,0.0,0.0,0.0,0.0,0.0,0.0,0.0,0.0,0.0,0.0,0.0,0.0,0.0,0.0,0.0,0.0,0.0,0.0,0.0,0.0,0.0,0.0,0.0,0.0,0.0,0.0,0.0,0.0,0.0,0.0,0.0,0.0,0.0,0.0,0.0,0.0,0.0,0.0,0.0,0.0,0.0,0.0,0.0,0.0,0.0,0.0,0.0,0.0,0.0,0.0,0.0,0.0,0.0,0.0,0.0,0.0,0.0,0.0,0.0,0.0,0.0,0.0,0.0,0.0,0.0,0.0,0.0,0.0,0.0,0.0,0.0,0.0,0.0,0.0,0.0,0.0,0.0,0.0,0.0,0.0,0.0,0.0,0.0,0.0,0.0,0.0,0.0,0.0,0.0,0.0,0.0,0.0,0.0,0.0,0.0,0.0,0.0,0.0,0.0,0.0,0.0,0.0,0.0,0.0,0.0,0.0,0.0,0.0,0.0,0.0,0.0,0.0,0.0,0.0,0.0,0.0,0.0,0.0,0.0,0.0,0.0,0.0,0.0,0.0,0.0,0.0,0.0,0.0,0.0,0.0,0.0,0.0,0.0,0.0,0.0,0.0,0.0,0.0,0.0,0.0,0.0,0.0,0.0,0.0,0.0,0.0,0.0,0.0,0.0,0.0,0.0,0.0,0.0,0.0,0.0,0.0,0.0,0.0,0.0,0.0,0.0,0.0,0.0,0.0,0.0,0.0,0.0,0.0,0.0,0.0,0.0,0.0,0.0,0.0,0.0,0.0,0.0,0.0,0.0,0.0,0.0,0.0,0.0,0.0,0.0,0.0,0.0,0.0,0.0,0.0,0.0,0.0,0.0,0.0,0.0,0.0,0.0,0.0,0.0,0.0,0.0,0.0,0.0,0.0,0.0,0.0,0.0,0.0,0.0,0.0,0.0,0.0,0.0,0.0,0.0,0.0,0.0,0.0,0.0,0.0,0.0,0.0,0.0,0.0,0.0,0.0,0.0,0.0,0.0,0.0,0.0,0.0,0.0,0.0,0.0,0.0,0.0,0.0,0.0,0.0,0.0,0.0,0.0,0.0,0.0,0.0,0.0,0.0,0.0,0.0,0.0,0.0,0.0,0.0,0.0,0.0,0.0,0.0,0.0,0.0,0.0,0.0,0.0,0.0,0.0,0.0,0.0,0.0,0.0,0.0,0.0,0.0,0.0,0.0,0.0,0.0,0.0,0.0,0.0,0.0,0.0,0.0,0.0,0.0,0.0,0.0,0.0,0.0,0.0,0.0,0.0,0.0,0.0,0.0,0.0,0.0,0.0,0.0,0.0,0.0,0.0,0.0,0.0,0.0,0.0,0.0,0.0,0.0,0.0,0.0,0.0,0.0,0.0,0.0,0.0,0.0,0.0,0.0,0.0,0.0,0.0,0.0,0.0,0.0,0.0,0.0,0.0,0.0,0.0,0.0,0.0,0.0,0.0,0.0,0.0,0.0,0.0,0.0,0.0,0.0,0.0,0.0,0.0,0.0,0.0,0.0,0.0,0.0,0.0,0.0,0.0,0.0,0.0,0.0,0.0,0.0,0.0,0.0,0.0,0.0,0.0,0.0,0.0,0.0,0.0,0.0,0.0,0.0,0.0,0.0,0.0,0.0,0.0,0.0,0.0,0.0,0.0,0.0,0.0,0.0,0.0,0.0,0.0,0.0,0.0,0.0,0.0,0.0,0.0,0.0,0.0,0.0,0.0,0.0,0.0,0.0,0.0,0.0,0.0,0.0,0.0,0.0,0.0,0.0,0.0,0.0,0.0,0.0,0.0,0.0,0.0,0.0,0.0,0.0,0.0,0.0,0.0,0.0,0.0,0.0,0.0,0.0,0.0,0.0,0.0,0.0,0.0,0.0,0.0,0.0,0.0,0.0,0.0,0.0,0.0,0.0,0.0,0.0,0.0,0.0,0.0,0.0,0.0,0.0,0.0,0.0,0.0,0.0,0.0,0.0,0.0,0.0,0.0,0.0,0.0,0.0,0.0,0.0,0.0,0.0,0.0,0.0,0.0,0.0,0.0,0.0,0.0,0.0,0.0,0.0,0.0,0.0,0.0,0.0,0.0,0.0,0.0,0.0,0.0,0.0,0.0,0.0,0.0,0.0,0.0,0.0,0.0,0.0,0.0,0.0,0.0,0.0,0.0,0.0,0.0,0.0,0.0,0.0,0.0,0.0,0.0,0.0,0.0,0.0,0.0,0.0,0.0,0.0,0.0,0.0,0.0,0.0,0.0,0.0,0.0,0.0,0.0,0.0,0.0,0.0,0.0,0.0,0.0,0.0,0.0,0.0,0.0,0.0,0.0,0.0,0.0,0.0,0.0,0.0,0.0,0.0,0.0,0.0,0.0,0.0,0.0,0.0,0.0,0.0,0.0,0.0,0.0,0.0,0.0,0.0,0.0,0.0,0.0,0.0,0.0,0.0,0.0,0.0,0.0,0.0,0.0,0.0,0.0,0.0,0.0,0.0,0.0,0.0,0.0,0.0,0.0,0.0,0.0,0.0,0.0,0.0,0.0,0.0,0.0,0.0,0.0,0.0,0.0,0.0,0.0,0.0,0.0,0.0,0.0,0.0,0.0,0.0,0.0,0.0,0.0,0.0,0.0,0.0,0.0,0.0,0.0,0.0,0.0,0.0,0.0,0.0,0.0,0.0,0.0,0.0,0.0,0.0,0.0,0.0,0.0,0.0,0.0,0.0,0.0,0.0,0.0,0.0,0.0,0.0,0.0,0.0,0.0,0.0,0.0,0.0,0.0,0.0,0.0,0.0,0.0,0.0,0.0,0.0,0.0,0.0,0.0,0.0,0.0,0.0,0.0,0.0,0.0,0.0,0.0,0.0,0.0,0.0,0.0,0.0,0.0,0.0,0.0,0.0,0.0,0.0,0.0,0.0,0.0,0.0,0.0,0.0,0.0,0.0,0.0,0.0,0.0,0.0,0.0,0.0,0.0,0.0,0.0,0.0,0.0,0.0,0.0,0.0,0.0,0.0,0.0,0.0,0.0,0.0,0.0,0.0,0.0,0.0,0.0,0.0,0.0,0.0,0.0,0.0,0.0,0.0,0.0,0.0,0.0,0.0,0.0,0.0,0.0,0.0,0.0,0.0,0.0,0.0,0.0,0.0,0.0,0.0,0.0,0.0,0.0,0.0,0.0,0.0,0.0,0.0,0.0,0.0,0.0,0.0,0.0,0.0,0.0,0.0,0.0,0.0,0.0,0.0,0.0,0.0,0.0,0.0,0.0,0.0,0.0,0.0,0.0,0.0,0.0,0.0,0.0,0.0,0.0,0.0,0.0,0.0,0.0,0.0,0.0,0.0,0.0,0.0,0.0,0.0,0.0,0.0,0.0,0.0,0.0,0.0,0.0,0.0,0.0,0.0,0.0,0.0,0.0,0.0,0.0,0.0,0.0,0.0,0.0,0.0,0.0,0.0,0.0,0.0,0.0,0.0,0.0,0.0,0.0,0.0,0.0,0.0,0.0,0.0,0.0,0.0,0.0,0.0,0.0,0.0,0.0,0.0,0.0,0.0,0.0,0.0,0.0,0.0,0.0,0.0,0.0,0.0,0.0,0.0,0.0,0.0,0.0,0.0,0.0,0.0,0.0,0.0,0.0,0.0,0.0,0.0,0.0,0.0,0.0,0.0,0.0,0.0,0.0,0.0,0.0,0.0,0.0,0.0,0.0,0.0,0.0,0.0,0.0,0.0,0.0,0.0,0.0,0.0,0.0,0.0,0.0,0.0,0.0,0.0,0.0,0.0,0.0,0.0,0.0,0.0,0.0,0.0,0.0,0.0,0.0,0.0,0.0,0.0,0.0,0.0,0.0,0.0,0.0,0.0,0.0,0.0,0.0,0.0,0.0,0.0,0.0,0.0,0.0,0.0,0.0,0.0,0.0,0.0,0.0,0.0,0.0,0.0,0.0,0.0,0.0,0.0,0.0,0.0,0.0,0.0,0.0,0.0,0.0,0.0,0.0,0.0,0.0,0.0,0.0,0.0,0.0,0.0,0.0,0.0,0.0,0.0,0.0,0.0,0.0,0.0,0.0,0.0,0.0,0.0,0.0,0.0,0.0,0.0,0.0,0.0,0.0,0.0,0.0,0.0,0.0,0.0,0.0,0.0,0.0,0.0,0.0,0.0,0.0,0.0,0.0,0.0,0.0,0.0,0.0,0.0,0.0,0.0,0.0,0.0,0.0,0.0,0.0,0.0,0.0,0.0,0.0,0.0,0.0,0.0,0.0,0.0,0.0,0.0,0.0,0.0,0.0,0.0,0.0,0.0,0.0,0.0,0.0,0.0,0.0,0.0,0.0,0.0,0.0,0.0,0.0,0.0,0.0,0.0,0.0,0.0,0.0,0.0,0.0,0.0,0.0,0.0,0.0,0.0,0.0,0.0,0.0,0.0,0.0,0.0,0.0,0.0,0.0,0.0,0.0,0.0,0.0,0.0,0.0,0.0,0.0,0.0,0.0,0.0,0.0,0.0,0.0,0.0,0.0,0.0,0.0,0.0,0.0,0.0,0.0,0.0,0.0,0.0,0.0,0.0,0.0,0.0,0.0,0.0,0.0,0.0,0.0,0.0,0.0,0.0,0.0,0.0,0.0,0.0,0.0,0.0,0.0,0.0,0.0,0.0,0.0,0.0,0.0,0.0,0.0,0.0,0.0,0.0,0.0,0.0,0.0,0.0,0.0,0.0,0.0,0.0,0.0,0.0,0.0,0.0,0.0,0.0,0.0,0.0,0.0,0.0,0.0,0.0,0.0,0.0,0.0,0.0,0.0,0.0,0.0,0.0,0.0,0.0,0.0,0.0,0.0,0.0,0.0,0.0,0.0,0.0,0.0,0.0,0.0,0.0,0.0,0.0,0.0,0.0,0.0,0.0,0.0,0.0,0.0,0.0,0.0,0.0,0.0,0.0,0.0,0.0,0.0,0.0,0.0,0.0,0.0,0.0,0.0,0.0,0.0,0.0,0.0,0.0,0.0,0.0,0.0,0.0,0.0,0.0,0.0,0.0,0.0,0.0,0.0,0.0,0.0,0.0,0.0,0.0,0.0,0.0,0.0,0.0,0.0,0.0,0.0,0.0,0.0,0.0,0.0,0.0,0.0,0.0,0.0,0.0,0.0,0.0,0.0,0.0,0.0,0.0,0.0,0.0,0.0,0.0,0.0,0.0,0.0,0.0,0.0,0.0,0.0,0.0,0.0,0.0,0.0,0.0,0.0,0.0,0.0,0.0,0.0,0.0,0.0,0.0,0.0,0.0,0.0,0.0,0.0,0.0,0.0,0.0,0.0,0.0,0.0,0.0,0.0,0.0,0.0,0.0,0.0,0.0,0.0,0.0,0.0,0.0,0.0,0.0,0.0,0.0,0.0,0.0,0.0,0.0,0.0,0.0,0.0,0.0,0.0,0.0,5.3483,0.0,0.0,0.0,0.0,0.0,0.0,0.0,0.0,0.0,0.0,0.0,0.0,0.0,0.0,0.0,0.0,0.0,0.0,0.0,0.0,0.0,0.0,0.0,0.0,0.0,0.0,0.0,0.0,0.0,0.0,0.0,0.0,0.0,0.0,0.0,0.0,0.0,0.0,0.0,4.6055,4.6719,4.7539,4.7109,4.5742,4.3711,0.0,0.0,0.0,0.0,0.0,0.0,0.0,0.0,0.0,0.0,0.0,0.0,0.0,0.0,0.0,0.0,0.0,0.0,0.0,0.0,0.0,0.0,0.0,0.0,0.0,0.0,0.0,0.0,0.0,0.0,0.0,0.0,0.0,0.0,0.0,0.0,0.0,0.0,0.0,0.0,0.0,0.0,0.0,0.0,0.0,0.0,0.0,0.0,0.0,0.0,0.0,0.0,0.0,0.0,0.0,0.0,0.0,0.0,0.0,0.0,0.0,0.0,0.0,0.0,0.0,0.0,0.0,0.0,0.0,0.0,0.0,5.524,0.0,0.0,0.0,0.0,0.0,0.0,0.0,0.0,0.0,0.0,0.0,0.0,0.0,0.0,0.0,0.0,0.0,0.0,0.0,0.0,0.0,0.0,0.0,4.6523,4.6601,4.6758,4.6758,4.6758,0.0,0.0,0.0,0.0,0.0,0.0,0.0,4.6289,4.6367,4.6523,4.7383,4.8203,4.8906,4.8906,4.7344,4.4609,4.4609,0.0,0.0,0.0,0.0,0.0,0.0,0.0,0.0,0.0,0.0,0.0,0.0,0.0,0.0,0.0,0.0,0.0,0.0,0.0,0.0,0.0,0.0,0.0,0.0,0.0,0.0,0.0,0.0,0.0,0.0,0.0,0.0,0.0,0.0,0.0,0.0,0.0,0.0,0.0,0.0,0.0,0.0,0.0,0.0,0.0,0.0,0.0,0.0,0.0,0.0,0.0,0.0,0.0,0.0,0.0,0.0,0.0,0.0,0.0,0.0,0.0,0.0,0.0,0.0,6.2579,6.2579,6.2579,6.2579,6.2423,5.9612,5.805,5.7426,0.0,0.0,0.0,0.0,0.0,0.0,0.0,0.0,0.0,0.0,0.0,0.0,0.0,0.0,0.0,0.0,0.0,0.0,0.0,0.0,0.0,0.0,4.7422,4.7734,4.8476,4.8555,4.8555,4.8555,0.0,0.0,0.0,0.0,0.0,4.6289,4.6289,4.668,4.7422,4.8281,4.8789,4.8906,4.8906,4.8633,4.8203,4.8203,4.7383,4.5937,0.0,0.0,0.0,0.0,0.0,0.0,0.0,0.0,0.0,0.0,0.0,0.0,0.0,0.0,0.0,0.0,0.0,0.0,0.0,0.0,0.0,0.0,0.0,0.0,0.0,0.0,0.0,0.0,0.0,0.0,0.0,0.0,0.0,0.0,0.0,0.0,0.0,0.0,0.0,0.0,0.0,5.1484,5.3125,0.0,0.0,0.0,0.0,0.0,0.0,0.0,0.0,0.0,0.0,0.0,0.0,0.0,0.0,6.3594,6.3711,6.457,6.6131,6.6131,6.6131,6.6131,6.6131,6.6131,6.6092,6.5663,0.0,6.09,5.9261,0.0,0.0,0.0,0.0,0.0,0.0,0.0,0.0,0.0,0.0,0.0,0.0,0.0,0.0,0.0,0.0,0.0,0.0,0.0,0.0,0.0,4.8476,4.9219,4.9609,5.0039,5.0117,4.9648,4.9258,0.0,0.0,0.0,4.6788,4.6319,4.6796,4.7695,4.9062,4.9453,4.9844,5.0312,5.0312,5.0312,5.0312,5.0312,4.9375,4.7695,4.6719,0.0,0.0,0.0,0.0,0.0,0.0,0.0,0.0,0.0,0.0,0.0,0.0,0.0,0.0,0.0,0.0,0.0,0.0,0.0,0.0,0.0,0.0,0.0,0.0,0.0,0.0,0.0,0.0,0.0,0.0,0.0,0.0,0.0,0.0,0.0,0.0,0.0,0.0,0.0,5.2266,5.4061,5.5302,5.5127,5.504,0.0,0.0,0.0,0.0,0.0,0.0,0.0,0.0,0.0,6.2032,6.414,6.5663,6.6444,6.6912,6.7537,6.8239,6.8239,6.8239,6.8239,6.8239,6.8239,6.8239,6.8239,6.742,6.5858,6.3672,6.2462,6.1915,0.0,0.0,0.0,0.0,0.0,6.231,0.0,0.0,0.0,0.0,0.0,0.0,0.0,0.0,0.0,0.0,0.0,0.0,4.8437,4.9726,5.0703,5.1133,5.1719,5.1719,5.0898,5.0624,4.9836,4.8333,4.7829,4.74,4.6963,4.781,4.8906,5.0195,5.0391,5.082,5.1406,5.1406,5.1406,5.1406,5.1641,5.0781,4.9141,4.7617,4.6328,4.5117,0.0,0.0,0.0,0.0,0.0,0.0,0.0,0.0,0.0,0.0,0.0,0.0,0.0,0.0,0.0,0.0,0.0,0.0,0.0,0.0,0.0,0.0,0.0,0.0,0.0,0.0,0.0,0.0,0.0,0.0,0.0,0.0,0.0,0.0,0.0,0.0,0.0,5.4999,5.6358,5.7421,5.7768,5.789,0.0,0.0,0.0,0.0,0.0,0.0,6.1993,6.4101,6.5273,6.5273,6.7342,6.8552,6.8747,6.9405,6.9835,7.003,7.0024,7.0024,7.003,7.003,7.003,7.0035,7.0074,7.0074,6.9879,6.7303,6.5858,6.5194,6.4301,6.3989,6.4067,6.4965,6.5668,6.6375,0.0,0.0,0.0,0.0,0.0,0.0,0.0,0.0,0.0,0.0,0.0,4.8469,5.093,5.1281,5.2027,5.3672,5.3867,5.3516,5.2617,5.1787,5.0945,5.0126,4.8462,4.7955,4.8759,4.9606,5.0117,5.0195,5.0976,5.1367,5.1406,5.1406,5.1406,5.1445,5.2266,5.1719,5.0078,4.9141,4.7773,4.6016,4.3398,0.0,0.0,0.0,0.0,0.0,0.0,0.0,0.0,0.0,0.0,0.0,0.0,0.0,0.0,0.0,0.0,0.0,0.0,0.0,0.0,0.0,0.0,0.0,0.0,0.0,0.0,0.0,0.0,0.0,0.0,0.0,0.0,0.0,0.0,0.0,0.0,0.0,0.0,5.9998,6.0934,0.0,0.0,0.0,0.0,6.3906,6.4765,6.5624,6.6444,6.7381,6.7927,6.7927,6.8825,6.9723,7.0543,7.0603,7.1026,7.1767,7.1792,7.1784,7.176,7.176,7.1774,7.1792,7.1831,7.187,7.1675,6.9059,6.7966,6.781,6.6956,6.6605,6.6722,6.7581,6.7927,6.8088,0.0,0.0,0.0,0.0,0.0,0.0,0.0,0.0,4.4894,4.6892,4.8337,4.9781,5.1226,5.2905,5.4158,5.4789,5.5345,5.5309,5.445,5.3544,5.2443,5.1023,4.9859,4.9352,4.9657,4.9983,5.0424,5.0976,5.125,5.1406,5.1406,5.1406,5.1719,5.2266,5.2578,5.2695,5.2539,5.1133,4.9844,4.8633,4.6562,4.4566,0.0,0.0,0.0,0.0,0.0,0.0,0.0,0.0,0.0,0.0,0.0,0.0,0.0,0.0,0.0,0.0,0.0,0.0,0.0,0.0,0.0,0.0,0.0,0.0,0.0,0.0,0.0,0.0,0.0,0.0,0.0,0.0,0.0,0.0,0.0,0.0,0.0,6.3477,6.4023,0.0,6.4921,6.5273,6.5819,6.6678,6.7029,6.7576,6.8435,6.9294,6.9762,6.9762,7.057,7.1156,7.1468,7.1487,7.1628,7.1901,7.1893,7.2174,7.2736,7.2721,7.3055,7.3549,7.3588,7.3627,7.3549,7.2612,7.1245,6.9801,7.0035,6.9801,6.9333,6.9645,7.0113,7.066,0.0,0.0,0.0,0.0,0.0,0.0,0.0,0.0,4.5519,4.8096,4.9653,5.1098,5.2542,5.4264,5.5435,5.5708,5.6266,5.6117,5.4945,5.432,5.3224,5.1492,5.0867,5.0399,5.0126,5.0399,5.0803,5.1403,5.1406,5.1406,5.1406,5.1719,5.2148,5.2734,5.3633,5.4336,5.4805,5.3945,5.2617,5.0898,4.918,4.7419,4.576,0.0,0.0,0.0,0.0,0.0,0.0,0.0,0.0,0.0,0.0,0.0,0.0,0.0,0.0,0.0,0.0,0.0,0.0,0.0,0.0,0.0,0.0,0.0,0.0,0.0,0.0,0.0,0.0,0.0,0.0,0.0,0.0,0.0,0.0,0.0,6.388,6.617,6.6717,6.7224,6.8044,6.8396,6.8903,6.9801,6.984,7.0113,7.0699,7.0972,7.1128,7.1128,7.1624,7.1884,7.1884,7.1893,7.1885,7.1885,7.2188,7.2617,7.3172,7.3475,7.393,7.4486,7.4486,7.4486,7.4525,7.4837,7.3783,7.2026,7.2339,7.2104,7.1558,7.1245,7.1519,7.1987,0.0,0.0,0.0,0.0,0.0,0.0,0.0,4.5168,4.7198,4.9774,5.0867,5.2429,5.5005,5.5318,5.5669,5.6528,5.6606,5.5864,5.4186,5.4029,5.3249,5.1531,5.1453,5.1063,5.0243,5.1063,5.1492,5.1492,5.1481,5.1484,5.1484,5.2344,5.2773,5.289,5.5469,5.664,5.6758,5.7617,5.6055,5.2812,5.1133,5.0389,5.0029,0.0,0.0,0.0,0.0,0.0,0.0,0.0,0.0,0.0,0.0,0.0,0.0,0.0,0.0,0.0,0.0,0.0,0.0,0.0,0.0,0.0,0.0,0.0,0.0,0.0,0.0,0.0,0.0,0.0,0.0,0.0,0.0,0.0,6.3081,6.4565,6.6321,6.8,6.8981,6.984,7.0738,7.1597,7.2417,7.3275,7.3354,7.3354,7.3354,7.2534,7.2065,7.2026,7.1969,7.1924,7.1884,7.1924,7.1936,7.1936,7.2763,7.3142,7.323,7.4116,7.4567,7.4558,7.4558,7.4558,7.4636,7.5501,7.5345,7.448,7.3705,7.3354,7.3236,7.2378,7.2026,7.1987,0.0,0.0,0.0,0.0,0.0,0.0,0.0,4.5168,4.7198,4.9774,5.1414,5.3093,5.5083,5.5864,5.6333,5.6567,5.6606,5.6411,5.5903,5.4693,5.3483,5.239,5.2351,5.2546,5.2936,5.3171,5.3288,5.3288,5.3271,5.3279,5.3281,5.3544,5.3966,5.463,5.6007,5.7302,5.8555,5.9375,5.9531,5.9023,5.6719,5.539,5.4725,0.0,0.0,0.0,0.0,0.0,0.0,0.0,0.0,0.0,0.0,0.0,0.0,0.0,0.0,0.0,0.0,0.0,0.0,0.0,0.0,0.0,0.0,0.0,0.0,0.0,0.0,0.0,0.0,0.0,0.0,0.0,0.0,6.5546,6.4955,6.6327,6.8279,7.066,7.1128,7.187,7.3315,7.3666,7.39,7.4134,7.4173,7.4173,7.4173,7.3939,7.3504,7.2906,7.2853,7.2557,7.1915,7.2472,7.2763,7.2763,7.3609,7.435,7.4984,7.5246,7.5698,7.632,7.636,7.6399,7.6399,7.6633,7.6594,7.6281,7.5462,7.472,7.4062,7.3236,7.2534,7.1987,0.0,0.0,0.0,0.0,0.0,0.0,0.0,4.548,4.7744,5.0321,5.2156,5.3912,5.5669,5.6294,5.6606,5.6606,5.6606,5.645,5.6098,5.4771,5.3756,5.3288,5.3249,5.3483,5.399,5.399,5.399,5.399,5.4002,5.4013,5.4021,5.4752,5.5361,5.5899,5.7477,5.897,6.0305,6.1132,6.2422,6.375,6.2265,6.0508,5.8711,5.8345,5.7235,5.5821,5.4927,5.3834,5.2741,5.2234,0.0,0.0,0.0,0.0,0.0,0.0,0.0,0.0,0.0,0.0,0.0,0.0,0.0,0.0,0.0,0.0,0.0,0.0,0.0,0.0,0.0,0.0,0.0,0.0,6.6522,6.8396,6.8318,6.9137,7.0543,7.2768,7.3041,7.3588,7.4915,7.5032,7.5188,7.5567,7.5254,7.5059,7.5052,7.4701,7.4265,7.3743,7.3727,7.3475,7.2949,7.3425,7.3648,7.3648,7.4544,7.5207,7.5725,7.6064,7.6536,0.0,7.7089,7.7101,7.7101,7.7101,7.7101,0.0,0.0,0.0,0.0,0.0,7.3275,7.2534,0.0,0.0,0.0,0.0,0.0,0.0,0.0,4.6105,4.8603,5.1063,5.2819,5.4498,5.6138,5.6294,5.6294,5.6294,5.6411,5.6138,5.5357,5.4576,5.4186,5.4303,5.4303,5.4381,5.4576,5.4576,5.4576,5.4576,5.4576,5.4584,5.4599,5.6158,5.6933,5.7148,5.9495,6.1095,6.2076,6.3043,6.4843,6.7031,6.7148,6.5273,6.2343,6.1555,6.1229,6.1013,6.0041,5.8714,5.7426,5.7231,0.0,0.0,0.0,0.0,0.0,0.0,0.0,0.0,0.0,0.0,0.0,0.0,0.0,0.0,0.0,0.0,0.0,0.0,0.0,0.0,0.0,0.0,0.0,0.0,6.8786,7.1206,7.226,7.2417,7.2963,7.4486,7.4642,7.4993,7.5846,7.5924,7.6269,7.7036,7.6372,7.5936,7.595,0.0,0.0,0.0,0.0,7.4509,7.4382,7.4517,7.4544,7.4544,7.5441,7.5908,7.6037,7.6804,7.7155,7.7155,7.7215,7.7173,7.7101,7.7101,7.7101,7.7023,7.6242,7.5891,7.5696,7.4915,7.4134,0.0,0.0,0.0,0.0,0.0,0.0,0.0,0.0,4.7354,4.9267,5.1141,5.2312,5.3366,5.4381,5.4498,5.4498,5.4498,5.5162,5.5474,5.5318,5.5123,5.5357,5.6059,5.6098,5.6723,5.8089,5.8128,5.8128,5.8128,5.8128,5.8094,5.8137,5.8445,5.8987,5.9724,6.09,6.2306,6.3911,6.5495,6.6833,6.8008,6.8672,6.8125,6.6914,6.6711,6.6227,6.5429,6.3867,6.3086,6.2618,6.1174,5.9495,5.7625,5.5907,5.4288,0.0,0.0,0.0,0.0,0.0,0.0,0.0,0.0,0.0,0.0,0.0,0.0,0.0,0.0,0.0,0.0,0.0,0.0,0.0,6.9294,7.0855,7.2534,7.4759,7.5059,7.5209,7.5521,7.556,7.5865,7.6708,7.6786,7.6825,7.7012,7.6856,7.6778,7.6769,7.6613,0.0,7.5494,7.5445,7.5123,7.44,7.509,7.5441,7.548,0.0,0.0,7.7779,7.7973,7.8051,7.8051,7.8046,7.7706,7.7101,7.7101,7.7101,7.7062,7.6906,7.6438,7.5774,7.5618,7.4993,7.4173,0.0,0.0,0.0,0.0,0.0,0.0,0.0,4.7705,4.9423,5.118,5.2156,5.3014,5.3912,5.399,5.399,5.399,5.4767,5.5616,5.6509,5.6548,5.6938,5.7807,5.7846,5.8236,5.9065,5.9104,5.93,5.9768,5.9768,5.9963,6.0393,6.0861,6.1291,6.1759,6.2618,6.3945,6.5629,6.6507,6.7886,6.9492,6.9883,7.0078,7.0,6.9095,6.8492,6.7966,6.6678,6.5936,6.5273,6.3594,6.1876,6.0163,5.8423,5.6716,5.4883,0.0,0.0,0.0,0.0,0.0,0.0,0.0,0.0,0.0,0.0,0.0,0.0,0.0,0.0,6.4174,0.0,0.0,6.945,7.1636,7.308,7.4369,7.5606,7.6184,7.645,7.645,7.6404,7.6552,7.6965,7.7004,7.7004,7.6985,7.6985,7.6985,7.7004,7.7004,7.6799,7.6359,7.6359,7.6153,7.5713,7.6142,7.6337,7.6376,7.6804,7.7467,7.8285,7.8285,7.8519,7.8909,7.8948,7.8475,7.7675,7.7245,7.7062,7.7101,7.7101,7.6828,7.6438,7.6438,7.5891,7.5032,0.0,0.0,0.0,0.0,0.0,0.0,0.0,4.7822,4.9341,5.0941,5.1761,5.2464,5.3166,5.3088,5.3205,5.3708,5.4635,5.5951,5.7694,5.8116,5.8676,5.9547,5.9742,5.9904,6.0076,6.0076,6.0427,6.1174,6.1174,6.1525,6.2228,6.3086,6.3594,6.3789,6.4648,6.5897,6.7308,6.7559,6.8822,7.0703,7.0898,7.1367,7.1836,7.0269,6.9667,6.9528,6.8669,6.7693,6.66,6.5077,6.3403,6.1697,6.0155,5.8594,5.6953,5.5078,5.4141,0.0,0.0,0.0,0.0,0.0,0.0,0.0,0.0,0.0,6.3388,6.4955,6.6126,6.7537,6.9762,7.0855,7.1948,7.3549,7.4915,7.5846,7.6021,7.6638,7.7067,7.7059,7.7051,7.7073,7.7229,7.7268,7.7258,7.7228,7.7267,7.7178,7.6999,7.6999,7.6999,7.6999,7.6999,7.6999,7.6999,7.6999,7.6999,7.6999,7.7155,7.7701,7.8519,7.8702,7.913,7.9754,7.9649,7.9193,7.8492,7.7792,7.755,7.7589,7.7603,7.7492,7.7335,7.7179,7.6672,7.593,0.0,0.0,0.0,0.0,0.0,0.0,0.0,0.0,4.9133,5.0108,5.0332,5.0444,5.0522,4.9859,5.0327,5.2629,5.4306,5.5939,5.7687,5.9254,6.0464,6.1283,6.2063,6.285,6.3611,6.3611,6.3701,6.3867,6.3867,6.3906,6.4023,6.4882,6.5702,6.6405,6.7303,6.82,6.9176,6.9923,7.0455,7.0781,7.1523,7.1914,7.1875,7.0937,7.0538,7.0426,6.9567,6.8234,6.6751,6.578,6.4281,6.2695,6.1719,6.0742,5.9492,5.7031,5.6797,5.6992,5.543,5.6797,5.9414,6.2734,6.3584,6.4023,0.0,0.0,6.7649,6.8624,7.0152,7.1597,7.269,7.3549,7.4408,7.5345,7.5696,7.608,7.6841,7.6981,7.7004,7.7014,7.7014,7.7316,7.8063,7.8141,7.8141,7.8129,7.8129,7.7818,7.7038,7.6999,7.6999,7.6999,7.6999,7.6999,7.6999,7.6999,7.6999,7.6999,7.7779,7.857,7.9388,8.0156,8.0584,8.0623,7.9909,7.9532,7.9466,7.9361,7.9333,7.9344,7.9385,7.8936,7.8155,7.7375,7.7023,7.6828,0.0,0.0,0.0,0.0,0.0,0.0,0.0,0.0,0.0,4.924,4.9352,4.9346,4.9346,4.9463,5.0399,5.2454,5.4209,5.6347,5.9061,6.0426,6.1681,6.3054,6.3444,6.385,6.4177,6.4698,6.5217,6.5769,6.6243,6.6756,6.7264,6.7654,6.8005,6.8318,6.8708,6.9333,7.0191,7.0543,7.0991,7.148,7.1836,7.1992,7.1914,7.1048,7.0106,6.913,6.8249,6.718,0.0,6.3972,6.2497,6.1328,6.0508,5.9648,5.8828,5.8281,5.8008,5.8047,5.8828,6.0547,6.2734,6.5183,6.618,6.6868,6.8078,6.9405,7.0459,7.085,7.226,7.3705,7.4603,7.5032,7.554,0.0,7.6549,7.6653,7.6981,7.7034,7.7014,7.6983,7.7022,7.7323,7.8207,7.8285,7.848,7.8948,7.8987,7.8831,7.848,7.8441,7.8441,7.8441,7.8012,7.7779,7.774,7.774,7.774,7.7779,7.8609,7.9427,8.0273,8.0623,8.1091,8.1519,8.0662,8.0312,8.0273,7.9766,7.9571,7.961,7.9627,7.9127,7.835,7.7999,7.7531,7.6984,0.0,0.0,0.0,0.0,0.0,0.0,0.0,0.0,0.0,0.0,4.8443,4.8359,4.8125,4.9061,5.042,5.2083,5.4071,5.6558,5.9737,6.1218,6.263,6.4129,6.4636,6.4996,6.5254,6.5847,6.6642,6.7514,6.815,6.8898,6.9762,6.9996,7.023,7.0504,7.0699,7.1167,7.1753,7.1753,7.1997,7.2365,7.2342,7.207,7.1523,7.0448,6.9121,6.773,6.6859,6.5677,6.4197,6.2069,6.0781,5.9961,5.9375,5.8789,5.8398,5.9023,5.9062,5.9492,6.207,6.3866,6.5539,6.7776,6.8781,6.9522,7.0582,7.1636,7.2417,7.2651,7.3471,7.4447,7.5266,7.5657,7.6008,7.6633,7.6933,7.7067,7.7012,7.6985,7.6994,7.6999,7.6999,7.735,7.8207,7.8519,7.887,7.9454,7.9727,7.9766,7.9532,7.9493,7.9493,7.9493,7.8948,7.8636,7.8648,7.8648,7.8636,7.8636,7.9454,8.0195,8.0818,8.1052,8.1481,8.2065,8.1442,8.1169,8.113,8.0467,8.026,8.0312,8.0312,7.9812,7.9057,7.8799,7.8026,7.7017,0.0,0.0,0.0,0.0,0.0,0.0,0.0,0.0,0.0,0.0,0.0,0.0,0.0,4.7813,4.9488,5.1203,5.3697,5.6308,5.888,6.1451,6.3244,6.4062,6.5738,6.7034,6.7881,6.792,6.8366,6.9309,6.9348,6.9823,7.0699,7.1519,7.2378,7.3236,7.4017,7.4369,7.4408,7.4447,7.4017,7.3242,7.3278,7.2265,7.0547,6.8886,6.7737,6.6844,6.5935,6.3984,6.1679,6.0742,5.9883,5.9219,5.9219,5.918,5.918,5.918,6.0312,6.2148,6.4765,6.6123,6.761,7.1006,7.1864,7.2339,7.4056,7.3822,7.3471,7.4251,7.3822,7.3588,7.4408,7.5227,7.5813,7.5852,7.6542,7.7067,7.7012,7.6985,7.6994,7.6999,7.6999,7.735,0.0,7.9026,7.9454,7.9493,8.0273,8.0389,7.9571,7.9493,7.9493,7.9493,7.9493,7.9466,7.9466,7.9466,7.9454,7.9481,8.035,8.0779,8.0818,8.1675,8.2065,8.2104,8.2065,8.2065,8.2065,8.2026,8.2026,8.2026,8.2026,8.1519,8.0713,7.9881,7.8503,7.7114,0.0,0.0,0.0,0.0,0.0,0.0,0.0,0.0,0.0,0.0,0.0,0.0,0.0,0.0,0.0,0.0,5.3697,5.6269,5.8841,6.0906,6.2893,6.488,6.5504,6.6244,6.7112,6.8261,6.9029,6.9327,7.0473,7.1228,7.1558,7.187,7.2143,7.2456,7.2729,7.2846,7.2846,7.2885,7.2729,7.2378,7.1825,7.1209,7.0468,6.8195,6.6813,6.5707,0.0,6.1561,6.0625,5.9219,5.8164,5.7461,5.7461,5.7851,5.8672,6.0351,6.25,6.4609,6.6081,6.8327,7.0576,7.1708,7.2885,7.3744,7.3744,7.3939,7.4017,7.3744,7.39,7.4173,7.4447,7.4759,7.5149,7.5723,7.6053,7.6418,7.6946,7.6994,7.7011,7.6999,7.6999,0.0,0.0,0.0,0.0,8.0312,8.1169,8.1507,8.1169,8.1169,8.1169,8.1155,8.061,8.0286,8.0312,8.0324,8.0363,8.0389,8.1831,8.2533,8.2533,8.3441,8.3519,8.2974,8.2974,8.2611,8.2104,8.2104,8.2104,8.2104,8.2104,8.1597,8.0857,8.0563,7.9725,7.8594,0.0,0.0,0.0,0.0,0.0,0.0,0.0,0.0,0.0,0.0,0.0,0.0,0.0,0.0,0.0,0.0,0.0,5.5684,5.7944,6.001,6.1997,6.3945,6.4608,6.5348,6.6205,6.7628,6.8553,6.8851,7.027,7.1306,7.1987,7.1987,7.2339,7.2885,7.2885,7.2885,7.2885,7.2885,7.2534,7.1948,7.1386,7.0425,6.914,6.7182,6.5684,0.0,6.142,6.0383,6.0117,5.8125,5.7265,5.707,5.707,5.8086,5.9648,6.1601,6.4022,6.6396,6.7854,7.0108,7.2216,7.3114,7.3978,7.4486,7.4251,7.4134,7.3822,7.3002,7.3002,7.3041,7.2729,7.3153,7.3849,7.4733,7.5374,7.6049,7.6887,7.7256,7.7467,7.7467,7.774,7.7896,0.0,0.0,0.0,8.0312,8.1429,8.2039,8.2012,8.1998,8.1998,8.1998,8.1467,8.1182,8.1169,8.1519,8.1831,8.2182,8.3286,8.3831,8.3897,8.4442,8.4403,8.3858,8.3558,8.3091,8.2533,8.2221,8.2104,8.2104,8.2104,8.1792,8.1286,8.097,8.0502,7.984,0.0,0.0,0.0,0.0,0.0,0.0,0.0,0.0,0.0,0.0,0.0,0.0,0.0,0.0,0.0,0.0,0.0,0.0,5.6308,5.8763,6.0594,6.149,6.3088,6.4374,6.527,6.6166,6.7092,6.7953,6.8773,7.0043,7.1714,7.1714,7.2573,7.4095,7.4095,7.4134,7.4173,7.4134,7.3197,7.1792,7.1698,6.9722,6.6718,6.5816,6.4434,6.2774,6.1013,6.0418,6.0078,5.7578,5.7305,5.8047,5.8203,5.9883,6.2031,6.2969,6.5068,6.7649,7.0108,7.1474,7.2768,7.5188,7.5188,7.4759,7.554,7.4447,7.2963,7.2065,7.1167,7.0309,0.0,0.0,7.208,7.3055,7.4576,7.5952,7.6926,7.7802,7.8324,0.0,0.0,0.0,0.0,0.0,0.0,7.9637,0.0,8.1998,8.2012,8.1998,8.1983,8.1983,8.2,8.1974,8.1974,8.2854,8.3749,8.4598,8.465,8.4676,8.4741,8.4819,8.4819,8.4702,8.3897,8.3519,8.3402,8.2572,8.2221,8.2221,8.2221,8.2221,8.2065,8.1247,8.0896,8.074,0.0,0.0,0.0,0.0,0.0,0.0,0.0,0.0,0.0,0.0,0.0,0.0,0.0,0.0,0.0,0.0,0.0,0.0,5.545,5.7321,5.9035,6.0555,6.1646,6.2659,6.3517,6.4997,6.5874,6.6143,6.7009,6.7656,6.8144,6.8117,6.8357,6.8747,6.8747,6.9137,6.9684,6.902,6.8903,6.8981,6.7715,6.6715,6.5781,6.4258,6.3389,6.2774,6.1013,6.0808,6.1094,5.918,5.9062,6.0117,6.2031,6.3125,6.4062,6.625,6.8232,7.003,7.1318,7.3231,7.4993,7.5657,7.5618,7.5345,7.4915,7.3549,7.1909,7.0387,6.9372,6.8703,6.8457,0.0,0.0,7.286,7.4051,0.0,7.7673,7.8168,0.0,7.9104,0.0,7.9493,7.9493,8.0285,0.0,0.0,8.1414,8.1987,8.1929,8.1929,8.1937,8.1947,8.1926,8.1926,8.1926,8.2805,8.3641,8.4531,8.5166,8.5533,8.5598,8.6274,8.6235,8.5637,8.5416,8.4949,8.4338,8.4143,8.4052,8.4039,8.4052,8.3624,8.3039,8.2805,8.2338,8.1753,0.0,0.0,0.0,0.0,0.0,0.0,0.0,0.0,0.0,0.0,0.0,0.0,0.0,0.0,0.0,0.0,0.0,0.0,0.0,5.6775,5.8139,5.9113,5.9971,6.0672,6.1179,6.2465,6.3185,6.321,6.4084,6.473,6.5133,6.5111,6.5351,6.5702,6.5702,6.5975,6.6444,6.6327,6.6327,0.0,0.0,6.5152,6.4336,6.3359,6.2766,6.2306,6.131,6.1793,6.2812,6.2656,6.2383,6.25,6.4726,6.5937,6.6914,6.875,7.0502,7.2115,7.3354,7.472,7.5813,7.5813,7.5501,7.4915,7.3666,7.2065,7.0348,6.863,6.7571,6.6979,6.6967,6.7968,6.9623,0.0,0.0,0.0,7.7935,7.8597,7.9142,0.0,8.0389,0.0,8.0584,8.1064,8.1311,0.0,8.1687,8.1929,8.1913,8.192,8.1908,8.1892,8.1892,8.2048,8.2398,8.3272,8.4204,8.5058,8.5927,8.6366,8.6444,8.6948,8.6936,8.6507,0.0,8.5728,8.5221,8.4871,8.4715,8.4702,8.4715,8.4403,8.3974,8.3974,8.3429,8.265,0.0,0.0,0.0,0.0,0.0,0.0,0.0,0.0,0.0,0.0,4.7182,0.0,0.0,0.0,0.0,0.0,0.0,0.0,0.0,0.0,5.7555,5.7555,5.8373,5.8841,5.8841,5.9698,6.0136,6.0122,6.0769,6.1524,6.2323,6.2184,6.254,6.3282,6.3282,6.3399,6.3633,6.4297,6.4258,6.3867,6.4591,6.4019,6.2656,0.0,6.2377,6.1733,6.1952,6.3008,6.4609,6.6562,6.6211,6.5273,6.7031,6.8632,7.0077,7.0976,7.2376,7.3967,7.5467,7.5852,7.5813,7.5813,7.4993,7.3744,7.2182,7.0387,6.8552,6.6795,6.5769,6.5133,6.5166,6.6541,6.8505,7.1117,0.0,7.5168,7.7935,7.8987,7.9844,8.0818,8.1636,8.2065,8.1987,8.1974,8.1944,8.1911,8.1892,8.189,8.1898,8.189,8.1892,8.1892,8.1892,8.2281,8.3077,8.3951,8.4864,8.5816,8.6593,8.702,8.7079,8.716,8.7195,8.717,0.0,0.0,8.6118,8.5364,8.5052,8.5013,8.5013,8.4974,8.4871,8.4871,8.4325,8.3585,0.0,0.0,0.0,0.0,0.0,0.0,0.0,0.0,0.0,0.0,4.8418,4.9089,0.0,0.0,0.0,0.0,0.0,0.0,0.0,0.0,0.0,5.6697,5.7477,5.7944,5.7944,5.8763,5.923,5.9239,5.8726,5.8552,5.8669,5.8036,5.7777,5.7933,5.7933,5.8714,5.9963,5.9378,5.9885,6.1095,6.1232,6.1129,6.0937,6.164,0.0,0.0,6.332,6.4023,6.4765,6.791,6.8817,6.8906,7.0586,7.1827,7.2778,7.3676,7.4613,7.5428,7.5735,7.5813,7.5813,7.5813,7.4095,7.2182,7.1167,6.9009,6.6778,6.5022,6.3956,6.335,6.3335,6.4762,6.678,6.9333,7.1739,7.4505,7.7818,7.8987,8.0078,0.0,8.1909,8.1987,8.1909,8.1913,0.0,0.0,0.0,8.1892,8.1911,8.1911,8.1892,8.1892,8.1892,8.2281,8.3077,8.397,8.4845,8.5738,8.6593,8.702,8.702,8.7021,8.7089,8.7209,0.0,0.0,8.6975,8.6826,8.6763,8.678,8.6777,8.6349,8.5767,8.5767,8.5221,8.4481,0.0,0.0,0.0,0.0,0.0,0.0,0.0,4.5608,4.7522,4.972,5.0392,5.0947,5.1843,5.2718,5.3584,0.0,0.0,0.0,0.0,0.0,0.0,0.0,5.5957,5.6386,5.6386,5.7243,5.7477,5.7009,0.0,5.6198,5.5769,5.5366,5.5226,5.5231,5.5231,5.5704,5.6489,5.6957,5.766,5.8558,5.9859,6.0418,6.0505,0.0,0.0,0.0,6.3154,6.4211,6.5308,6.7402,6.9007,7.0341,7.1597,7.2606,7.3369,7.3783,7.4525,7.5188,7.5188,7.5149,7.5032,7.4603,7.3236,7.1519,6.9751,6.7676,6.5484,6.3286,6.2492,6.2235,6.2227,6.4012,6.6293,6.8894,7.1076,7.3648,7.7077,7.8285,7.9454,8.113,8.1714,8.1961,8.1913,8.1908,0.0,0.0,0.0,8.1892,8.1892,8.1892,8.1892,8.1892,8.1892,8.2087,8.2475,8.3776,8.4631,8.5019,8.636,8.6982,8.6982,8.6982,8.704,8.7089,8.7137,0.0,8.716,8.7167,8.7144,8.7152,8.716,8.6942,8.6636,8.6636,8.6104,8.5377,0.0,0.0,0.0,0.0,0.0,0.0,0.0,4.6657,4.8716,5.1125,5.2329,5.3052,5.328,5.374,5.4344,0.0,0.0,0.0,0.0,0.0,0.0,0.0,0.0,0.0,5.4905,0.0,0.0,5.4905,5.4726,0.0,0.0,0.0,0.0,0.0,5.3426,5.3548,5.383,5.5396,5.6138,0.0,0.0,6.0128,0.0,0.0,0.0,0.0,0.0,6.388,6.5219,6.6273,6.7941,6.9767,7.0604,7.1858,7.3065,7.3242,7.3783,7.4369,7.4525,7.4408,7.4056,7.3236,7.2221,7.0771,6.8144,6.6343,6.4496,6.1868,6.1456,6.1556,6.1361,6.3253,6.566,6.8076,7.0024,7.244,7.5869,7.7233,7.8597,8.0467,8.1299,0.0,8.1911,8.1892,0.0,0.0,0.0,0.0,8.1892,8.1892,8.1892,8.1892,8.1892,8.1892,8.1892,8.3543,8.4398,8.4437,8.6166,8.6982,8.6982,8.6982,8.6982,8.7001,8.7037,0.0,0.0,8.7076,8.7094,8.7089,8.7072,8.7105,8.7176,8.7191,8.6777,8.626,0.0,0.0,0.0,0.0,0.0,0.0,0.0,4.8044,5.0297,5.2069,5.374,5.5061,5.5877,5.5318,5.4964,0.0,0.0,0.0,0.0,0.0,0.0,0.0,0.0,0.0,0.0,0.0,0.0,5.4009,5.3214,0.0,0.0,0.0,0.0,0.0,0.0,5.206,5.2884,5.383,0.0,0.0,0.0,0.0,0.0,0.0,0.0,0.0,0.0,6.3086,6.3481,6.516,6.5897,6.6209,6.7034,6.9494,7.2266,7.308,7.3354,7.3588,7.433,7.3978,7.3197,7.2339,7.0883,6.8964,6.6343,6.4996,6.36,6.0941,6.1041,6.1373,6.0555,6.188,6.3711,6.5465,6.7842,7.0609,7.4049,7.5947,7.7896,8.0312,8.0692,0.0,8.1815,8.1892,0.0,0.0,0.0,0.0,8.1892,8.1892,8.1892,8.1892,8.1892,8.1892,8.1892,8.3543,8.4398,8.4437,8.6166,8.6982,8.6982,8.6982,8.6982,8.6982,0.0,0.0,0.0,8.7019,8.7055,8.7089,8.7037,8.7055,8.7105,8.7176,8.7152,8.7089,0.0,0.0,0.0,0.0,0.0,0.0,4.6434,4.8561,5.0685,5.2899,5.422,5.532,5.6214,5.5993,5.559,5.5069,0.0,0.0,0.0,0.0,0.0,0.0,0.0,0.0,0.0,0.0,5.3892,5.3892,5.3549,0.0,0.0,0.0,0.0,0.0,0.0,5.1586,5.2021,5.3401,0.0,0.0,0.0,0.0,0.0,0.0,0.0,0.0,0.0,0.0,6.3125,6.3789,6.4375,6.4882,6.5194,6.6249,6.7732,6.9606,7.0894,7.1792,7.2143,7.2378,7.23,7.1429,6.9901,6.806,6.5971,6.3998,6.2032,5.9949,6.0213,6.0555,5.9698,6.1334,6.3409,6.5124,6.7081,6.9445,7.2323,7.4634,7.6586,7.8085,7.9636,0.0,0.0,0.0,0.0,0.0,0.0,0.0,8.2611,8.2631,8.2398,8.1931,8.2359,8.2398,8.1892,8.3563,8.4398,8.4437,8.6166,8.6982,8.6982,8.6982,8.6982,8.6982,0.0,0.0,0.0,8.7021,8.7021,8.704,8.7021,8.7001,8.7055,8.7072,8.7089,8.716,0.0,0.0,0.0,0.0,0.0,4.4665,4.694,4.8794,5.0647,5.2693,5.3948,5.4958,5.5825,5.5903,5.5553,5.4684,5.4086,0.0,0.0,0.0,0.0,0.0,0.0,0.0,0.0,0.0,5.3533,5.3541,5.3775,5.3892,0.0,0.0,5.2848,5.259,0.0,0.0,0.0,0.0,0.0,0.0,0.0,0.0,0.0,0.0,0.0,0.0,0.0,0.0,0.0,0.0,0.0,6.3086,6.2852,6.3125,6.4057,6.66,6.8396,6.9606,6.9874,7.0576,7.1,7.0167,6.8795,6.722,6.5519,6.328,6.1119,5.9347,5.9698,6.001,5.9152,6.0867,6.2981,6.4705,6.619,6.8086,7.0901,7.325,7.5209,7.6549,0.0,8.0339,0.0,0.0,0.0,0.0,0.0,0.0,0.0,8.3718,8.3369,8.2281,8.2786,8.2727,8.1892,8.333,8.4126,8.4437,8.5933,8.6749,8.6982,8.6982,8.6982,8.6982,0.0,0.0,0.0,8.6632,8.6438,8.6243,8.6515,8.6613,8.6651,8.6903,8.7037,8.7072,0.0,0.0,0.0,0.0,0.0,0.0,4.7017,4.8794,5.0219,5.1125,5.2666,5.4052,5.4919,5.4997,5.4647,5.378,5.3715,0.0,0.0,0.0,0.0,0.0,0.0,0.0,0.0,0.0,5.2628,5.2606,5.3463,5.3892,5.3892,5.3892,5.3424,5.2606,0.0,0.0,0.0,0.0,0.0,0.0,0.0,0.0,0.0,0.0,0.0,0.0,0.0,0.0,0.0,0.0,0.0,0.0,0.0,6.0344,6.2251,6.4877,6.6209,6.7029,6.791,6.8762,6.9231,6.8351,6.7438,6.6291,6.4614,6.2873,6.1091,5.9347,5.9707,6.0019,5.9152,6.036,6.2075,6.3721,6.474,6.6493,6.9833,7.1831,7.3868,7.6415,0.0,7.9657,8.0514,0.0,0.0,0.0,0.0,0.0,0.0,8.5214,8.4864,8.3155,8.3097,8.2727,8.1892,8.2708,8.3563,8.4398,8.5311,8.6166,8.6982,8.6982,8.6982,0.0,0.0,0.0,0.0,8.57,8.5195,8.4495,8.5389,8.57,8.5816,8.669,8.7019,8.7019,0.0,0.0,0.0,0.0,0.0,0.0,0.0,4.8271,4.9543,5.1008,5.2135,5.3145,5.4012,5.466,5.4647,5.378,5.3676,0.0,0.0,0.0,0.0,0.0,0.0,0.0,0.0,0.0,5.2853,5.3399,5.4351,5.51,5.5645,5.5061,5.4632,5.4359,5.3759,5.3494,0.0,0.0,0.0,0.0,0.0,0.0,0.0,0.0,0.0,0.0,0.0,0.0,0.0,0.0,0.0,0.0,0.0,0.0,0.0,6.0918,6.3416,6.5985,6.6258,6.6961,6.7429,6.6549,6.5207,6.3795,6.2669,6.0624,5.8783,5.8247,5.8295,5.8549,5.888,5.984,6.1369,6.3638,6.5192,6.6897,6.9166,7.1964,7.4101,7.4882,7.7523,7.9872,0.0,0.0,0.0,0.0,0.0,0.0,0.0,8.5544,8.4923,8.3155,8.3679,8.331,8.1892,8.2708,8.3233,8.3542,8.4981,8.5835,8.6087,8.669,0.0,0.0,0.0,0.0,0.0,8.5078,8.4651,8.4418,8.469,8.4806,8.4923,8.5797,8.6108,8.6185,0.0,0.0,0.0,0.0,0.0,0.0,0.0,4.7844,4.901,5.0064,5.1241,5.2263,5.313,5.4012,5.431,5.3741,5.3987,0.0,0.0,0.0,0.0,0.0,0.0,0.0,0.0,5.2591,5.3448,5.4303,5.552,5.623,5.6464,5.623,5.5801,5.5178,5.4648,5.4375,0.0,0.0,0.0,0.0,0.0,0.0,5.7382,0.0,0.0,0.0,0.0,0.0,0.0,0.0,0.0,0.0,0.0,0.0,0.0,0.0,6.073,6.3179,6.3865,6.4886,6.562,6.4731,6.3466,6.2171,6.1315,5.9328,5.7692,5.7653,5.7614,5.7876,5.8752,5.958,6.0978,6.357,6.511,6.6858,6.9244,7.1925,0.0,7.5871,0.0,0.0,0.0,0.0,0.0,0.0,0.0,0.0,0.0,8.5894,8.5019,8.3601,8.3796,8.3252,8.1873,8.2359,8.2766,8.3053,8.4453,8.5289,8.5618,8.6553,0.0,0.0,0.0,0.0,0.0,8.4612,8.4029,8.3485,8.3796,8.3913,8.4029,8.4884,8.5195,8.5311,0.0,0.0,0.0,0.0,0.0,0.0,0.0,4.7406,4.8533,4.8565,5.0052,5.1396,5.2224,5.313,5.3701,5.3702,0.0,0.0,0.0,0.0,0.0,0.0,0.0,0.0,0.0,5.3402,5.4274,5.5091,5.6853,5.7282,5.6503,5.7329,5.6862,5.5372,5.5333,5.5295,0.0,0.0,0.0,0.0,0.0,0.0,0.0,0.0,0.0,0.0,0.0,0.0,0.0,0.0,0.0,0.0,0.0,0.0,0.0,0.0,0.0,0.0,0.0,6.257,6.3647,6.2825,6.1977,6.111,6.0292,5.8822,0.0,5.7534,5.7548,5.7858,5.8726,5.9593,6.1056,6.3648,6.4799,6.6532,6.9911,7.1931,0.0,0.0,7.9932,0.0,0.0,0.0,0.0,0.0,0.0,0.0,0.0,8.6088,8.5155,8.4259,8.3407,8.2592,8.1814,8.1775,8.2161,8.2932,8.3746,8.4583,8.554,8.6394,0.0,0.0,0.0,0.0,0.0,8.434,8.3369,8.197,8.2708,8.3019,8.3136,8.399,8.4301,8.4418,0.0,0.0,0.0,0.0,0.0,0.0,0.0,0.0,0.0,0.0,4.9472,5.0442,5.1307,5.2768,5.3701,0.0,0.0,0.0,0.0,0.0,0.0,0.0,0.0,0.0,0.0,5.3934,5.4813,5.503,5.6825,5.7605,5.7399,5.7602,5.7485,5.7096,5.6464,5.6191,0.0,0.0,0.0,0.0,0.0,0.0,0.0,0.0,0.0,0.0,5.648,5.6636,0.0,0.0,0.0,0.0,0.0,0.0,0.0,0.0,5.7377,5.807,5.8507,0.0,6.0174,5.9961,5.926,5.8568,0.0,5.7458,5.6601,5.6615,5.7159,5.7858,5.8687,6.0073,6.1924,6.4517,6.6135,6.8062,7.0821,7.38,0.0,7.8843,7.9873,0.0,0.0,0.0,0.0,0.0,0.0,0.0,0.0,8.5053,8.4178,8.3342,8.2471,8.1928,8.1713,8.1713,8.1807,8.1934,8.2832,8.3684,8.4475,8.5413,0.0,0.0,0.0,0.0,8.434,8.3679,8.2825,8.1931,8.2126,8.2164,8.2281,8.3097,8.3408,8.3524,0.0,0.0,0.0,0.0,0.0,0.0,0.0,0.0,0.0,0.0,0.0,5.0114,5.0984,5.2654,0.0,0.0,0.0,0.0,0.0,0.0,0.0,0.0,0.0,5.2601,5.2989,5.431,5.5216,5.5605,5.7391,5.8031,5.7663,5.81,5.8061,5.7641,5.6862,5.6503,0.0,0.0,0.0,0.0,5.5918,0.0,0.0,0.0,0.0,0.0,5.5762,5.5918,0.0,5.6386,5.6503,5.6503,0.0,0.0,0.0,0.0,5.6784,5.7174,5.7602,5.8616,5.9503,5.9113,5.8616,5.8139,5.7741,5.6936,5.6408,5.6809,5.7276,5.8092,5.9685,6.1084,6.2818,6.5397,6.7534,7.005,7.3335,0.0,7.8167,7.9443,8.0396,0.0,0.0,0.0,0.0,0.0,0.0,0.0,0.0,8.4117,8.3413,8.2964,8.2111,8.1646,8.1646,8.1646,8.1624,8.1553,8.2491,8.3111,8.3576,8.4863,0.0,0.0,0.0,0.0,8.43,8.3446,8.2631,8.1892,8.1892,8.1892,8.1931,8.2398,8.2553,8.2669,0.0,0.0,0.0,0.0,0.0,0.0,0.0,0.0,0.0,0.0,0.0,0.0,0.0,0.0,0.0,0.0,0.0,0.0,0.0,0.0,0.0,0.0,0.0,5.295,5.3663,5.4686,5.5553,5.6291,5.8066,5.853,5.7819,5.8608,5.8471,5.7485,5.6784,5.6503,0.0,0.0,0.0,0.0,5.5061,0.0,0.0,0.0,0.0,0.0,0.0,0.0,0.0,5.5996,5.6308,5.6308,5.6464,0.0,0.0,0.0,0.0,0.0,5.7468,5.8948,6.0078,5.9221,5.8948,5.8725,5.7962,5.7237,5.6887,5.7625,5.7975,5.8869,6.1186,6.2507,6.41,6.6655,6.9395,7.2463,7.5978,7.8051,7.9492,8.0318,0.0,0.0,0.0,0.0,0.0,0.0,0.0,0.0,0.0,8.3336,8.2886,8.2661,8.1988,8.16,8.16,8.16,8.1553,8.1504,8.2238,8.2689,8.2932,8.435,8.511,0.0,0.0,0.0,8.4065,8.3388,8.2631,8.1892,8.1892,8.1892,8.1892,8.1892,8.1892,8.2009,0.0,0.0,0.0,0.0,0.0,0.0,0.0,0.0,0.0,0.0,0.0,0.0,0.0,0.0,0.0,0.0,0.0,0.0,0.0,0.0,0.0,5.4594,5.3907,5.3545,5.3702,5.5268,5.6175,5.6291,5.8066,5.883,5.87,5.8855,5.8076,5.658,5.6464,5.6464,5.6464,0.0,0.0,0.0,0.0,0.0,0.0,0.0,0.0,0.0,0.0,0.0,0.0,5.51,5.5411,5.5528,5.6269,0.0,0.0,0.0,0.0,0.0,5.7375,5.8895,6.0009,5.9141,5.8908,5.8869,5.8726,5.8532,5.8454,5.8571,5.9801,6.1147,6.2274,6.4372,6.6755,0.0,0.0,7.574,0.0,0.0,8.0357,0.0,0.0,0.0,0.0,0.0,0.0,0.0,0.0,0.0,0.0,0.0,8.2496,8.1736,8.1581,8.1504,8.1504,8.1504,8.1504,8.1504,8.1658,8.2084,8.2805,8.3076,8.3643,0.0,0.0,8.3979,8.3289,8.3134,8.2631,8.1892,8.1892,8.1892,8.1892,8.1892,8.1892,8.1931,0.0,0.0,0.0,0.0,0.0,0.0,0.0,0.0,0.0,0.0,0.0,0.0,0.0,0.0,0.0,0.0,0.0,0.0,0.0,0.0,5.4957,5.4957,5.4569,5.4388,5.4401,5.567,5.6291,5.6291,5.7586,5.8195,5.8192,5.822,5.756,5.6386,5.6407,5.6425,5.6386,5.5528,0.0,0.0,0.0,0.0,0.0,0.0,0.0,0.0,0.0,0.0,0.0,0.0,5.4437,5.4507,5.4896,0.0,0.0,0.0,0.0,0.0,5.7806,5.9205,6.0265,6.0808,6.0963,6.0953,6.0967,6.0578,6.0345,6.0812,6.1938,6.3206,6.4512,0.0,6.967,7.3079,0.0,0.0,0.0,0.0,0.0,0.0,0.0,0.0,0.0,0.0,0.0,0.0,0.0,0.0,0.0,0.0,8.1929,8.1504,8.1504,8.1504,8.1504,8.1504,8.1504,8.1504,8.1504,8.1697,8.2122,8.2587,8.3037,8.3449,0.0,8.3289,8.297,8.257,8.2184,8.1854,8.1873,8.1892,8.1892,8.1892,8.1892,8.1892,0.0,0.0,0.0,0.0,0.0,0.0,0.0,0.0,0.0,0.0,0.0,0.0,0.0,0.0,0.0,0.0,0.0,0.0,0.0,0.0,5.521,5.5195,5.5195,5.5147,5.4997,5.5825,5.6291,5.6291,5.7159,5.7612,5.7624,5.7612,5.7159,5.6382,5.6397,5.6398,5.632,5.5259,5.4411,0.0,0.0,0.0,0.0,0.0,0.0,0.0,0.0,0.0,0.0,0.0,0.0,0.0,0.0,0.0,0.0,5.484,5.5048,5.5592,5.8182,5.9607,6.0823,6.2594,6.2998,6.3051,6.3245,6.2779,6.2546,6.3401,6.4264,6.5319,6.6782,6.9477,0.0,7.5963,7.6993,0.0,0.0,0.0,0.0,0.0,0.0,0.0,0.0,0.0,0.0,0.0,0.0,0.0,0.0,0.0,8.1504,8.1504,8.1504,8.1504,8.1504,8.1504,8.1504,8.1504,8.1504,8.1504,8.1542,8.22,8.2509,8.2509,8.2559,8.2583,8.253,8.1984,8.1755,8.1814,8.1854,8.1892,8.1892,8.1892,8.1892,8.1892,0.0,0.0,0.0,0.0,0.0,0.0,0.0,0.0,0.0,0.0,0.0,0.0,0.0,0.0,0.0,0.0,0.0,0.0,0.0,0.0,5.6102,5.6102,5.611,5.5729,5.4919,5.5747,5.6253,5.6291,5.7159,5.7586,5.7586,5.7586,5.7159,5.6291,5.6304,5.6343,5.6304,5.4607,5.3868,5.3647,0.0,0.0,0.0,0.0,0.0,0.0,0.0,0.0,0.0,0.0,0.0,0.0,0.0,0.0,5.3958,5.4774,5.4983,5.5553,5.8104,6.0034,6.1716,6.3449,6.3915,6.4109,6.4862,6.4978,6.5173,6.5965,0.0,0.0,0.0,7.2081,7.5214,7.6335,7.8423,0.0,0.0,0.0,0.0,0.0,0.0,0.0,0.0,0.0,0.0,0.0,0.0,0.0,0.0,0.0,0.0,8.1504,8.1504,8.1504,8.1504,8.1504,8.1504,8.1504,8.1504,8.1504,8.1504,8.1581,8.1581,8.1581,8.1581,8.163,8.1678,8.1662,8.1691,8.1814,8.1814,8.1854,8.1892,8.1892,8.1892,8.1892,0.0,0.0,0.0,0.0,0.0,0.0,0.0,0.0,0.0,0.0,0.0,0.0,0.0,0.0,0.0,0.0,0.0,0.0,0.0,5.487,5.5568,5.6094,5.6101,5.5924,5.5637,5.6019,5.6201,5.6251,5.6589,5.6809,5.6809,5.6809,5.6343,5.5488,5.5488,5.5216,5.4621,5.3455,5.2912,5.2807,5.1668,0.0,0.0,0.0,0.0,0.0,0.0,0.0,0.0,0.0,5.1668,5.1746,5.2069,5.2185,5.2457,5.379,5.4194,5.488,5.7949,6.0034,6.1755,6.3449,6.5056,0.0,0.0,6.7557,6.8396,6.8707,6.9847,0.0,0.0,0.0,7.6482,7.7829,0.0,0.0,0.0,0.0,0.0,0.0,0.0,0.0,0.0,0.0,0.0,0.0,0.0,0.0,0.0,0.0,0.0,8.1504,8.1504,8.1504,8.1504,8.1504,8.1504,8.1504,8.1504,8.1504,8.1504,8.1504,8.1504,8.1504,8.1504,8.1504,8.1553,8.1577,8.1624,8.1691,8.1755,8.1854,8.1892,8.1892,8.1892,8.1892,0.0,0.0,0.0,0.0,0.0,0.0,0.0,0.0,0.0,0.0,0.0,0.0,0.0,0.0,0.0,0.0,0.0,0.0,5.312,5.4204,5.5056,5.5675,5.5874,5.6029,5.6062,5.6117,5.6185,5.6209,5.6251,5.6123,5.5903,5.5903,5.5398,5.4594,5.4594,5.4245,5.365,5.2756,5.2407,5.2341,5.1513,5.1202,0.0,0.0,0.0,0.0,0.0,0.0,0.0,0.0,5.1202,5.1202,5.1163,5.1358,5.1863,5.3246,5.4038,5.5191,5.8338,6.0395,6.216,6.4123,6.6506,6.8463,6.8812,6.9765,7.0756,7.126,7.2285,7.3489,7.4904,0.0,0.0,0.0,0.0,0.0,0.0,0.0,0.0,0.0,0.0,0.0,0.0,0.0,0.0,0.0,0.0,0.0,0.0,0.0,0.0,0.0,8.1504,8.1504,8.1504,8.1504,8.1504,8.1504,8.1504,8.1504,8.1504,8.1504,8.1504,8.1504,8.1504,8.1504,8.1504,8.1553,8.1577,8.1624,8.1734,8.1834,8.1873,8.1892,8.1892,8.1892,0.0,0.0,0.0,0.0,0.0,0.0,0.0,0.0,0.0,0.0,0.0,0.0,0.0,0.0,0.0,0.0,0.0,0.0,5.2182,5.3807,5.4774,5.4774,5.5548,5.5973,5.6012,5.6046,5.6133,5.6218,5.6185,5.5786,5.5009,5.5009,5.4543,5.3689,5.3689,5.3689,5.3611,5.2756,5.2368,5.2341,5.1513,5.1202,0.0,0.0,0.0,0.0,0.0,0.0,0.0,0.0,5.1202,5.1202,5.1125,5.1707,5.2574,5.3363,5.4828,5.6758,5.9309,6.1252,6.3149,6.576,6.8277,7.0349,7.1236,7.1485,7.1988,7.3566,7.3938,7.417,7.5005,7.6552,0.0,0.0,0.0,0.0,0.0,0.0,0.0,0.0,0.0,0.0,0.0,0.0,0.0,0.0,0.0,0.0,0.0,0.0,0.0,0.0,8.1504,8.1504,8.1504,8.1504,8.1504,8.1504,8.1504,8.1504,8.1504,8.1504,8.1504,8.1504,8.1504,8.1504,8.1504,8.1504,8.1553,8.1624,8.1734,8.1814,8.1814,8.1873,8.1892,8.1892,0.0,0.0,0.0,0.0,0.0,0.0,0.0,0.0,0.0,0.0,0.0,0.0,0.0,0.0,0.0,0.0,0.0,0.0,5.2144,5.2685,5.3227,5.3846,5.4116,5.4542,5.5122,5.5719,5.6101,5.6218,5.6185,5.6082,5.5824,5.5268,5.4543,5.365,5.3067,5.2484,5.1901,5.1668,5.1552,5.1552,5.1319,5.1202,0.0,0.0,0.0,0.0,0.0,0.0,0.0,0.0,0.0,0.0,5.1125,5.1684,5.2608,5.4094,5.531,5.6869,6.0007,6.2084,6.3961,6.6554,6.9069,7.1352,7.2816,7.359,7.4347,0.0,7.6165,7.6668,7.69,0.0,0.0,0.0,0.0,0.0,0.0,0.0,0.0,0.0,0.0,0.0,0.0,0.0,0.0,0.0,0.0,0.0,0.0,0.0,0.0,0.0,8.1478,8.1478,8.1427,8.1478,8.1504,8.1504,8.1504,8.1504,8.1504,8.1504,8.1504,8.1504,8.1504,8.1504,8.1504,8.1504,8.1553,8.16,8.1646,8.1691,8.1734,8.1775,8.1834,8.1854,0.0,0.0,0.0,0.0,0.0,0.0,0.0,0.0,0.0,0.0,0.0,0.0,0.0,0.0,0.0,0.0,0.0,0.0,0.0,5.1989,5.2414,5.2956,5.3652,5.4426,5.5277,5.5741,5.6029,5.6133,5.6126,5.5807,5.5162,5.4699,5.3831,5.2666,5.2173,5.1668,5.1202,5.119,5.0945,5.0635,5.0622,5.0428,4.9962,0.0,0.0,0.0,0.0,0.0,0.0,0.0,0.0,0.0,5.1488,5.2128,5.3094,5.4821,5.6443,5.8353,6.137,6.3419,6.5391,6.8313,7.039,7.2404,7.4783,7.5746,7.6258,0.0,7.7573,7.8167,7.8167,7.9198,0.0,0.0,0.0,0.0,0.0,0.0,0.0,0.0,0.0,0.0,0.0,0.0,0.0,0.0,0.0,0.0,0.0,0.0,0.0,0.0,8.14,8.14,8.1347,8.1427,8.1453,8.1453,8.1478,8.1504,8.1504,8.1504,8.1504,8.1504,8.1504,8.1504,8.1504,8.1504,8.1528,8.1577,8.16,8.1624,8.1669,8.1734,8.1755,8.1794,0.0,0.0,0.0,0.0,0.0,0.0,0.0,0.0,0.0,0.0,0.0,0.0,0.0,0.0,0.0,0.0,0.0,0.0,0.0,0.0,5.2066,5.2066,5.3691,5.4929,5.5625,5.5741,5.578,5.578,5.5985,5.5281,5.3698,5.3688,5.2783,5.1192,5.1101,5.1074,5.1074,5.0933,5.0416,4.9678,4.9679,4.9201,4.8387,4.7534,0.0,0.0,0.0,0.0,0.0,0.0,0.0,0.0,5.2039,5.285,5.3834,5.5611,5.793,6.0481,6.3109,6.5023,6.7132,7.0567,7.2148,7.3649,7.6707,7.7602,7.778,7.7805,0.0,7.9005,7.9005,0.0,0.0,0.0,0.0,0.0,0.0,0.0,0.0,0.0,0.0,0.0,0.0,0.0,0.0,0.0,0.0,0.0,0.0,0.0,0.0,0.0,8.1291,8.1291,8.1291,8.1347,8.14,0.0,8.1478,8.1465,8.1387,8.1465,8.1504,8.1504,8.1504,8.1504,8.1504,8.1504,8.1504,8.1504,8.1577,8.16,8.16,8.1669,8.1691,8.1691,0.0,0.0,0.0,0.0,0.0,0.0,0.0,0.0,0.0,0.0,0.0,0.0,0.0,0.0,0.0,0.0,0.0,0.0,0.0,5.1099,5.1177,5.1177,5.2182,5.284,5.2995,5.3691,5.4039,5.4039,5.5443,5.5575,5.4545,5.3931,5.3053,5.2006,5.0701,5.0119,5.008,4.9369,4.8942,4.8787,4.8787,4.8658,4.8387,4.7534,4.7727,0.0,0.0,0.0,0.0,0.0,0.0,0.0,5.1957,5.279,5.395,5.6307,5.8394,6.0597,6.3825,6.5925,6.7957,7.1376,7.3856,7.5592,7.6321,7.7494,7.8475,7.8463,7.9158,7.9775,7.9775,0.0,0.0,0.0,0.0,0.0,0.0,0.0,0.0,0.0,0.0,0.0,0.0,0.0,0.0,0.0,0.0,0.0,0.0,0.0,0.0,8.1244,8.1263,8.1263,8.1244,8.1319,8.14,0.0,8.1478,8.1155,8.0498,8.1194,8.1504,8.1504,8.1504,8.1504,8.1504,8.1504,8.1504,8.1504,8.1504,8.1528,8.1528,8.16,8.1624,8.1624,0.0,0.0,0.0,0.0,0.0,0.0,0.0,0.0,0.0,0.0,0.0,0.0,0.0,0.0,0.0,0.0,0.0,0.0,0.0,0.0,5.0674,5.1486,5.195,5.2414,5.2801,5.3265,5.3498,5.3498,5.442,5.442,5.353,5.315,5.2274,5.0995,5.017,4.955,4.9162,4.8684,4.8244,4.7856,4.7843,4.7572,4.7146,4.6706,4.7326,4.8449,4.8421,0.0,0.0,0.0,0.0,0.0,0.0,0.0,5.403,5.6965,5.9051,6.1079,6.4093,6.6422,6.8781,7.2199,7.4599,7.6226,7.664,7.741,7.8142,7.8517,7.9664,8.0463,8.0039,0.0,0.0,0.0,0.0,0.0,0.0,0.0,0.0,0.0,0.0,0.0,0.0,0.0,0.0,0.0,0.0,0.0,0.0,8.1214,8.1184,8.1154,8.1184,8.1184,8.1154,8.1234,8.1319,8.1347,8.1002,8.0434,7.9647,8.0498,8.0885,8.0923,8.131,8.1504,8.1504,8.1504,8.1504,8.1465,8.1039,8.0885,8.0885,8.0933,8.0933,8.0972,0.0,0.0,0.0,0.0,0.0,0.0,0.0,0.0,0.0,0.0,0.0,0.0,0.0,0.0,0.0,0.0,0.0,0.0,0.0,0.0,0.0,5.1718,5.1912,5.2298,5.3033,5.3033,5.3033,5.3033,5.3033,5.2685,5.1989,5.2175,5.1339,4.9688,4.96,4.9071,4.8257,4.81,4.7622,4.6964,4.6897,4.6535,4.6032,4.6032,0.0,4.8624,4.8609,4.9614,5.0874,5.0902,0.0,0.0,0.0,0.0,5.4012,5.7062,5.9282,6.133,6.3874,6.6769,6.9731,7.2811,7.4735,7.6062,7.689,7.7169,7.7476,7.8169,7.9576,8.0491,0.0,0.0,0.0,0.0,0.0,0.0,0.0,0.0,0.0,0.0,0.0,0.0,0.0,0.0,0.0,0.0,0.0,0.0,8.0631,8.0631,8.0631,8.0631,8.0631,8.0631,8.0631,8.0722,8.0781,8.0828,8.0061,7.9365,7.8796,7.9608,8.0072,8.0266,8.1117,8.1504,8.1504,8.1504,8.1504,8.1426,8.0536,8.0188,8.0188,8.0188,8.0188,8.0343,0.0,0.0,0.0,0.0,0.0,0.0,0.0,0.0,0.0,0.0,0.0,0.0,0.0,0.0,0.0,0.0,0.0,0.0,4.8446,0.0,0.0,5.0016,5.0712,5.1138,5.1254,5.1254,5.1254,5.1254,5.1254,5.1177,0.0,0.0,5.1308,4.9668,4.8909,4.8097,4.7245,4.6472,4.6085,4.6007,4.5955,4.6341,4.6922,0.0,0.0,0.0,0.0,5.0085,5.088,5.0846,5.0829,0.0,0.0,0.0,5.3724,5.5635,5.7969,6.0439,6.2965,6.7085,7.1159,7.3014,7.4207,7.5091,7.5976,7.6746,7.7323,0.0,7.8237,7.8815,0.0,0.0,0.0,0.0,0.0,0.0,0.0,0.0,0.0,0.0,0.0,0.0,0.0,0.0,0.0,0.0,0.0,0.0,7.8861,7.8861,7.8861,7.8861,7.8861,7.8861,7.8861,7.8912,7.897,7.9053,7.8335,7.7983,7.7906,7.8757,7.9531,8.0266,8.1117,8.1504,8.1504,8.1504,8.1504,8.1426,8.0536,8.0188,8.0188,8.0188,8.0188,8.0343,0.0,0.0,0.0,0.0,0.0,0.0,0.0,0.0,0.0,0.0,0.0,0.0,0.0,0.0,0.0,4.6737,4.6771,4.7036,4.7526,4.843,4.891,4.891,4.9682,4.9914,4.9451,4.9876,4.9914,4.9451,4.993,0.0,0.0,5.1045,5.0596,0.0,0.0,4.7657,4.6341,4.5955,4.58,4.5838,4.6341,4.6752,4.7163,0.0,0.0,0.0,0.0,0.0,0.0,0.0,5.0738,5.0892,5.1703,0.0,0.0,0.0,5.6616,5.9083,6.3068,6.6781,6.9925,7.1629,7.3399,7.4822,7.5168,7.5938,7.6553,7.6553,7.6861,0.0,0.0,0.0,0.0,0.0,0.0,0.0,0.0,0.0,0.0,0.0,0.0,0.0,0.0,0.0,0.0,0.0,0.0,7.8477,7.8477,7.8477,7.8477,7.8477,7.8477,7.8477,7.8477,7.8507,7.8363,7.8012,7.7769,7.7418,7.7016,7.837,7.9183,7.9608,8.0923,8.1504,8.1504,8.1504,8.1504,8.1426,8.0536,8.0188,8.0188,8.0188,8.0188,8.0343,0.0,0.0,0.0,0.0,0.0,0.0,0.0,0.0,0.0,0.0,0.0,0.0,0.0,0.0,0.0,0.0,4.512,4.5401,4.6282,4.7147,4.7725,4.7957,4.8767,4.8921,4.8304,4.8883,4.8883,4.8304,0.0,0.0,4.9589,5.024,4.9869,0.0,4.8493,4.754,0.0,0.0,0.0,0.0,0.0,0.0,0.0,0.0,0.0,0.0,0.0,0.0,0.0,0.0,0.0,0.0,0.0,0.0,0.0,0.0,0.0,5.8017,6.2435,6.5474,6.7936,7.0052,7.2168,7.3899,7.4553,7.5207,7.5745,0.0,7.6015,0.0,0.0,0.0,0.0,0.0,0.0,0.0,0.0,0.0,0.0,0.0,0.0,0.0,0.0,0.0,0.0,0.0,0.0,7.7861,7.7861,7.7861,7.7861,7.7861,7.7861,7.7861,7.7861,7.7891,7.7641,7.7136,7.7216,7.6944,7.6413,7.7983,7.8796,7.9105,8.0769,8.1504,8.1504,8.1504,8.1504,8.1426,8.0536,8.0188,8.0188,8.0188,8.0188,8.0343,0.0,0.0,0.0,0.0,0.0,0.0,0.0,0.0,0.0,0.0,0.0,0.0,0.0,4.4893,4.4355,4.4355,4.3662,4.3602,4.446,4.5356,4.6182,4.7031,4.788,0.0,4.8304,4.8343,4.8343,4.8304,0.0,0.0,4.9517,4.9556,4.9539,4.9423,4.8709,4.7889,4.7038,0.0,0.0,0.0,0.0,0.0,0.0,0.0,0.0,0.0,0.0,0.0,0.0,0.0,0.0,0.0,0.0,0.0,0.0,0.0,0.0,0.0,6.0281,6.2858,6.559,6.8936,7.0437,7.1745,7.4168,7.4745,7.5014,7.5822,7.6015,0.0,0.0,0.0,0.0,0.0,0.0,0.0,0.0,0.0,0.0,0.0,0.0,0.0,0.0,0.0,0.0,0.0,0.0,7.613,7.613,7.613,7.613,7.613,7.613,7.613,7.613,7.6216,7.6206,7.6167,7.6328,7.6339,7.6339,7.7341,7.8216,7.9105,8.0769,8.1504,8.1504,8.1504,8.1504,8.1426,8.0536,8.0188,8.0188,8.0188,8.0188,8.0343,0.0,0.0,0.0,0.0,0.0,0.0,0.0,0.0,0.0,0.0,0.0,0.0,0.0,4.4816,4.4316,4.4316,4.3547,4.3239,4.3541,4.4366,4.4944,4.5252,4.6639,4.7139,4.6562,4.7101,4.7139,0.0,0.0,4.7538,4.7846,4.8458,4.8728,4.8728,4.8993,4.8662,4.789,4.7857,0.0,0.0,0.0,0.0,0.0,0.0,0.0,0.0,0.0,0.0,0.0,0.0,0.0,0.0,0.0,0.0,0.0,0.0,5.3549,5.5818,5.7774,6.058,6.3476,6.5717,6.7725,6.9711,7.1737,7.265,7.3457,7.4899,7.5168,0.0,0.0,0.0,0.0,0.0,0.0,0.0,0.0,0.0,0.0,0.0,0.0,0.0,0.0,0.0,0.0,0.0,0.0,0.0,7.6015,7.6015,7.6015,7.6015,7.6015,7.6015,7.6015,7.6005,7.6034,7.609,7.6198,7.625,7.6339,7.7263,7.7867,7.8216,7.9376,8.0498,8.1504,8.1504,8.1504,8.1465,8.1155,8.1039,8.1039,8.1039,8.1039,8.1078,0.0,0.0,0.0,0.0,0.0,0.0,0.0,0.0,0.0,0.0,0.0,0.0,0.0,0.0,4.4085,4.3508,4.2701,4.2354,4.2624,4.3431,4.4008,4.4278,4.5701,4.6201,4.5586,4.6163,4.6163,4.5586,4.6159,4.66,4.6908,4.7559,4.7962,4.827,4.8792,4.8771,0.0,0.0,0.0,4.9234,0.0,0.0,5.3397,0.0,0.0,0.0,0.0,0.0,0.0,0.0,0.0,0.0,0.0,0.0,0.0,0.0,0.0,5.387,5.5209,5.7858,6.0712,6.2643,6.506,6.7438,6.9491,7.0796,7.2101,7.385,7.4427,0.0,0.0,0.0,0.0,0.0,0.0,0.0,0.0,0.0,0.0,0.0,0.0,0.0,0.0,0.0,0.0,0.0,0.0,0.0,7.6015,7.6015,7.6015,7.6015,7.6015,7.6015,7.6015,7.6015,7.6005,7.6062,7.6118,7.6198,7.6314,7.6968,7.7379,7.7713,7.8293,7.9531,8.1078,8.1078,8.1233,8.1504,8.1504,8.1504,8.1504,8.1504,8.1504,8.1504,0.0,0.0,0.0,0.0,0.0,0.0,0.0,0.0,0.0,4.4327,0.0,0.0,0.0,0.0,0.0,4.1915,4.1008,4.0893,4.1684,4.2585,4.3431,4.4239,4.5086,4.5547,4.5586,4.5586,4.5586,4.5586,4.5547,4.597,4.6817,4.6817,4.724,4.8009,4.8009,4.8102,4.8265,0.0,4.9199,5.0855,0.0,5.4241,5.5818,0.0,0.0,0.0,5.827,5.7709,0.0,0.0,0.0,0.0,0.0,0.0,0.0,0.0,0.0,0.0,0.0,0.0,0.0,5.9856,6.2387,6.4945,6.7487,6.9366,7.1053,7.2778,7.3814,0.0,0.0,0.0,0.0,0.0,0.0,0.0,0.0,0.0,0.0,0.0,0.0,0.0,0.0,0.0,0.0,0.0,0.0,7.5938,7.5938,7.5938,7.5938,7.5938,7.5938,7.5938,7.5938,7.5938,7.5938,7.5938,7.6024,7.6079,7.616,7.6276,7.6814,7.7674,7.7674,7.8602,8.015,8.0188,8.0691,8.1465,8.1504,8.1504,8.1504,8.1504,8.1504,8.1504,0.0,0.0,0.0,0.0,0.0,0.0,4.4327,4.4863,4.5323,0.0,0.0,0.0,0.0,0.0,4.3558,4.1869,4.1524,4.1178,4.0795,4.1596,4.2458,4.3321,4.4184,4.4932,4.5586,4.5586,4.5586,4.5586,4.497,4.4761,4.5033,4.5033,4.5091,4.5285,4.5899,4.6532,4.7223,4.8509,0.0,0.0,5.3161,5.5061,0.0,0.0,0.0,0.0,0.0,6.116,0.0,0.0,5.7824,5.56,0.0,0.0,0.0,0.0,0.0,0.0,5.2027,0.0,0.0,0.0,0.0,0.0,6.4795,6.6203,6.7774,7.0784,7.159,7.2165,0.0,0.0,0.0,0.0,0.0,0.0,0.0,0.0,0.0,0.0,0.0,0.0,0.0,0.0,0.0,0.0,7.4043,7.411,7.4207,7.4207,7.4207,7.4207,7.4207,7.4207,7.4207,7.4207,7.4207,7.4207,7.4868,7.5166,7.5193,7.598,7.6417,7.6673,7.6722,7.7365,7.8486,7.9685,8.0343,8.0614,8.1271,8.1504,8.1504,8.1504,8.1504,8.1504,0.0,0.0,0.0,0.0,0.0,4.6258,4.5781,4.6087,4.6393,0.0,0.0,0.0,0.0,0.0,0.0,4.2333,4.1872,4.1336,4.0454,4.12,4.1925,4.2462,4.3593,4.4495,4.4994,4.534,4.534,4.5033,4.4533,4.4054,4.3729,4.3729,4.3903,4.4211,0.0,0.0,0.0,0.0,0.0,0.0,5.3481,0.0,0.0,5.9869,6.1261,0.0,0.0,0.0,6.2087,6.0928,5.863,0.0,0.0,0.0,0.0,0.0,0.0,0.0,0.0,0.0,0.0,0.0,0.0,0.0,6.207,6.359,6.5312,0.0,6.9314,7.0011,0.0,0.0,0.0,0.0,0.0,0.0,0.0,0.0,0.0,0.0,0.0,0.0,0.0,0.0,0.0,7.3261,7.3261,7.3292,7.3418,7.3447,7.3514,7.3514,7.3514,7.3514,7.3514,7.3514,7.3514,7.3514,7.4032,7.4445,7.4819,7.5401,7.5903,7.6301,7.635,7.6645,7.7287,7.8989,7.9918,8.0304,8.1155,8.1504,8.1504,8.1504,8.1504,8.1504,0.0,0.0,4.8869,4.8067,4.7876,4.7799,4.7799,4.7799,4.7837,0.0,4.7996,0.0,0.0,0.0,0.0,0.0,4.2276,4.1433,4.059,4.1165,4.1604,4.1681,4.3138,4.402,4.4211,4.4825,4.4825,4.4211,4.402,4.3521,4.2754,4.2754,4.3215,4.4039,0.0,0.0,0.0,0.0,0.0,5.1957,5.3698,5.6304,0.0,0.0,6.1677,0.0,6.315,6.3197,6.293,6.1134,5.8307,0.0,0.0,0.0,0.0,0.0,5.0588,0.0,0.0,0.0,0.0,0.0,0.0,0.0,5.9568,6.1325,6.3197,0.0,6.6865,6.7859,6.954,0.0,0.0,0.0,0.0,0.0,0.0,0.0,0.0,0.0,0.0,0.0,7.4107,7.3367,7.2901,7.2932,7.2932,7.2924,7.3014,7.3149,7.3178,7.3206,7.3206,7.3206,7.3206,7.3206,7.3206,7.3206,7.3322,7.3812,7.4665,7.478,7.5362,7.6276,7.6301,7.6326,7.6514,7.8293,7.9415,8.015,8.1117,8.1504,8.1504,8.1504,8.1504,8.1504,0.0,4.9519,4.906,4.8869,4.8258,4.7799,4.7799,4.7799,4.8067,4.8754,4.8853,0.0,0.0,0.0,0.0,0.0,4.3043,4.2221,4.1342,4.0843,4.0899,4.1589,4.197,4.2831,4.4173,4.3675,4.3636,4.4211,4.2831,4.2085,4.1857,4.1857,4.2279,4.3101,4.3731,0.0,0.0,0.0,0.0,5.1859,5.424,0.0,5.8566,6.1353,6.2653,6.3112,6.442,6.4917,6.4535,0.0,5.9147,5.6205,0.0,0.0,0.0,0.0,0.0,0.0,0.0,0.0,0.0,0.0,0.0,0.0,5.8116,5.9147,6.0561,0.0,6.377,6.4382,6.6063,6.6522,0.0,0.0,0.0,0.0,0.0,0.0,0.0,0.0,0.0,0.0,7.221,7.1445,7.0981,7.1083,7.1176,7.1198,7.1286,7.1314,7.1343,7.1398,7.1398,7.1398,7.1398,7.1398,7.1398,7.1437,7.2129,7.2899,7.3773,7.4483,7.5308,7.6145,7.625,7.6301,7.6441,7.8269,7.9105,7.9376,8.0923,8.1504,8.1504,8.1504,8.1504,8.1504,5.0283,4.9977,4.971,4.971,4.9328,4.906,4.906,4.906,4.9213,4.9633,4.9328,0.0,0.0,0.0,0.0,0.0,4.3252,4.2412,4.1571,4.0749,4.05,4.0921,4.136,4.1991,4.2833,4.2833,4.2833,4.2833,4.1991,4.136,4.0959,4.1342,4.2011,4.2832,4.4093,4.5354,0.0,0.0,4.9671,5.1811,5.4358,0.0,5.8896,6.1784,6.3159,6.3694,6.4955,6.5146,6.4535,6.2815,6.0561,0.0,0.0,5.5135,5.3913,0.0,5.2805,5.2805,0.0,0.0,0.0,5.3989,0.0,0.0,0.0,5.6625,5.7351,5.9873,6.0408,6.0905,6.2527,6.3176,6.3833,0.0,0.0,0.0,0.0,0.0,0.0,0.0,0.0,0.0,7.168,7.0916,7.0228,6.9948,6.9965,7.0026,7.0115,7.0527,7.0815,7.0898,7.0898,7.0898,7.0898,7.0898,7.0898,7.0898,7.1321,7.2245,7.3514,7.3927,7.4868,7.609,7.6172,7.625,7.6455,7.8219,7.8965,7.9183,8.0846,8.1504,8.1504,8.1504,8.1504,8.1504,5.0236,0.0,5.0298,5.0259,5.0259,5.0259,5.0259,5.0259,5.0298,5.0236,4.9725,0.0,0.0,0.0,0.0,0.0,0.0,4.2908,0.0,0.0,4.054,4.054,4.0998,4.1342,4.1495,4.203,4.2068,4.1495,4.1342,4.0922,4.031,4.1113,4.1953,4.287,4.4551,4.5851,0.0,0.0,0.0,5.204,0.0,5.6931,5.9147,6.1669,6.3197,6.4076,6.5031,6.4879,6.4008,6.3168,0.0,5.996,5.7745,5.6458,0.0,0.0,0.0,0.0,0.0,0.0,0.0,0.0,0.0,5.3353,0.0,0.0,0.0,5.6675,5.7134,0.0,5.9035,0.0,0.0,0.0,0.0,0.0,0.0,0.0,0.0,0.0,0.0,0.0,0.0,7.0342,6.9655,6.9005,6.8992,6.913,6.9374,7.0115,7.0661,7.0871,7.0898,7.0898,7.0898,7.0898,7.0898,7.0898,7.0898,7.1822,7.3514,7.3514,7.4427,7.6062,7.609,7.6172,7.643,7.813,7.8915,7.9158,8.0846,8.1504,8.1504,8.1504,8.1504,8.1504,5.0114,5.0114,5.0139,5.0188,5.0212,5.0212,5.0212,5.0212,5.0188,5.0114,5.0038,0.0,0.0,0.0,0.0,0.0,0.0,0.0,4.3787,0.0,4.1342,4.1342,4.0769,4.0769,4.1495,4.0883,4.0883,4.1495,4.0807,4.0387,4.031,4.1113,4.1953,4.287,4.4551,0.0,0.0,0.0,5.1123,0.0,5.5441,5.7084,0.0,6.079,6.228,6.3236,6.484,6.478,6.3879,0.0,6.1637,5.9977,0.0,5.8072,0.0,0.0,0.0,0.0,0.0,0.0,0.0,0.0,5.3846,0.0,0.0,0.0,5.3046,5.415,0.0,0.0,0.0,0.0,0.0,0.0,0.0,0.0,0.0,0.0,0.0,0.0,0.0,0.0,0.0,6.8241,6.8126,6.805,6.805,6.8418,6.9245,6.9451,6.9961,7.0748,7.0871,7.0898,7.0898,7.0898,7.0898,7.0898,7.0898,7.1822,7.3514,7.3514,7.4437,7.6005,7.6062,7.6118,7.6272,7.7985,7.8798,7.9108,8.0821,8.1504,8.1504,8.1504,8.1504,8.1504,5.0063,5.0089,0.0,5.0114,5.0139,5.0139,5.0139,5.0139,5.0114,5.0089,5.0089,0.0,0.0,0.0,0.0,0.0,0.0,0.0,0.0,0.0,0.0,4.1434,4.1053,4.0824,4.0672,4.0367,4.0367,4.0672,4.0367,4.0405,4.0901,4.1739,4.2845,4.4217,4.6473,0.0,4.932,0.0,5.2728,0.0,0.0,0.0,0.0,6.1344,6.3108,6.4305,6.5061,6.5029,6.4502,0.0,6.2185,0.0,0.0,0.0,0.0,0.0,0.0,0.0,0.0,0.0,0.0,0.0,0.0,0.0,0.0,0.0,5.1383,0.0,0.0,0.0,0.0,0.0,0.0,0.0,5.5616,0.0,0.0,0.0,0.0,0.0,0.0,0.0,0.0,0.0,0.0,0.0,0.0,6.6858,6.7791,6.8816,6.9528,6.9961,7.0527,7.0787,7.0843,7.0843,7.0871,7.0898,7.0898,7.1822,7.3514,7.3514,7.4399,7.6015,7.6005,7.6062,7.6206,7.7428,7.8255,7.8914,8.0138,8.1002,8.1504,8.1504,8.1504,8.1504,0.0,0.0,0.0,0.0,5.0063,5.0063,5.0063,5.0038,5.0152,5.0354,0.0,0.0,4.9911,4.9911,0.0,0.0,0.0,4.6982,0.0,0.0,4.3596,0.0,0.0,0.0,0.0,4.0781,4.0781,4.0781,4.0781,4.1085,4.1656,4.2514,4.3694,4.5194,4.7815,4.9401,5.0316,0.0,5.4167,5.5363,5.5957,5.772,6.0159,6.2056,6.3778,6.5199,6.5199,6.5199,6.49,6.3454,6.2737,0.0,6.0152,0.0,0.0,0.0,0.0,0.0,5.692,0.0,0.0,0.0,0.0,0.0,0.0,0.0,0.0,0.0,0.0,0.0,0.0,0.0,0.0,0.0,0.0,5.3168,0.0,0.0,0.0,0.0,0.0,0.0,0.0,0.0,0.0,0.0,0.0,0.0,6.6383,6.8059,6.9084,6.9374,7.0248,7.0699,7.0758,7.0787,7.0815,7.0871,7.0898,7.1822,7.3514,7.3514,7.4399,7.6015,7.6015,7.6044,7.6139,7.7025,7.7775,7.8447,7.9296,8.0073,8.0834,8.1298,8.1478,8.1504,4.9906,4.9906,0.0,0.0,0.0,4.9986,4.9986,4.9933,5.0182,0.0,0.0,0.0,0.0,0.0,0.0,0.0,0.0,4.9632,4.8833,0.0,4.5042,0.0,0.0,0.0,0.0,0.0,4.2531,4.2531,4.2531,4.2531,4.2569,4.339,4.4227,4.5194,4.7767,4.9365,5.0317,5.3628,5.5075,5.5341,5.7777,6.0258,6.2368,0.0,6.3676,6.5199,6.5199,0.0,0.0,6.404,6.3137,0.0,0.0,0.0,0.0,0.0,0.0,0.0,0.0,0.0,0.0,0.0,0.0,0.0,0.0,0.0,4.9906,0.0,0.0,0.0,0.0,0.0,0.0,0.0,0.0,0.0,0.0,0.0,0.0,0.0,0.0,0.0,0.0,0.0,0.0,0.0,0.0,0.0,6.5413,6.7148,6.848,6.9284,7.0218,7.0708,7.0669,7.0758,7.0787,7.0787,7.0871,7.1822,7.3514,7.3514,7.4399,7.6015,7.6015,7.6015,7.6053,7.6938,7.7343,7.7516,7.8325,7.8728,7.9081,8.0794,8.1453,8.1504,0.0,0.0,0.0,0.0,0.0,4.9933,4.9933,5.0399,5.0865,0.0,0.0,0.0,0.0,0.0,5.2333,0.0,0.0,5.106,4.9656,4.8783,0.0,0.0,0.0,4.4431,0.0,0.0,0.0,0.0,0.0,4.2762,4.3331,4.362,4.4796,4.6733,4.8758,5.0392,0.0,0.0,0.0,0.0,0.0,6.0431,6.1657,0.0,0.0,6.4993,6.4993,6.4958,0.0,6.3938,6.3103,6.2273,6.1363,6.053,5.9847,5.9544,5.9468,0.0,0.0,0.0,5.7384,5.5375,0.0,0.0,0.0,0.0,0.0,0.0,0.0,0.0,0.0,0.0,0.0,0.0,0.0,0.0,0.0,0.0,0.0,0.0,0.0,0.0,0.0,0.0,0.0,0.0,6.2013,0.0,0.0,6.6743,6.8112,6.8349,6.9757,7.0547,7.0616,7.0647,7.0708,7.0787,7.0815,7.1766,7.3514,7.3514,7.4399,7.6015,7.6015,7.6015,7.6015,7.6322,7.6813,7.7381,7.7651,7.8103,7.8805,8.0018,8.0497,8.0601,5.2332,0.0,0.0,0.0,0.0,0.0,5.0751,5.1254,0.0,0.0,5.2672,0.0,5.3648,0.0,5.4057,0.0,5.348,5.2722,5.1319,5.0675,0.0,4.806,4.7416,0.0,0.0,0.0,0.0,0.0,0.0,4.4042,4.4573,4.427,4.5293,4.7453,4.8908,5.0643,5.2655,5.5256,5.6776,0.0,0.0,6.0443,0.0,0.0,6.2838,6.4017,0.0,6.4017,6.3941,6.3372,6.2614,6.1856,6.1288,6.053,5.9885,5.9885,5.9885,5.9772,5.9279,5.89,0.0,0.0,5.5564,0.0,5.3556,0.0,0.0,0.0,0.0,0.0,0.0,0.0,0.0,0.0,0.0,0.0,0.0,4.8188,0.0,0.0,0.0,0.0,0.0,0.0,5.77,5.9769,6.0685,0.0,0.0,0.0,6.7591,6.7897,6.954,7.0451,7.0522,7.0554,7.0647,7.0758,7.1094,7.2045,7.3514,7.3822,7.4707,7.6015,7.6015,7.6015,7.6015,7.6015,7.6322,7.6823,7.6823,7.7352,7.8296,7.9538,8.0183,8.0558,0.0,0.0,0.0,0.0,5.1329,0.0,0.0,0.0,5.2681,0.0,5.4252,5.505,5.5939,5.6803,5.7024,5.6292,5.5489,0.0,5.3897,5.2305,0.0,0.0,4.9765,4.8856,4.8818,0.0,0.0,0.0,0.0,4.6241,4.6165,4.5331,4.5824,4.7453,4.8287,5.0069,5.257,5.511,5.6702,5.7649,5.9241,6.034,6.1022,6.1022,0.0,6.2311,6.2387,6.2425,6.2425,6.2425,6.1818,6.1098,6.1098,6.053,5.9885,5.9885,5.9885,5.9885,5.9885,5.9317,5.8748,5.871,0.0,0.0,0.0,0.0,5.2541,0.0,0.0,0.0,0.0,0.0,0.0,0.0,0.0,0.0,0.0,0.0,0.0,0.0,0.0,0.0,0.0,5.4998,5.6092,5.8616,5.9712,6.1,0.0,0.0,6.7018,6.7859,6.9502,7.0381,7.0419,7.0522,7.0616,7.0708,7.1641,7.2582,7.3514,7.4322,7.5168,7.6015,7.6015,7.6015,7.6015,7.6015,7.6015,7.6015,7.6015,7.6553,7.7553,7.9259,8.0473,8.1263,5.581,5.539,5.4899,0.0,5.3187,5.2016,0.0,0.0,0.0,0.0,5.5578,5.6559,5.6786,5.7012,5.7083,5.6857,5.6765,0.0,0.0,0.0,0.0,5.3101,5.204,5.1168,5.0561,4.969,0.0,4.8363,0.0,0.0,4.6203,4.5975,4.6392,4.7453,4.8287,5.0069,5.257,5.511,5.7384,5.9279,5.9734,5.9999,0.0,0.0,6.034,6.0681,6.197,6.2425,6.2425,6.2425,6.1818,6.1098,6.1069,6.0467,5.9824,5.9719,5.9685,5.9685,5.9685,5.9534,5.9231,5.8627,5.7985,5.7192,0.0,0.0,0.0,0.0,0.0,0.0,0.0,0.0,0.0,0.0,0.0,0.0,0.0,0.0,0.0,4.7643,0.0,0.0,5.2102,5.3394,5.4704,5.6137,5.8186,0.0,0.0,0.0,0.0,6.7859,6.8967,6.9807,7.0381,7.0419,7.0522,7.0654,7.159,7.2494,7.3389,7.4293,7.5168,7.6015,7.6015,7.6015,7.6015,7.6015,7.6015,7.6015,7.6015,7.6899,7.8323,7.943,8.0392,8.1154,5.699,0.0,0.0,5.6801,0.0,0.0,5.4377,0.0,0.0,5.5664,5.676,0.0,5.7586,5.7925,5.8,5.7695,5.7725,0.0,0.0,0.0,0.0,5.5215,5.4004,5.3135,5.2719,5.1187,0.0,4.9711,0.0,0.0,4.6695,4.5975,4.6241,4.7416,4.7908,4.9728,5.2608,5.5489,5.7763,5.9393,5.9734,0.0,0.0,5.9885,5.9853,5.9971,6.0918,6.1258,6.1258,6.1224,6.0849,6.0433,6.0399,6.0062,5.9723,5.9616,5.9616,5.9616,5.9616,5.9616,5.9502,5.905,5.837,5.7578,5.6635,5.588,5.5239,0.0,0.0,0.0,0.0,0.0,0.0,0.0,0.0,0.0,0.0,0.0,0.0,0.0,4.8174,0.0,5.054,5.1868,5.3366,5.5037,5.6501,0.0,0.0,0.0,0.0,6.7324,6.8547,6.9578,7.0381,7.0419,7.0451,7.0623,7.1911,7.2778,7.336,7.4619,7.5524,7.6015,7.6015,7.6015,7.6015,7.6015,7.6015,7.6053,7.6823,7.79,7.9169,8.0054,8.0669,8.1093,0.0,0.0,0.0,0.0,0.0,0.0,0.0,5.7589,0.0,5.7328,0.0,5.8425,5.8347,5.9022,5.921,5.8565,0.0,5.8223,5.7469,5.7318,5.7243,5.7243,5.5772,5.4867,5.4754,5.2507,0.0,0.0,0.0,0.0,4.7352,4.5799,4.5874,4.7352,4.7352,4.9284,5.2731,5.5989,5.7845,5.8716,5.955,5.9853,5.9853,5.9853,5.982,5.9757,5.9757,5.9757,5.9757,5.965,5.9616,5.9616,5.9581,5.9581,5.9581,5.9581,5.9581,5.9581,5.9581,5.9581,5.9543,5.943,5.8298,5.7167,5.6941,5.581,5.4792,5.4678,5.3962,0.0,0.0,0.0,0.0,0.0,0.0,0.0,0.0,0.0,0.0,0.0,0.0,0.0,0.0,5.0675,5.2182,0.0,0.0,0.0,0.0,0.0,0.0,6.6636,6.8203,0.0,7.0381,0.0,7.0451,7.0592,7.2269,7.3169,7.333,7.5058,7.5925,7.5985,7.5985,7.6015,7.6015,7.6015,7.6053,7.6322,7.8015,7.9131,7.99,8.0785,8.1093,8.1093,0.0,0.0,0.0,0.0,0.0,6.1093,6.098,6.0417,5.974,5.8989,5.9628,0.0,5.9177,5.9252,5.929,5.9139,5.9212,0.0,0.0,0.0,0.0,5.8182,5.7205,5.6338,5.5692,5.388,5.2666,0.0,0.0,0.0,4.7219,4.6275,4.6312,4.7257,4.7257,4.9485,5.3383,5.6026,0.0,5.8514,5.9311,5.965,5.965,5.965,5.965,5.9616,5.9583,5.9618,5.9616,5.9616,5.9616,5.9581,5.951,5.9547,5.9474,5.9401,5.9327,5.9327,5.9327,5.9327,5.9177,5.8538,5.8125,5.7561,5.6171,5.5645,5.5232,5.4593,5.38,5.2973,5.2171,0.0,0.0,0.0,0.0,0.0,0.0,0.0,0.0,0.0,0.0,0.0,0.0,0.0,0.0,0.0,0.0,0.0,0.0,0.0,0.0,0.0,6.763,0.0,0.0,0.0,7.0419,7.049,7.2237,7.3105,7.3214,7.4926,7.5794,7.5925,7.5925,7.5955,7.6015,7.6015,7.6438,7.7246,7.8938,7.9669,7.99,8.0785,8.1093,8.1093,0.0,0.0,0.0,0.0,0.0,0.0,0.0,6.3643,0.0,6.083,6.0942,6.1055,6.0642,6.0604,6.0604,6.0604,6.0642,6.0529,6.0116,5.9739,5.9361,5.8909,5.8046,0.0,5.6463,5.4802,5.3365,5.2121,0.0,0.0,4.7806,4.7013,4.7051,4.7881,4.9202,5.1126,5.3541,0.0,0.0,5.8484,5.9276,5.9616,5.9616,5.9616,5.9581,5.9545,5.9512,5.9474,5.9436,5.9436,5.9436,5.9474,5.9401,5.9401,5.9401,5.929,5.929,5.9215,5.8802,5.8689,5.8502,5.7676,5.715,5.6587,5.5798,5.5272,5.4859,5.4484,5.4071,5.3466,5.2215,5.0365,0.0,0.0,0.0,0.0,0.0,0.0,0.0,0.0,0.0,0.0,0.0,0.0,0.0,0.0,0.0,0.0,0.0,0.0,0.0,0.0,0.0,0.0,0.0,0.0,0.0,7.0419,7.2172,7.3079,7.315,7.4867,7.5699,7.5794,7.5864,7.5925,7.5994,7.6447,7.7169,7.8054,7.9323,8.0092,8.0516,8.0939,8.1093,8.1093,0.0,6.47,0.0,0.0,6.5651,0.0,6.6566,6.5961,6.4608,6.2555,6.2142,6.1955,6.1767,6.1767,6.1767,6.1806,6.1806,6.1543,6.0905,6.068,6.0304,5.9591,5.8802,5.7901,5.6925,5.5491,5.3833,0.0,0.0,0.0,0.0,4.7523,4.7674,4.8767,0.0,0.0,0.0,0.0,5.7699,5.8415,5.9206,5.9545,5.9545,5.9545,5.951,5.9438,5.9438,5.9401,5.929,5.929,5.929,5.929,5.929,5.929,5.929,5.929,5.9178,5.8915,5.8276,5.7976,5.7638,5.6849,5.6136,5.5573,5.5385,5.4859,5.4409,5.4409,5.4259,5.3766,5.2484,5.1086,0.0,0.0,0.0,0.0,0.0,0.0,0.0,0.0,0.0,0.0,0.0,0.0,0.0,0.0,0.0,0.0,0.0,0.0,0.0,0.0,0.0,6.8095,6.9164,0.0,7.0419,0.0,7.2176,7.3012,7.315,7.4801,7.5633,7.566,7.5763,7.5864,7.5972,7.71,7.7938,7.8592,7.9669,8.0516,8.1093,8.1093,8.1093,8.1093,0.0,0.0,0.0,0.0,0.0,0.0,0.0,6.5752,6.4892,6.4009,6.314,6.2351,6.1686,6.1612,6.1651,6.1806,6.1806,6.1768,6.1693,6.1017,6.0567,6.0492,5.9666,5.8464,5.6925,5.5986,5.4334,0.0,0.0,0.0,0.0,0.0,0.0,0.0,0.0,0.0,0.0,5.696,5.8051,5.8164,5.9027,5.9327,5.9327,5.9327,5.9327,5.929,5.929,5.929,5.929,5.929,5.929,5.929,5.929,5.929,5.929,5.929,5.8802,5.8201,5.8126,5.7563,5.6812,5.5948,5.5685,5.5423,5.4672,5.4446,5.4409,5.4409,5.3808,5.3245,5.3128,5.2306,5.17,0.0,0.0,0.0,0.0,0.0,0.0,0.0,0.0,0.0,0.0,0.0,0.0,0.0,0.0,0.0,0.0,0.0,0.0,6.3823,0.0,6.7496,6.9065,6.9966,0.0,7.0419,7.2176,7.2979,7.3055,7.4771,7.557,7.5599,7.5633,7.5737,7.601,7.7716,7.8438,7.8669,8.0323,8.1016,8.1093,8.1093,8.1093,8.1093,0.0,0.0,0.0,0.0,0.0,0.0,0.0,6.7494,6.6292,6.5478,6.4209,6.3318,6.3023,6.2986,6.3027,6.315,6.3191,6.3003,6.2595,6.1806,6.1093,6.0642,5.9778,5.8764,5.7638,5.6812,5.5385,0.0,0.0,0.0,0.0,0.0,0.0,0.0,0.0,5.5423,5.5986,5.7488,5.8389,5.884,5.9178,5.929,5.929,5.929,5.929,5.929,5.929,5.929,5.9215,5.8727,5.8915,5.929,5.929,5.899,5.8577,5.8577,5.8014,5.7263,5.6737,5.6361,5.5911,5.5085,5.4897,5.4822,5.4484,5.4409,5.4409,5.4409,5.4146,5.3921,5.3921,5.3245,5.2832,0.0,0.0,0.0,0.0,0.0,0.0,0.0,0.0,0.0,0.0,0.0,0.0,0.0,0.0,0.0,0.0,0.0,0.0,6.3003,0.0,6.7588,6.8274,6.9637,7.0319,7.0358,7.2143,7.2979,7.3055,7.4736,7.557,7.5599,7.5666,7.5731,7.6048,7.7793,7.8485,7.8577,8.0338,8.0959,8.0893,8.0893,8.0893,8.0932,7.118,0.0,7.1342,0.0,7.0549,6.9878,6.9975,6.8548,6.7161,6.6304,6.5009,6.4128,6.3867,6.3873,6.3915,6.4,6.4042,6.3859,6.3456,6.2593,6.1767,6.098,6.0154,0.0,5.8126,5.7525,5.6436,5.4747,5.4183,0.0,0.0,0.0,0.0,0.0,5.6136,5.6925,5.73,5.8126,5.8802,5.929,5.929,5.929,5.929,5.929,5.929,5.929,5.929,5.914,5.8877,5.8314,5.8314,5.8577,5.8577,5.8201,5.7751,5.7751,5.715,5.6399,5.5798,5.546,5.5122,5.4559,5.4409,5.4409,5.4409,5.4409,5.4409,5.4409,5.4409,5.4409,5.4409,5.3921,5.3733,0.0,0.0,0.0,0.0,0.0,0.0,0.0,5.0907,5.0099,5.009,0.0,0.0,0.0,0.0,0.0,0.0,0.0,0.0,0.0,0.0,0.0,0.0,6.9531,7.0289,7.0324,7.2109,7.2945,7.3055,7.4736,7.5535,7.5566,7.5666,7.5731,7.5948,7.7731,7.8423,7.8551,8.0241,8.086,8.0792,8.0792,8.0792,8.0792,7.2146,7.2146,7.2146,7.2184,7.0809,6.9694,6.9694,6.8357,6.702,6.6202,6.5348,6.4539,6.3891,6.378,6.3823,6.3873,6.3915,6.3958,6.4083,6.3334,6.2551,0.0,0.0,5.9816,5.8164,5.8089,5.7263,5.561,0.0,0.0,5.4409,0.0,5.6399,5.5685,5.8164,5.884,5.8164,5.8952,5.929,5.929,5.929,5.929,5.929,5.929,5.929,5.929,5.929,5.8802,5.8126,5.8126,5.76,5.6925,5.6925,5.6925,5.6887,5.6887,5.6286,5.561,5.561,5.5047,5.4409,5.4409,5.4409,5.4409,5.4409,5.4409,5.4409,5.4409,5.4409,5.4409,5.4409,5.4409,5.4409,5.4409,0.0,0.0,0.0,0.0,0.0,0.0,5.133,5.09,5.09,0.0,0.0,0.0,0.0,0.0,0.0,0.0,0.0,6.3524,6.5373,0.0,6.8749,6.9731,7.022,7.0324,7.2002,7.2872,7.3055,7.4736,7.5501,7.5501,7.5566,7.5599,7.5714,7.7577,7.83,7.8453,8.014,8.0792,8.0792,8.0792,8.0792,8.0792,7.3001,7.3001,7.2852,7.2295,7.1255,7.0363,6.9806,6.8803,6.7837,6.702,6.6685,6.6202,6.5431,6.4353,6.3691,0.0,6.3823,6.3867,0.0,6.321,6.2691,6.2551,6.1201,6.0265,5.9816,5.8689,5.7863,5.73,0.0,0.0,0.0,5.8877,5.9591,5.9853,6.0079,6.0041,5.9778,5.944,5.929,5.929,5.929,5.929,5.929,5.929,5.929,5.9215,5.8689,5.8314,5.7938,5.6774,5.6249,5.5876,5.5315,5.554,5.6023,5.6023,5.5423,5.4784,5.4784,5.4597,5.4409,5.4409,5.4409,5.4409,5.4409,5.4409,5.4409,5.4409,5.4409,5.4409,5.4409,5.4409,5.4409,5.4409,0.0,0.0,0.0,0.0,0.0,0.0,0.0,5.1839,0.0,5.3289,0.0,0.0,0.0,0.0,0.0,0.0,0.0,0.0,6.6706,0.0,6.864,6.9585,7.0416,7.1058,7.2233,7.3483,7.4698,7.5233,7.5501,7.5501,7.5566,7.5599,7.5753,7.7538,7.8267,7.8314,7.9999,8.0614,8.0616,8.0616,8.0616,8.0616,7.2807,7.2733,7.251,7.1695,7.0893,7.0189,6.9669,6.8977,6.8208,6.7428,6.7317,6.6982,6.6202,6.5162,0.0,6.4659,6.4659,6.4599,6.4314,6.383,6.3355,6.284,6.1793,6.116,6.0939,0.0,0.0,5.8915,5.8428,5.8915,6.0266,6.113,6.1468,6.1355,6.113,6.0717,6.0079,5.9515,5.929,5.929,5.929,5.929,5.9253,5.8952,5.8803,5.8728,5.7865,5.7378,5.6965,5.5842,5.5505,5.5465,5.4872,5.5246,5.588,5.5278,5.4787,5.4409,5.4409,5.4409,5.4409,5.4409,5.4409,5.4409,5.4409,5.4409,5.4409,5.4409,5.4409,5.4409,5.4409,5.4409,5.4409,5.4409,0.0,5.4409,0.0,0.0,0.0,0.0,0.0,0.0,0.0,5.5375,0.0,0.0,0.0,0.0,0.0,0.0,0.0,6.5305,6.7466,0.0,6.9096,6.9967,7.0725,7.1405,7.2655,7.4056,7.5501,7.5501,7.5501,7.5501,7.5532,7.5723,7.614,7.759,7.8317,7.8703,8.0042,8.0542,8.0506,8.0506,8.0697,8.0926,7.18,7.1615,0.0,0.0,6.9873,0.0,6.942,6.889,6.8197,6.7455,6.7343,6.7046,6.6351,6.6277,6.6277,6.6277,0.0,0.0,0.0,6.5046,6.4345,6.2902,6.2715,6.2346,6.1599,6.1525,6.1076,6.018,6.0372,6.0902,6.1806,6.2668,6.2217,6.0792,6.143,6.083,5.9403,5.9328,5.929,5.929,5.929,5.929,5.9215,5.8464,5.8128,5.7941,5.708,5.6293,5.5656,5.5435,5.5472,5.5545,5.5398,5.5959,5.6295,5.4834,5.4453,5.4484,5.4409,5.4409,5.4409,5.4409,5.4409,5.4409,5.4409,5.4409,5.4409,5.4409,5.4409,5.4409,5.4409,5.4409,5.4409,5.4409,5.4409,5.4409,5.4484,0.0,0.0,0.0,0.0,0.0,0.0,5.7935,5.9099,0.0,0.0,0.0,0.0,0.0,6.5495,6.6253,6.7883,6.9171,6.9967,7.0801,7.1257,7.1484,7.3341,7.4666,7.5501,7.5501,7.5501,7.5501,7.5539,7.5997,7.6761,7.7717,7.8557,7.936,8.02,8.0506,8.0506,8.0506,8.1041,8.169,0.0,0.0,7.0507,6.9695,6.9451,6.9119,6.8527,6.8319,6.8134,6.7949,6.7912,6.7889,6.7802,6.7802,6.7851,6.7948,6.6834,6.6017,6.5877,6.5245,6.4733,6.4494,6.3264,6.2524,6.2421,6.1823,6.1076,6.018,6.093,6.1341,6.1606,6.2429,6.2657,6.2326,6.1201,6.0566,6.0266,5.9591,5.929,5.929,5.929,5.929,5.9178,5.899,5.8839,5.865,5.7827,5.7416,5.7155,5.6519,5.6295,5.6295,5.6182,5.6331,5.6444,5.5508,5.5244,5.513,5.4525,5.4409,5.4409,5.4409,5.4409,5.4409,5.4409,5.4409,5.4409,5.4409,5.4409,5.4409,5.4409,5.4409,5.4409,5.4409,5.4409,5.4597,5.5235,5.5348,0.0,0.0,5.7413,5.8089,5.9591,6.0492,6.1432,0.0,0.0,0.0,0.0,0.0,6.777,6.7996,6.9626,7.0612,7.0801,7.1635,7.2471,7.3231,7.4409,7.5129,7.5356,7.5427,7.5501,7.5539,7.615,7.6532,7.68,7.8366,7.9092,7.936,8.02,8.0506,8.0506,8.0506,8.1041,8.1767,6.9942,6.9794,6.9536,6.8726,6.8631,6.8535,6.8041,6.8018,6.807,6.807,6.8402,6.8712,6.8763,6.9096,6.9369,6.9521,6.8086,6.7057,6.6685,6.6202,6.5608,6.4956,6.4063,6.3394,6.3109,6.2662,6.2071,6.1293,6.1367,6.1446,6.1525,6.1936,6.2014,6.1644,6.0746,6.0187,5.9814,5.9327,5.914,5.914,5.914,5.914,5.9063,5.8689,5.85,5.8234,5.745,5.7152,5.7115,5.6628,5.674,5.704,5.696,5.7221,5.7449,5.6668,5.6033,5.5432,5.498,5.4675,5.4409,5.4409,5.4409,5.4409,5.4409,5.4409,5.4409,5.4409,5.4409,5.4409,5.4409,5.4409,5.4409,5.4409,5.4709,5.5235,5.6099,5.6849,0.0,5.9591,6.0154,6.1017,6.267,6.3233,6.3873,6.4778,0.0,0.0,6.7013,6.7959,6.8527,6.8603,6.9854,7.0725,7.1104,7.2317,7.3418,7.4371,7.4905,7.5208,7.5281,7.5392,7.5656,7.6074,7.6494,7.7144,7.7946,7.8901,7.9513,7.9895,8.0315,8.0506,8.0506,8.0506,8.127,8.2302,6.8898,6.8715,6.8495,6.7797,6.7794,6.7899,6.7899,6.8078,6.8203,6.8203,6.8941,6.9458,6.9458,7.0048,7.0507,7.0665,6.9447,6.8346,6.7725,6.7428,6.6611,6.5088,6.4865,6.4419,6.3639,6.349,6.3089,6.2401,6.1656,6.1288,6.1259,6.1259,6.0886,6.0292,6.0142,5.9694,5.8984,5.8984,5.8984,5.8984,5.8984,5.8984,5.891,5.8236,5.7898,5.7667,5.6997,5.6737,5.6737,5.6695,5.7141,5.7779,5.7736,5.8141,5.8586,5.7925,5.6816,5.5771,5.5545,5.5018,5.46,5.4712,5.4784,5.4747,5.4597,5.4597,5.4559,5.4446,5.4409,5.4409,5.4409,5.4484,5.4597,5.4597,5.5385,5.6286,5.715,0.0,6.0304,6.1956,6.3045,6.4247,6.5749,6.6124,6.6575,6.7288,6.7522,6.7981,0.0,6.8977,6.9057,6.9134,6.974,7.0536,7.1483,7.2886,7.4063,7.4977,7.5017,7.5056,7.5283,7.5434,7.5928,7.6688,7.6991,7.7908,7.9283,7.9436,7.9856,8.0506,8.0506,8.0506,8.0506,8.0506,8.1538,8.2875,6.8017,6.7871,6.7834,6.7724,6.7741,6.7741,6.7741,6.8328,6.8769,6.8769,6.9467,7.0,7.0109,7.0273,7.0401,7.0507,6.9813,6.9322,6.936,6.806,6.6871,6.5942,6.5199,6.4419,6.3639,6.2933,6.219,6.1453,6.1305,6.0858,6.0152,6.0152,6.012,6.0091,5.9384,5.9092,5.8984,5.8984,5.8984,5.8984,5.8984,5.8982,5.8902,5.875,5.8673,5.8475,5.8364,5.8326,5.8326,5.8326,5.8401,5.8512,5.8512,5.8624,5.8698,5.8549,5.7965,5.6964,5.5697,5.5358,5.5505,5.6179,5.6403,5.6324,5.5573,5.5423,5.5235,5.4559,5.4409,5.4409,5.4409,5.4972,5.5423,5.5423,5.6737,5.8014,5.8802,0.0,6.2031,6.3721,6.5261,6.6575,6.7513,6.8903,6.9766,6.9917,7.0555,7.105,7.1331,7.1421,7.1508,7.1628,7.1179,7.1635,7.3227,7.3492,7.4023,7.4935,7.4977,7.5017,7.5056,7.597,7.6464,7.6729,7.8215,7.9054,7.9321,8.0009,8.0391,8.0506,8.0506,8.0506,8.0506,8.0506,8.1538,8.299,6.776,6.7687,6.7834,6.8274,6.8348,6.8495,6.8935,6.9302,6.9559,6.9559,7.0257,7.0734,7.0845,7.125,7.1563,7.1637,7.0639,7.0006,7.0212,6.8791,6.7614,6.6797,6.5942,6.4902,6.3639,6.3267,6.2673,6.1856,6.141,6.0741,5.9887,5.9478,5.9255,5.9339,5.8967,5.8781,5.8862,5.8862,5.8862,5.8862,5.8862,5.8821,5.8818,5.8818,5.8739,5.8698,5.8698,5.8698,5.8698,5.8698,5.8698,5.8698,5.8698,5.8698,5.8698,5.8698,5.8185,5.7372,5.6294,5.6033,5.6182,5.6556,5.6743,5.6703,5.629,5.6251,5.6211,5.5836,5.5761,5.5761,5.5761,5.6061,5.6436,5.6887,5.7976,0.0,0.0,6.2369,6.4096,6.665,6.7631,6.857,6.9879,7.0705,7.1111,7.1156,7.1494,7.1764,7.1896,7.1939,7.2029,7.2195,7.1937,7.1938,7.2241,7.3151,7.3795,7.4212,7.4708,7.5243,7.57,7.6236,7.696,7.7989,7.8865,7.9475,7.9971,8.0353,8.0506,8.0506,8.0506,8.0506,8.0506,8.0506,8.1538,8.299,6.8183,6.8183,6.8403,6.9082,6.9192,6.9376,7.0,7.0257,7.0367,7.0367,7.1101,7.1578,7.1578,7.2129,7.2553,7.2667,7.1342,7.0622,7.0613,6.9383,6.8259,6.7354,6.6351,6.5199,6.3936,6.3713,6.323,6.2413,6.1781,6.1038,6.0184,5.9367,5.8995,5.8995,5.8772,5.8698,5.8698,5.8698,5.8809,5.8995,5.8995,5.8995,5.8995,5.9218,5.9181,5.9032,5.9218,5.9292,5.9292,5.9292,5.9144,5.8995,5.8995,5.8846,5.8698,5.8698,5.8293,5.7742,5.7225,5.6928,5.6892,5.7078,5.7192,5.7192,5.7042,5.7228,5.7377,5.7225,5.7338,5.745,5.745,5.76,5.7976,5.8577,0.0,0.0,0.0,6.4587,6.6391,6.8908,6.9891,7.0868,7.2177,7.262,7.277,7.2545,7.2545,7.2515,7.2454,7.2454,7.2397,7.2233,7.2126,7.1787,7.1104,7.2393,7.3227,7.3606,7.4288,7.5163,7.6268,7.6498,7.7452,7.9018,7.9286,7.9782,8.0468,8.0506,8.0506,8.0506,8.0506,8.0506,8.0506,8.0506,8.1538,8.299,6.9701,6.9701,6.9795,7.0,7.0,7.0036,7.0073,7.0734,7.1211,7.1211,7.1908,7.2422,7.2422,7.2459,7.2496,7.2496,7.1838,7.1103,7.0367,6.9642,6.8666,6.7391,6.5756,6.4865,6.4716,6.401,6.323,6.2413,6.2339,6.1893,6.1076,6.0221,5.9812,5.9775,5.9032,5.8698,5.8698,5.8698,5.9144,5.9812,5.9812,5.9812,5.9924,6.0704,6.0518,5.9924,6.0741,6.1038,6.1038,6.1038,6.0481,5.9812,5.9812,5.9292,5.8698,5.8698,5.8661,5.8586,5.8549,5.8036,5.7707,5.8527,5.8756,5.865,5.7978,5.8428,5.884,5.8127,5.8614,5.9102,5.9102,5.9778,6.0342,6.0417,0.0,0.0,6.4176,6.6886,6.8918,6.9148,7.1933,7.3891,7.4004,7.5351,7.5952,7.5192,7.5154,7.4807,7.4047,7.4147,7.3565,7.2271,7.1558,7.1142,7.1104,7.1218,7.2052,7.3606,7.3682,7.4553,7.6145,7.7027,7.7903,7.8894,7.9856,8.0315,8.043,8.0468,8.0506,8.0506,8.0506,8.0506,8.0506,8.0506,8.1538,8.299,6.9884,6.9884,7.0088,7.0714,7.0844,7.1027,7.1505,7.1872,7.2055,7.2055,7.2312,7.2496,7.2496,7.2496,7.2496,7.2496,7.1818,7.1066,7.0367,6.961,6.8587,6.7246,6.606,6.5217,6.4828,6.401,6.3453,6.3156,6.2636,6.2264,6.193,6.1113,6.0704,6.0667,5.9812,5.9738,6.0221,5.9664,5.9924,6.0704,6.0704,6.0704,6.0741,6.1076,6.1001,6.0741,6.1076,6.1187,6.1187,6.1187,6.1001,6.0704,6.0704,6.0147,5.9441,5.9441,5.985,6.0258,6.0258,5.9627,5.9111,5.9446,5.9976,6.036,6.0062,6.0332,6.06,6.0339,6.0604,6.083,6.083,6.1543,6.2294,6.282,0.0,6.5567,6.715,6.8391,6.9788,7.1325,7.3107,7.4425,7.492,7.5914,7.6252,7.5426,7.5408,7.5032,7.4235,7.4335,7.3942,7.2902,7.2687,7.1859,7.0346,7.137,7.2241,7.2886,7.3909,7.5274,7.6903,7.7286,7.82,7.9575,7.9961,8.0235,8.0392,8.043,8.0468,8.0506,8.0506,8.0506,8.0506,8.0431,8.1499,8.291,7.0478,7.05,7.0799,7.1464,7.1631,7.1872,7.2422,7.2496,7.2496,7.2496,7.2496,7.2496,7.2496,7.2496,7.2496,7.2496,7.2018,7.1304,7.0312,6.9282,6.8283,6.7432,6.6581,6.5779,6.5096,6.4244,6.3725,6.3465,6.2909,6.265,6.2613,6.1834,6.1426,6.1389,6.0537,6.0499,6.1018,6.0469,6.0772,6.1515,6.1596,6.1596,6.1596,6.1856,6.1819,6.1633,6.1856,6.1967,6.1967,6.1967,6.1781,6.1596,6.1596,6.1001,6.0333,6.0333,6.0741,6.1187,6.1187,6.0964,6.063,6.037,6.0784,6.1279,6.1279,6.1857,6.2358,6.2398,6.2891,6.3345,6.3345,6.3871,6.4434,6.4998,6.5981,6.7263,6.8955,6.9863,7.1105,7.3041,7.4267,7.5283,7.6091,7.6867,7.6942,7.5855,7.5774,7.5342,7.4272,7.4289,7.4004,7.335,7.3397,7.2535,7.0687,7.1824,7.2507,7.2772,7.4212,7.5766,7.7396,7.7661,7.8576,7.9988,8.0296,8.0494,8.0694,8.0734,8.0812,8.0812,8.0582,8.0506,8.0468,8.043,8.1229,8.2447,7.1816,7.1903,7.2048,7.2263,7.238,7.2496,7.2496,7.2496,7.2496,7.2496,7.2496,7.2496,7.2496,7.2496,7.2496,7.2496,7.2496,7.1835,7.022,6.8605,6.7847,6.807,6.7331,6.6519,6.5706,6.4857,6.4007,6.3194,6.3194,6.3194,6.3194,6.2382,6.2013,6.1976,6.12,6.0831,6.0831,6.0966,6.1456,6.2197,6.2369,6.2413,6.2524,6.3305,6.3119,6.2524,6.3305,6.3602,6.3602,6.3602,6.3082,6.2413,6.2413,6.1856,6.1224,6.1224,6.1224,6.1224,6.1224,6.1819,6.2227,6.141,6.1224,6.1267,6.1316,6.271,6.4033,6.4079,6.5553,6.68,6.68,6.68,6.68,6.68,6.8161,6.9219,6.9185,7.1336,7.3213,7.4085,7.5605,7.6921,7.7816,7.8616,7.8429,7.6743,7.6611,7.5915,7.4272,7.4197,7.3913,7.3307,7.335,7.3019,7.2431,7.2393,7.281,7.3644,7.4516,7.5804,7.7434,7.823,7.9064,7.9936,8.0899,8.1284,8.1284,8.1532,8.1612,8.1536,8.0774,8.0431,8.0392,8.0392,8.0808,8.1527,7.1816,7.1842,7.1903,7.2084,7.2108,7.2204,7.2321,7.2358,7.238,7.2496,7.2496,7.2496,7.2496,7.2496,7.2496,7.2496,7.2496,7.1835,7.022,6.9119,6.8328,6.7847,6.7126,6.6418,6.5706,6.4857,6.4007,6.3194,6.3194,6.3194,6.3194,6.2973,6.2862,6.2825,6.2013,6.1976,6.2456,6.1948,6.217,6.2909,6.3049,6.3094,6.3132,6.3482,6.3453,6.3267,6.3527,6.3602,6.3602,6.3602,6.3453,6.3156,6.2599,6.2636,6.2784,6.2227,6.245,6.2896,6.2896,6.349,6.3788,6.2376,6.2896,6.375,6.3758,6.4666,6.5583,6.5715,6.6213,6.6678,6.6762,6.7251,6.7626,6.7626,6.9021,7.031,7.0879,7.2109,7.3409,7.4882,7.6037,7.6991,7.7816,7.8616,7.8654,7.7629,7.6413,7.5304,7.4272,7.4197,7.4394,7.4915,7.5004,7.5286,7.5755,7.4096,7.3682,7.4516,7.5349,7.6638,7.8268,7.8495,7.9064,7.9936,8.0775,8.1198,8.1322,8.1977,8.1904,8.1416,8.1228,8.077,8.0235,8.0154,8.0646,8.1364,7.1656,7.1755,7.1816,7.1903,7.1927,7.2048,7.2144,7.2204,7.2204,7.2321,7.2321,7.2321,7.2321,7.238,7.238,7.238,7.2144,7.1468,7.0183,6.9339,6.8531,6.7724,6.7316,6.6743,6.6036,6.5188,6.4377,6.3567,6.3235,6.3051,6.3051,6.3051,6.3051,6.3051,6.2523,6.2609,6.3014,6.2583,6.2656,6.3184,6.3611,6.3817,6.3901,6.4327,6.4336,6.4085,6.4085,6.3899,6.3602,6.3602,6.3602,6.3527,6.3044,6.3453,6.401,6.349,6.3936,6.4605,6.4605,6.4939,6.5088,6.4122,6.4605,6.5311,6.5311,6.6035,6.6723,6.6814,6.721,6.7523,6.7648,6.8066,6.8478,6.886,7.0073,7.125,7.2046,7.2891,7.4047,7.568,7.6365,7.7167,7.8278,7.8804,7.8766,7.7966,7.6338,7.5183,7.4732,7.4685,7.4957,7.5585,7.6015,7.6519,7.7187,7.5755,7.5346,7.5918,7.6714,7.7623,7.8609,7.895,7.9594,8.0428,8.1262,8.1837,8.2266,8.2803,8.2732,8.2281,8.206,8.1372,8.0608,8.0566,8.0596,8.0781,7.1494,7.1656,7.178,7.178,7.1903,7.1988,7.1988,7.1988,7.1988,7.1988,7.1988,7.1988,7.1988,7.2144,7.2263,7.2263,7.172,7.1007,7.0257,6.9522,6.8715,6.7834,6.7797,6.743,6.6623,6.5815,6.4971,6.409,6.3319,6.2879,6.2805,6.2805,6.2805,6.2805,6.2805,6.2805,6.2805,6.3027,6.3113,6.3186,6.4095,6.4572,6.4742,6.5483,6.543,6.4856,6.4893,6.441,6.3779,6.3825,6.3825,6.3825,6.3825,6.4345,6.4939,6.4939,6.5496,6.6091,6.6091,6.6165,6.6202,6.6202,6.6277,6.6314,6.6239,6.6928,6.7617,6.7617,6.8306,6.8921,6.8921,6.9012,6.9364,7.0159,7.1125,7.2046,7.2768,7.3613,7.4769,7.6291,7.6627,7.7279,7.8853,7.9079,7.8766,7.7966,7.6488,7.5558,7.553,7.5511,7.5596,7.5764,7.6526,7.707,7.737,7.7414,7.7457,7.751,7.8268,7.8647,7.8723,7.9519,8.0352,8.1148,8.202,8.2854,8.3612,8.3823,8.3867,8.3715,8.3041,8.2205,8.1398,8.1322,8.0743,8.0087,7.1494,7.1531,7.1593,7.1593,7.1557,7.162,7.1842,7.1842,7.1903,7.1988,7.1988,7.1988,7.1988,7.2048,7.2048,7.2048,7.2057,7.1736,7.0967,7.0824,7.0146,6.8715,6.8641,6.8274,6.7467,6.6659,6.5521,6.409,6.3906,6.3466,6.2805,6.2805,6.2805,6.2805,6.2805,6.2805,6.2879,6.359,6.3847,6.392,6.488,6.5262,6.5349,6.5558,6.5533,6.5434,6.5568,6.5456,6.5356,6.5487,6.5571,6.5571,6.5571,6.5682,6.5831,6.5831,6.5942,6.6091,6.6091,6.6574,6.7057,6.7057,6.7503,6.7837,6.7205,6.7651,6.8294,6.8389,6.8586,6.8782,6.8875,6.9407,6.991,7.0098,7.135,7.2402,7.2687,7.3475,7.4423,7.553,7.629,7.7092,7.8041,7.8729,7.8766,7.7966,7.7565,7.704,7.6375,7.6338,7.6675,7.74,7.7645,7.82,7.9018,7.9109,7.8857,7.8344,7.8533,7.895,7.9632,7.9822,8.0352,8.1148,8.202,8.2854,8.365,8.4378,8.4264,8.3619,8.3475,8.2905,8.2065,8.1382,8.1041,8.0845,7.2146,7.2074,7.1965,7.1567,7.1494,7.1531,7.1656,7.1656,7.1718,7.1744,7.1744,7.1744,7.1744,7.1842,7.1964,7.1988,7.2084,7.1874,7.1165,7.115,7.0714,6.9522,6.9119,6.8715,6.8274,6.7467,6.6476,6.5228,6.4861,6.4457,6.4016,6.4016,6.4016,6.4016,6.4016,6.4016,6.4016,6.4494,6.4677,6.4751,6.5662,6.6044,6.6095,6.6565,6.6505,6.6223,6.6273,6.6063,6.573,6.5912,6.5959,6.5959,6.6044,6.6351,6.6685,6.6685,6.6945,6.7243,6.7243,6.7577,6.7874,6.7874,6.8208,6.8394,6.7986,6.8208,6.8506,6.8602,6.8602,6.8602,6.8697,6.9425,7.0154,7.0537,7.1674,7.2658,7.3191,7.3634,7.4235,7.5183,7.6037,7.7078,7.8353,7.8891,7.8966,7.8504,7.8116,7.7666,7.7228,7.7228,7.7415,7.7877,7.8301,7.8812,7.9406,7.9546,7.9411,7.9128,7.9172,7.9443,7.9898,8.0277,8.0921,8.1755,8.2589,8.346,8.4256,8.4711,8.4635,8.4218,8.4218,8.3688,8.2854,8.202,8.1186,8.058,7.3052,7.2798,7.2509,7.182,7.1603,7.1494,7.1494,7.1494,7.1494,7.1494,7.1494,7.1494,7.1494,7.1656,7.178,7.1927,7.1927,7.1732,7.1231,7.1253,7.0945,7.0274,6.9614,6.9137,6.8898,6.8238,6.743,6.6512,6.5852,6.5448,6.5301,6.5301,6.5301,6.5301,6.5301,6.5301,6.5301,6.5448,6.5521,6.5595,6.6366,6.6749,6.6927,6.7642,6.751,6.7059,6.7059,6.6629,6.6038,6.6137,6.6297,6.6408,6.659,6.7184,6.7814,6.7863,6.8271,6.868,6.8729,6.8617,6.8506,6.8506,6.8506,6.8506,6.8506,6.8506,6.8506,6.8506,6.8506,6.8506,6.8506,6.9357,7.031,7.0971,7.1967,7.2941,7.3624,7.3777,7.4056,7.4901,7.5746,7.6911,7.8504,7.8804,7.8928,7.8928,7.8391,7.8079,7.8079,7.8079,7.8128,7.8102,7.8741,7.9165,7.9311,7.9453,7.9546,7.9683,8.0005,8.0087,8.0125,8.0807,8.1641,8.2627,8.3309,8.4105,8.4901,8.4901,8.4901,8.4901,8.4901,8.4446,8.3688,8.274,8.1338,8.0011,7.3776,7.3197,7.269,7.2581,7.1965,7.1494,7.1494,7.1494,7.1494,7.1494,7.1494,7.1494,7.1494,7.1494,7.1557,7.1557,7.1718,7.1805,7.1732,7.1781,7.1596,7.0982,7.0836,7.0198,6.8935,6.8788,6.8017,6.6512,6.6402,6.5999,6.5301,6.5301,6.5301,6.5301,6.5301,6.5301,6.5375,6.6035,6.6329,6.6402,6.721,6.754,6.7594,6.7704,6.7667,6.7647,6.7715,6.7746,6.7737,6.7788,6.8218,6.8808,6.886,6.9414,7.008,7.0235,6.9791,6.9396,6.9496,6.9063,6.8506,6.8506,6.8506,6.8506,6.8506,6.8506,6.8506,6.8506,6.8506,6.8506,6.8506,6.9744,7.0834,7.092,7.2285,7.3327,7.361,7.3624,7.3713,7.3936,7.4823,7.5757,7.6818,7.7629,7.8041,7.8041,7.8616,7.8966,7.8966,7.8966,7.8966,7.8928,7.9041,7.9165,7.9311,7.9453,7.9546,7.9721,8.0536,8.0921,8.0921,8.1035,8.1944,8.3422,8.3536,8.4105,8.4901,8.4901,8.4901,8.4901,8.4901,8.4825,8.456,8.2968,8.1338,8.0011,7.4682,7.3921,7.3233,7.2798,7.2038,7.1494,7.1494,7.1494,7.1494,7.1494,7.1494,7.1494,7.1494,7.1494,7.1494,7.1494,7.1593,7.1656,7.1816,7.1842,7.1781,7.1633,7.1253,7.0762,7.0181,6.932,6.8568,6.7834,6.7393,6.699,6.6623,6.6623,6.6623,6.6623,6.6623,6.6623,6.6659,6.7026,6.7173,6.7173,6.754,6.7687,6.7687,6.7687,6.7981,6.8421,6.8916,6.9171,6.9225,6.9278,6.959,6.9885,6.9938,7.0212,7.0507,7.056,7.0406,7.0161,7.0249,6.9756,6.9174,6.9174,6.884,6.8506,6.8506,6.8506,6.8506,6.8506,6.8506,6.8506,6.8506,6.983,7.0871,7.0883,7.2295,7.341,7.3447,7.3484,7.3722,7.4294,7.4798,7.5454,7.645,7.7287,7.7813,7.7891,7.8654,7.9116,7.9116,7.9116,7.9116,7.9116,7.9116,7.9116,7.9214,7.9311,7.968,8.0272,8.0749,8.1028,8.111,8.2058,8.2892,8.3612,8.4105,8.456,8.4901,8.4901,8.4901,8.4901,8.4901,8.4597,8.4067,8.3347,8.2323,8.1414]},{"header":{"parameterUnit":"m.s-1","parameterCategory":1,"la1":30.6,"la2":28.766,"lo1":-90.7593,"lo2":-88.6598,"dy":0.0162,"dx":0.0183,"nx":116,"ny":114,"refTime":"2023-10-03T18:00:00:Z","depth":0,"parameterNumber":3,"parameterNumberName":"V-component_of_WINDS"},"data":[0.0,0.0,0.0,0.0,0.0,0.0,0.0,0.0,0.0,0.0,0.0,0.0,0.0,0.0,0.0,0.0,0.0,0.0,0.0,0.0,0.0,0.0,0.0,0.0,0.0,0.0,0.0,0.0,0.0,0.0,0.0,0.0,0.0,0.0,0.0,0.0,0.0,0.0,0.0,0.0,0.0,0.0,0.0,0.0,0.0,0.0,0.0,0.0,0.0,0.0,0.0,0.0,0.0,0.0,0.0,0.0,0.0,0.0,0.0,0.0,0.0,0.0,0.0,0.0,0.0,0.0,0.0,0.0,0.0,0.0,0.0,0.0,0.0,0.0,0.0,0.0,0.0,0.0,0.0,0.0,0.0,0.0,0.0,0.0,0.0,0.0,0.0,0.0,0.0,0.0,0.0,0.0,0.0,0.0,0.0,0.0,0.0,0.0,0.0,0.0,0.0,0.0,0.0,0.0,0.0,0.0,0.0,0.0,0.0,0.0,0.0,0.0,0.0,0.0,0.0,0.0,0.0,0.0,0.0,0.0,0.0,0.0,0.0,0.0,0.0,0.0,0.0,0.0,0.0,0.0,0.0,0.0,0.0,0.0,0.0,0.0,0.0,0.0,0.0,0.0,0.0,0.0,0.0,0.0,0.0,0.0,0.0,0.0,0.0,0.0,0.0,0.0,0.0,0.0,0.0,0.0,0.0,0.0,0.0,0.0,0.0,0.0,0.0,0.0,0.0,0.0,0.0,0.0,0.0,0.0,0.0,0.0,0.0,0.0,0.0,0.0,0.0,0.0,0.0,0.0,0.0,0.0,0.0,0.0,0.0,0.0,0.0,0.0,0.0,0.0,0.0,0.0,0.0,0.0,0.0,0.0,0.0,0.0,0.0,0.0,0.0,0.0,0.0,0.0,0.0,0.0,0.0,0.0,0.0,0.0,0.0,0.0,0.0,0.0,0.0,0.0,0.0,0.0,0.0,0.0,0.0,0.0,0.0,0.0,0.0,0.0,0.0,0.0,0.0,0.0,0.0,0.0,0.0,0.0,0.0,0.0,0.0,0.0,0.0,0.0,0.0,0.0,0.0,0.0,0.0,0.0,0.0,0.0,0.0,0.0,0.0,0.0,0.0,0.0,0.0,0.0,0.0,0.0,0.0,0.0,0.0,0.0,0.0,0.0,0.0,0.0,0.0,0.0,0.0,0.0,0.0,0.0,0.0,0.0,0.0,0.0,0.0,0.0,0.0,0.0,0.0,0.0,0.0,0.0,0.0,0.0,0.0,0.0,0.0,0.0,0.0,0.0,0.0,0.0,0.0,0.0,0.0,0.0,0.0,0.0,0.0,0.0,0.0,0.0,0.0,0.0,0.0,0.0,0.0,0.0,0.0,0.0,0.0,0.0,0.0,0.0,0.0,0.0,0.0,0.0,0.0,0.0,0.0,0.0,0.0,0.0,0.0,0.0,0.0,0.0,0.0,0.0,0.0,0.0,0.0,0.0,0.0,0.0,0.0,0.0,0.0,0.0,0.0,0.0,0.0,0.0,0.0,0.0,0.0,0.0,0.0,0.0,0.0,0.0,0.0,0.0,0.0,0.0,0.0,0.0,0.0,0.0,0.0,0.0,0.0,0.0,0.0,0.0,0.0,0.0,0.0,0.0,0.0,0.0,0.0,0.0,0.0,0.0,0.0,0.0,0.0,0.0,0.0,0.0,0.0,0.0,0.0,0.0,0.0,0.0,0.0,0.0,0.0,0.0,0.0,0.0,0.0,0.0,0.0,0.0,0.0,0.0,0.0,0.0,0.0,0.0,0.0,0.0,0.0,0.0,0.0,0.0,0.0,0.0,0.0,0.0,0.0,0.0,0.0,0.0,0.0,0.0,0.0,0.0,0.0,0.0,0.0,0.0,0.0,0.0,0.0,0.0,0.0,0.0,0.0,0.0,0.0,0.0,0.0,0.0,0.0,0.0,0.0,0.0,0.0,0.0,0.0,0.0,0.0,0.0,0.0,0.0,0.0,0.0,0.0,0.0,0.0,0.0,0.0,0.0,0.0,0.0,0.0,0.0,0.0,0.0,0.0,0.0,0.0,0.0,0.0,0.0,0.0,0.0,0.0,0.0,0.0,0.0,0.0,0.0,0.0,0.0,0.0,0.0,0.0,0.0,0.0,0.0,0.0,0.0,0.0,0.0,0.0,0.0,0.0,0.0,0.0,0.0,0.0,0.0,0.0,0.0,0.0,0.0,0.0,0.0,0.0,0.0,0.0,0.0,0.0,0.0,0.0,0.0,0.0,0.0,0.0,0.0,0.0,0.0,0.0,0.0,0.0,0.0,0.0,0.0,0.0,0.0,0.0,0.0,0.0,0.0,0.0,0.0,0.0,0.0,0.0,0.0,0.0,0.0,0.0,0.0,0.0,0.0,0.0,0.0,0.0,0.0,0.0,0.0,0.0,0.0,0.0,0.0,0.0,0.0,0.0,0.0,0.0,0.0,0.0,0.0,0.0,0.0,0.0,0.0,0.0,0.0,0.0,0.0,0.0,0.0,0.0,0.0,0.0,0.0,0.0,0.0,0.0,0.0,0.0,0.0,0.0,0.0,0.0,0.0,0.0,0.0,0.0,0.0,0.0,0.0,0.0,0.0,0.0,0.0,0.0,0.0,0.0,0.0,0.0,0.0,0.0,0.0,0.0,0.0,0.0,0.0,0.0,0.0,0.0,0.0,0.0,0.0,0.0,0.0,0.0,0.0,0.0,0.0,0.0,0.0,0.0,0.0,0.0,0.0,0.0,0.0,0.0,0.0,0.0,0.0,0.0,0.0,0.0,0.0,0.0,0.0,0.0,0.0,0.0,0.0,0.0,0.0,0.0,0.0,0.0,0.0,0.0,0.0,0.0,0.0,0.0,0.0,0.0,0.0,0.0,0.0,0.0,0.0,0.0,0.0,0.0,0.0,0.0,0.0,0.0,0.0,0.0,0.0,0.0,0.0,0.0,0.0,0.0,0.0,0.0,0.0,0.0,0.0,0.0,0.0,0.0,0.0,0.0,0.0,0.0,0.0,0.0,0.0,0.0,0.0,0.0,0.0,0.0,0.0,0.0,0.0,0.0,0.0,0.0,0.0,0.0,0.0,0.0,0.0,0.0,0.0,0.0,0.0,0.0,0.0,0.0,0.0,0.0,0.0,0.0,0.0,0.0,0.0,0.0,0.0,0.0,0.0,0.0,0.0,0.0,0.0,0.0,0.0,0.0,0.0,0.0,0.0,0.0,0.0,0.0,0.0,0.0,0.0,0.0,0.0,0.0,0.0,0.0,0.0,0.0,0.0,0.0,0.0,0.0,0.0,0.0,0.0,0.0,0.0,0.0,0.0,0.0,0.0,0.0,0.0,0.0,0.0,0.0,0.0,0.0,0.0,0.0,0.0,0.0,0.0,0.0,0.0,0.0,0.0,0.0,0.0,0.0,0.0,0.0,0.0,0.0,0.0,0.0,0.0,0.0,0.0,0.0,0.0,0.0,0.0,0.0,0.0,0.0,0.0,0.0,0.0,0.0,0.0,0.0,0.0,0.0,0.0,0.0,0.0,0.0,0.0,0.0,0.0,0.0,0.0,0.0,0.0,0.0,0.0,0.0,0.0,0.0,0.0,0.0,0.0,0.0,0.0,0.0,0.0,0.0,0.0,0.0,0.0,0.0,0.0,0.0,0.0,0.0,0.0,0.0,0.0,0.0,0.0,0.0,0.0,0.0,0.0,0.0,0.0,0.0,0.0,0.0,0.0,0.0,0.0,0.0,0.0,0.0,0.0,0.0,0.0,0.0,0.0,0.0,0.0,0.0,0.0,0.0,0.0,0.0,0.0,0.0,0.0,0.0,0.0,0.0,0.0,0.0,0.0,0.0,0.0,0.0,0.0,0.0,0.0,0.0,0.0,0.0,0.0,0.0,0.0,0.0,0.0,0.0,0.0,0.0,0.0,0.0,0.0,0.0,0.0,0.0,0.0,0.0,0.0,0.0,0.0,0.0,0.0,0.0,0.0,0.0,0.0,0.0,0.0,0.0,0.0,0.0,0.0,0.0,0.0,0.0,0.0,0.0,0.0,0.0,0.0,0.0,0.0,0.0,0.0,0.0,0.0,0.0,0.0,0.0,0.0,0.0,0.0,0.0,0.0,0.0,0.0,0.0,0.0,0.0,0.0,0.0,0.0,0.0,0.0,0.0,0.0,0.0,0.0,0.0,0.0,0.0,0.0,0.0,0.0,0.0,0.0,0.0,0.0,0.0,0.0,0.0,0.0,0.0,0.0,0.0,0.0,0.0,0.0,0.0,0.0,0.0,0.0,0.0,0.0,0.0,0.0,0.0,0.0,0.0,0.0,0.0,0.0,0.0,0.0,0.0,0.0,0.0,0.0,0.0,0.0,0.0,0.0,0.0,0.0,0.0,0.0,0.0,0.0,0.0,0.0,0.0,0.0,0.0,0.0,0.0,0.0,0.0,0.0,0.0,0.0,0.0,0.0,0.0,0.0,0.0,0.0,0.0,0.0,0.0,0.0,0.0,0.0,0.0,0.0,0.0,0.0,0.0,0.0,0.0,0.0,0.0,0.0,0.0,0.0,0.0,0.0,0.0,0.0,0.0,0.0,0.0,0.0,0.0,0.0,0.0,0.0,0.0,0.0,0.0,0.0,0.0,0.0,0.0,0.0,0.0,0.0,0.0,0.0,0.0,0.0,0.0,0.0,0.0,0.0,0.0,0.0,0.0,0.0,0.0,0.0,0.0,0.0,0.0,0.0,0.0,0.0,0.0,0.0,0.0,0.0,0.0,0.0,0.0,0.0,0.0,0.0,0.0,0.0,0.0,0.0,0.0,0.0,0.0,0.0,0.0,0.0,0.0,0.0,0.0,0.0,0.0,0.0,0.0,0.0,0.0,0.0,0.0,0.0,0.0,0.0,0.0,0.0,0.0,0.0,0.0,0.0,0.0,0.0,0.0,0.0,0.0,0.0,0.0,0.0,0.0,0.0,0.0,0.0,0.0,0.0,0.0,0.0,0.0,0.0,0.0,0.0,0.0,0.0,0.0,0.0,0.0,0.0,0.0,0.0,0.0,0.0,0.0,0.0,0.0,0.0,0.0,0.0,0.0,0.0,0.0,0.0,0.0,0.0,0.0,0.0,0.0,0.0,0.0,0.0,0.0,0.0,0.0,0.0,0.0,0.0,0.0,0.0,0.0,0.0,0.0,0.0,0.0,0.0,0.0,0.0,0.0,0.0,0.0,0.0,0.0,0.0,0.0,0.0,0.0,0.0,0.0,0.0,0.0,0.0,0.0,0.0,0.0,0.0,0.0,0.0,0.0,0.0,0.0,0.0,0.0,0.0,0.0,0.0,0.0,0.0,0.0,0.0,0.0,0.0,0.0,0.0,0.0,0.0,0.0,0.0,0.0,0.0,0.0,0.0,0.0,0.0,0.0,0.0,0.0,0.0,0.0,0.0,0.0,0.0,0.0,0.0,0.0,0.0,0.0,0.0,0.0,0.0,0.0,0.0,0.0,0.0,0.0,0.0,0.0,0.0,0.0,0.0,0.0,0.0,0.0,0.0,0.0,0.0,0.0,0.0,0.0,0.0,0.0,0.0,0.0,0.0,0.0,0.0,0.0,0.0,0.0,0.0,0.0,0.0,0.0,0.0,0.0,0.0,0.0,0.0,0.0,0.0,0.0,0.0,0.0,0.0,0.0,0.0,0.0,0.0,0.0,0.0,0.0,0.0,0.0,0.0,0.0,0.0,0.0,0.0,0.0,0.0,0.0,0.0,0.0,0.0,0.0,0.0,0.0,0.0,0.0,0.0,0.0,0.0,0.0,0.0,0.0,0.0,0.0,0.0,0.0,0.0,0.0,0.0,0.0,0.0,0.0,0.0,0.0,0.0,0.0,0.0,0.0,0.0,0.0,0.0,0.0,0.0,0.0,0.0,0.0,0.0,0.0,0.0,0.0,0.0,0.0,0.0,0.0,0.0,0.0,0.0,0.0,0.0,0.0,0.0,0.0,0.0,0.0,0.0,0.0,0.0,0.0,0.0,0.0,0.0,0.0,0.0,0.0,0.0,0.0,0.0,0.0,0.0,0.0,0.0,0.1868,0.0,0.0,0.0,0.0,0.0,0.0,0.0,0.0,0.0,0.0,0.0,0.0,0.0,0.0,0.0,0.0,0.0,0.0,0.0,0.0,0.0,0.0,0.0,0.0,0.0,0.0,0.0,0.0,0.0,0.0,0.0,0.0,0.0,0.0,0.0,0.0,0.0,0.0,0.0,0.0,0.0,0.0,0.0,0.0,0.0,0.0,0.0,0.0,0.0,0.0,0.0,0.0,0.0,0.0,0.0,0.0,0.0,0.0,0.0,0.0,0.0,0.0,0.0,0.0,0.0,0.0,0.0,0.0,0.0,0.0,0.0,0.0,0.0,0.0,0.0,0.0,0.0,0.0,0.0,0.0,0.0,0.0,0.0,0.0,0.0,0.0,0.0,0.0,0.0,0.0,0.0,0.0,0.0,0.0,0.0,0.0,0.0,0.0,0.0,0.0,0.0,0.0,0.0,0.0,0.0,0.0,0.0,0.0,0.0,0.0,0.0,0.0,0.0,0.0,0.0,0.0,0.1929,0.0,0.0,0.0,0.0,0.0,0.0,0.0,0.0,0.0,0.0,0.0,0.0,0.0,0.0,0.0,0.0,0.0,0.0,0.0,0.0,0.0,0.0,0.0,0.0,0.0,0.0,0.0,0.0,0.0,0.0,0.0,0.0,0.0,0.0,0.0,0.0,0.0,0.0,0.0,0.0,0.0,0.0,0.0,0.0,0.0,0.0,0.0,0.0,0.0,0.0,0.0,0.0,0.0,0.0,0.0,0.0,0.0,0.0,0.0,0.0,0.0,0.0,0.0,0.0,0.0,0.0,0.0,0.0,0.0,0.0,0.0,0.0,0.0,0.0,0.0,0.0,0.0,0.0,0.0,0.0,0.0,0.0,0.0,0.0,0.0,0.0,0.0,0.0,0.0,0.0,0.0,0.0,0.0,0.0,0.0,0.0,0.0,0.0,0.0,0.0,0.0,0.0,0.0,0.0,0.0,0.0,0.0,0.0,0.0,0.2185,0.2185,0.2185,0.2185,0.218,0.2082,0.2027,0.2005,0.0,0.0,0.0,0.0,0.0,0.0,0.0,0.0,0.0,0.0,0.0,0.0,0.0,0.0,0.0,0.0,0.0,0.0,0.0,0.0,0.0,0.0,0.0,0.0,0.0,0.0,0.0,0.0,0.0,0.0,0.0,0.0,0.0,0.0,0.0,0.0,0.0,0.0,0.0,0.0,0.0,0.0,0.0,0.0,0.0,0.0,0.0,0.0,0.0,0.0,0.0,0.0,0.0,0.0,0.0,0.0,0.0,0.0,0.0,0.0,0.0,0.0,0.0,0.0,0.0,0.0,0.0,0.0,0.0,0.0,0.0,0.0,0.0,0.0,0.0,0.0,0.0,0.0,0.0,0.0,0.0,0.0,0.0,0.0,0.0,0.0,0.0,0.0,0.0,0.0,0.0,0.0,0.0,0.0,0.0,0.0,0.0,0.0,0.0,0.0,0.0,0.0,0.0,0.2221,0.2225,0.2255,0.2309,0.2309,0.2309,0.2309,0.2309,0.2309,0.2308,0.2293,0.0,0.2127,0.2069,0.0,0.0,0.0,0.0,0.0,0.0,0.0,0.0,0.0,0.0,0.0,0.0,0.0,0.0,0.0,0.0,0.0,0.0,0.0,0.0,0.0,0.0,0.0,0.0,0.0,0.0,0.0,0.0,0.0,0.0,0.0,0.0919,0.091,0.0306,0.0,0.0,0.0,0.0,0.0,0.0,0.0,0.0,0.0,0.0,0.0,0.0,0.0,0.0,0.0,0.0,0.0,0.0,0.0,0.0,0.0,0.0,0.0,0.0,0.0,0.0,0.0,0.0,0.0,0.0,0.0,0.0,0.0,0.0,0.0,0.0,0.0,0.0,0.0,0.0,0.0,0.0,0.0,0.0,0.0,0.0,0.0,0.0,0.0,0.0,0.0,0.0,0.0354,0.1086,0.1805,0.2042,0.0,0.0,0.0,0.0,0.0,0.0,0.0,0.0,0.0,0.2166,0.224,0.2293,0.232,0.2337,0.2358,0.2383,0.2383,0.2383,0.2383,0.2383,0.2383,0.2383,0.2383,0.2354,0.23,0.2223,0.2181,0.2162,0.0,0.0,0.0,0.0,0.0,0.204,0.0,0.0,0.0,0.0,0.0,0.0,0.0,0.0,0.0,0.0,0.0,0.0,0.0211,0.0217,0.0221,0.0,0.0,0.0,0.0,0.0331,0.087,0.1582,0.1461,0.1448,0.164,0.0522,0.0,0.0,0.0,0.0,0.0,0.0,0.0,0.0,0.0,0.0,0.0,0.0,0.0,0.0,0.0,0.0,0.0,0.0,0.0,0.0,0.0,0.0,0.0,0.0,0.0,0.0,0.0,0.0,0.0,0.0,0.0,0.0,0.0,0.0,0.0,0.0,0.0,0.0,0.0,0.0,0.0,0.0,0.0,0.0,0.0,0.0,0.0,0.0,0.0,0.0,0.0,0.036,0.0984,0.2131,0.227,0.2148,0.0,0.0,0.0,0.0,0.0,0.0,0.2165,0.2238,0.2279,0.2279,0.2352,0.2394,0.2401,0.2575,0.2591,0.2598,0.2751,0.2751,0.2598,0.2598,0.2598,0.2446,0.2447,0.2447,0.244,0.235,0.23,0.2277,0.2105,0.2095,0.2097,0.2127,0.215,0.2028,0.0,0.0,0.0,0.0,0.0,0.0,0.0,0.0,0.0,0.0,0.0,0.0846,0.0889,0.0895,0.0681,0.0,0.0,0.0,0.0,0.1017,0.1779,0.175,0.1163,0.1151,0.1703,0.0541,0.0,0.0,0.0,0.0,0.0,0.0,0.0,0.0,0.0,0.0,0.0,0.0,0.0,0.0,0.0,0.0,0.0,0.0,0.0,0.0,0.0,0.0,0.0,0.0,0.0,0.0,0.0,0.0,0.0,0.0,0.0,0.0,0.0,0.0,0.0,0.0,0.0,0.0,0.0,0.0,0.0,0.0,0.0,0.0,0.0,0.0,0.0,0.0,0.0,0.0,0.0,0.0,0.0,0.2226,0.2261,0.0,0.0,0.0,0.0,0.2232,0.2262,0.2292,0.232,0.2353,0.2372,0.2372,0.2403,0.2435,0.2463,0.2928,0.3101,0.3133,0.3448,0.3605,0.329,0.329,0.2977,0.2507,0.2508,0.251,0.2503,0.2412,0.2373,0.2368,0.2192,0.218,0.2184,0.2212,0.2372,0.2229,0.0,0.0,0.0,0.0,0.0,0.0,0.0,0.0,0.1568,0.1433,0.1477,0.1521,0.1565,0.1616,0.1536,0.1315,0.0845,0.0603,0.0594,0.1051,0.1373,0.1782,0.1523,0.1508,0.1734,0.1309,0.077,0.0,0.0,0.0,0.0,0.0,0.0,0.0,0.0,0.0,0.0,0.0,0.0,0.0,0.0,-0.0583,0.0,0.0,0.0,0.0,0.0,0.0,0.0,0.0,0.0,0.0,0.0,0.0,0.0,0.0,0.0,0.0,0.0,0.0,0.0,0.0,0.0,0.0,0.0,0.0,0.0,0.0,0.0,0.0,0.0,0.0,0.0,0.0,0.0,0.0,0.0,0.0,0.0,0.2217,0.2236,0.0,0.2267,0.2279,0.2298,0.2328,0.2341,0.236,0.239,0.242,0.2436,0.2436,0.2773,0.2796,0.2808,0.3277,0.3597,0.3611,0.3768,0.3625,0.3335,0.3652,0.319,0.2568,0.257,0.2571,0.2568,0.2536,0.2488,0.2438,0.2446,0.2438,0.2421,0.2432,0.2448,0.2467,0.0,0.0,0.0,0.0,0.0,0.0,0.0,0.0,0.159,0.168,0.1842,0.1896,0.195,0.1895,0.1936,0.1945,0.1596,0.1347,0.1319,0.1304,0.1394,0.1798,0.1776,0.176,0.175,0.176,0.133,0.0561,0.0224,0.0,0.0,0.0,0.0,0.0,0.0,0.0,0.0,0.0,0.0,0.0,0.0,-0.0517,-0.1398,0.0,0.0,0.0,0.0,0.0,0.0,0.0,0.0,0.0,0.0,0.0,0.0,0.0,0.0,0.0,0.0,0.0,0.0,0.0,0.0,0.0,0.0,0.0,0.0,0.0,0.0,0.0,0.0,0.0,0.0,0.0,0.0,0.0,0.0,0.0,0.1812,0.2311,0.233,0.2348,0.2376,0.2388,0.2406,0.2438,0.2439,0.2448,0.2469,0.2478,0.2484,0.2484,0.2814,0.3139,0.3139,0.3768,0.3925,0.3925,0.4099,0.4124,0.3995,0.4172,0.3713,0.2601,0.2601,0.2601,0.2602,0.2613,0.2577,0.2515,0.2526,0.2518,0.2499,0.2488,0.2497,0.2514,0.0,0.0,0.0,0.0,0.0,0.0,0.0,0.1577,0.1648,0.1738,0.1776,0.1831,0.1921,0.1932,0.1944,0.1974,0.1977,0.1951,0.1892,0.1887,0.1859,0.18,0.1797,0.1783,0.1755,0.1783,0.1798,0.1798,0.0562,0.0,0.0,0.0,0.0115,0.0115,0.0,0.0,0.0,0.0,0.0,0.0,0.0,-0.044,-0.0982,0.0,0.0,0.0,0.0,0.0,0.0,0.0,0.0,0.0,0.0,0.0,0.0,0.0,0.0,0.0,0.0,0.0,0.0,0.0,0.0,0.0,0.0,0.0,0.0,0.0,0.0,0.0,0.0,0.0,0.0,0.0,0.0,0.0,0.2341,0.2396,0.2461,0.2523,0.2409,0.2439,0.247,0.25,0.2529,0.2559,0.2562,0.2562,0.2562,0.2533,0.2517,0.2515,0.2985,0.314,0.3139,0.3927,0.44,0.44,0.4929,0.5115,0.496,0.5183,0.4234,0.2766,0.2766,0.2766,0.2769,0.2637,0.2631,0.2764,0.2574,0.2562,0.2557,0.2527,0.2515,0.2514,0.0,0.0,0.0,0.0,0.0,0.0,0.0,0.1577,0.1648,0.1738,0.1795,0.1854,0.1924,0.1951,0.1967,0.1975,0.1977,0.197,0.1952,0.191,0.1868,0.1829,0.1828,0.1835,0.1849,0.1857,0.1861,0.1861,0.1046,0.0465,0.0,0.1051,0.1413,0.1431,0.0978,0.05,0.0,0.0,0.0,0.0,0.0,-0.0121,-0.0358,0.0,0.0,0.0,0.0,0.0,0.0,0.0,0.0,0.0,0.0,0.0,0.0,0.0,0.0,0.0,0.0,0.0,0.0,0.0,0.0,0.0,0.0,0.0,0.0,0.0,0.0,0.0,0.0,0.0,0.0,0.0,0.0,0.2289,0.241,0.2316,0.2384,0.2467,0.2484,0.251,0.256,0.2572,0.2581,0.2589,0.259,0.259,0.259,0.2582,0.2727,0.3024,0.334,0.3803,0.4084,0.4591,0.4929,0.4929,0.5147,0.5199,0.5079,0.5262,0.4298,0.2665,0.2667,0.2668,0.2668,0.2676,0.2675,0.2664,0.2635,0.2609,0.2425,0.2557,0.2533,0.2514,0.0,0.0,0.0,0.0,0.0,0.0,0.0,0.1588,0.1667,0.1757,0.1821,0.1883,0.1944,0.1966,0.1977,0.1977,0.1977,0.1971,0.1959,0.1913,0.1877,0.1861,0.1859,0.1868,0.1885,0.1885,0.1885,0.1885,0.1532,0.1061,0.0471,0.1195,0.1812,0.2074,0.1631,0.1287,0.0921,0.0267,0.0,0.0,0.0,0.0,-0.0128,-0.1273,-0.1874,-0.2071,-0.1918,-0.188,-0.1842,-0.1824,0.0,0.0,0.0,0.0,0.0,0.0,0.0,0.0,0.0,0.0,0.0,0.0,0.0,0.0,0.0,0.0,0.0,0.0,0.0,0.0,0.0,0.0,0.0,0.0,0.2323,0.2388,0.2386,0.2414,0.2463,0.2541,0.2551,0.257,0.2616,0.262,0.2626,0.2969,0.2957,0.2949,0.3113,0.3098,0.3242,0.3542,0.3864,0.4172,0.4462,0.4973,0.515,0.515,0.5213,0.5259,0.5129,0.5319,0.4681,0.0,0.3029,0.2692,0.2692,0.2692,0.2692,0.0,0.0,0.0,0.0,0.0,0.2559,0.2533,0.0,0.0,0.0,0.0,0.0,0.0,0.0,0.161,0.1697,0.1783,0.1844,0.1903,0.196,0.1966,0.1966,0.1966,0.197,0.196,0.1933,0.1906,0.1892,0.1896,0.1896,0.1899,0.1906,0.1906,0.1906,0.1906,0.1906,0.1668,0.1072,0.1225,0.1491,0.212,0.2078,0.2133,0.2032,0.0688,0.0141,0.0,0.0,0.0,-0.0136,-0.094,-0.1603,-0.2264,-0.2097,-0.205,-0.2005,-0.1999,0.0,0.0,0.0,0.0,0.0,0.0,0.0,0.0,0.0,0.0,0.0,0.0,0.0,0.0,0.0,0.0,0.0,0.0,0.0,0.0,0.0,0.0,0.0,0.0,0.2402,0.2487,0.2523,0.2529,0.2548,0.2601,0.2607,0.2619,0.2814,0.2817,0.2997,0.3363,0.3334,0.3481,0.398,0.0,0.0,0.0,0.0,0.4557,0.4712,0.5047,0.5213,0.5213,0.5275,0.5308,0.515,0.5371,0.5395,0.5395,0.3709,0.2864,0.2692,0.2692,0.2692,0.269,0.2662,0.265,0.2643,0.2616,0.2589,0.0,0.0,0.0,0.0,0.0,0.0,0.0,0.0,0.1654,0.172,0.1786,0.1827,0.1864,0.1899,0.1903,0.1903,0.1903,0.1926,0.1937,0.1932,0.1925,0.1933,0.1958,0.1959,0.1981,0.2029,0.203,0.203,0.203,0.203,0.1902,0.1776,0.1913,0.206,0.2216,0.2127,0.2176,0.2092,0.1286,0.0583,0.0,0.0,0.0,-0.0146,-0.1019,-0.1734,-0.2285,-0.223,-0.2203,-0.2187,-0.2136,-0.2078,-0.1886,-0.183,-0.0948,0.0,0.0,0.0,0.0,0.0,0.0,0.0,0.0,0.0,0.0,0.0,0.0,0.0,0.0,0.0,0.0,0.0,0.0,0.0,0.242,0.2474,0.2533,0.2611,0.2949,0.3119,0.3132,0.3134,0.3312,0.3685,0.3688,0.369,0.3868,0.386,0.3856,0.4023,0.4015,0.0,0.4452,0.4614,0.4759,0.5039,0.5251,0.5275,0.5278,0.0,0.0,0.5439,0.5452,0.5458,0.5458,0.4944,0.4072,0.2692,0.2692,0.2692,0.2691,0.2686,0.2669,0.2646,0.2641,0.2619,0.259,0.0,0.0,0.0,0.0,0.0,0.0,0.0,0.1666,0.1726,0.1787,0.1821,0.1851,0.1883,0.1885,0.1885,0.1885,0.2032,0.2307,0.2467,0.2469,0.2486,0.2271,0.2273,0.2288,0.2063,0.2064,0.2071,0.2087,0.2087,0.2094,0.2109,0.2125,0.214,0.2157,0.2187,0.2233,0.2148,0.1451,0.0741,0.0,0.0,0.0,-0.0153,-0.0905,-0.1794,-0.2373,-0.2328,-0.2303,-0.2279,-0.2221,-0.2161,-0.197,-0.1275,-0.0495,0.0,0.0,0.0,0.0,0.0,0.0,0.0,0.0,0.0,0.0,0.0,0.0,0.0,0.0,0.0,0.2381,0.0,0.0,0.2425,0.2502,0.2552,0.2597,0.2971,0.316,0.3338,0.3338,0.3503,0.3677,0.4034,0.4036,0.4036,0.4372,0.4372,0.4372,0.471,0.471,0.4865,0.5005,0.5005,0.5158,0.5294,0.5324,0.5338,0.5341,0.5371,0.5417,0.5474,0.5474,0.5491,0.5518,0.5521,0.4972,0.3901,0.3035,0.2691,0.2692,0.2692,0.2683,0.2669,0.2669,0.265,0.262,0.0,0.0,0.0,0.0,0.0,0.0,0.0,0.167,0.1831,0.189,0.1921,0.1947,0.1973,0.197,0.1974,0.211,0.2385,0.2688,0.3024,0.3173,0.2947,0.273,0.2739,0.2615,0.2229,0.2229,0.2242,0.2136,0.2136,0.2148,0.2173,0.2203,0.2221,0.2228,0.2258,0.2301,0.2203,0.1622,0.0901,0.0,0.0,0.0,-0.0,-0.0767,-0.1672,-0.2428,-0.2398,-0.2364,-0.2326,-0.2273,-0.2076,-0.1616,-0.0394,0.0,0.0,0.0,0.0,0.0,0.0,0.0,0.0,0.0,0.0,0.0,0.0,0.0,0.2491,0.241,0.2454,0.2358,0.2436,0.2474,0.2512,0.2568,0.2616,0.2814,0.3319,0.3514,0.3533,0.3701,0.387,0.4208,0.4216,0.4218,0.4387,0.4893,0.4895,0.5059,0.5384,0.5384,0.5384,0.5384,0.5384,0.5384,0.5384,0.5384,0.5384,0.5384,0.5395,0.5433,0.5491,0.5676,0.5707,0.5752,0.557,0.5364,0.5317,0.3907,0.3216,0.3218,0.2879,0.2706,0.2701,0.2695,0.2677,0.2652,0.0,0.0,0.0,0.0,0.0,0.0,0.0,0.0,0.2145,0.2188,0.2418,0.2533,0.2537,0.2504,0.2527,0.2643,0.2727,0.2932,0.3149,0.3105,0.3169,0.3212,0.3253,0.3156,0.2777,0.2777,0.2503,0.223,0.223,0.2232,0.2236,0.2266,0.2294,0.2319,0.235,0.2382,0.2416,0.2289,0.1384,0.0,0.0,0.0,-0.0,-0.0155,-0.1077,-0.2459,-0.2429,-0.2532,-0.2477,-0.2297,-0.1403,-0.0274,-0.0,0.0,0.0,0.0,0.0,0.0,0.0,0.0,0.0,0.0,0.111,0.2236,0.0,0.0,0.251,0.2546,0.245,0.25,0.2538,0.2568,0.2598,0.2631,0.2643,0.2823,0.3355,0.3698,0.4036,0.4542,0.4542,0.4729,0.5288,0.5293,0.5293,0.5463,0.5463,0.5442,0.5387,0.5384,0.5384,0.5384,0.5384,0.5384,0.5384,0.5384,0.5384,0.5384,0.5439,0.5322,0.5377,0.5605,0.5635,0.5638,0.5763,0.5561,0.5383,0.5202,0.5026,0.4853,0.3293,0.2757,0.2729,0.2702,0.269,0.2683,0.0,0.0,0.0,0.0,0.0,0.0,0.0,0.0,0.0,0.2365,0.2478,0.2586,0.2586,0.2592,0.2641,0.2979,0.3078,0.3323,0.3742,0.3828,0.3773,0.3719,0.3742,0.3486,0.3223,0.2966,0.2705,0.2584,0.2458,0.2331,0.2349,0.2363,0.2375,0.2386,0.2399,0.2421,0.2451,0.2463,0.1859,0.078,0.0157,0.0,-0.0157,-0.093,-0.1224,-0.1207,-0.2085,-0.2493,0.0,-0.1256,-0.0545,0.0,0.0,0.0,0.0,0.0,0.0,0.0,0.0,0.0,0.0274,0.128,0.2022,0.2481,0.2526,0.2575,0.2614,0.2629,0.2523,0.2574,0.2605,0.262,0.2638,0.0,0.284,0.3179,0.3698,0.4206,0.4542,0.5046,0.5048,0.5237,0.5469,0.5474,0.5488,0.5521,0.5523,0.5512,0.5488,0.5485,0.5485,0.5485,0.5455,0.5439,0.5436,0.5436,0.5436,0.5439,0.5325,0.538,0.5613,0.5638,0.567,0.57,0.564,0.5616,0.5613,0.5578,0.5564,0.5567,0.4696,0.3801,0.2736,0.2724,0.2707,0.2688,0.0,0.0,0.0,0.0,0.0,0.0,0.0,0.0,0.0,0.0,0.2645,0.2746,0.2733,0.2786,0.2973,0.33,0.3426,0.3707,0.4177,0.4281,0.4242,0.4063,0.4095,0.3975,0.3563,0.3451,0.3201,0.2948,0.2678,0.2556,0.2436,0.2444,0.2453,0.2462,0.2469,0.2485,0.2506,0.2506,0.22,0.1579,0.0473,0.0,-0.0156,-0.1691,-0.1659,-0.0739,-0.1459,-0.1863,-0.1681,-0.0406,0.0,0.0,0.0,0.0,0.0,0.0,0.0,0.0,0.0,0.0279,0.1001,0.2219,0.2552,0.258,0.2465,0.2502,0.2529,0.2537,0.2566,0.26,0.2628,0.2642,0.2654,0.2676,0.3023,0.3533,0.3868,0.4372,0.4878,0.5384,0.5384,0.5409,0.5469,0.5491,0.5515,0.5556,0.5575,0.5578,0.5561,0.5559,0.5559,0.5559,0.5521,0.5499,0.5327,0.5327,0.5499,0.5499,0.5556,0.5608,0.5651,0.5668,0.5698,0.5739,0.5695,0.5676,0.5673,0.5627,0.5788,0.5616,0.5616,0.4881,0.3625,0.3268,0.3066,0.2858,0.0,0.0,0.0,0.0,0.0,0.0,0.0,0.0,0.0,0.0,0.0,0.0,0.0,0.3343,0.3461,0.358,0.3755,0.3937,0.4117,0.4297,0.4422,0.448,0.4597,0.4541,0.4152,0.4154,0.3882,0.3026,0.3028,0.2896,0.2469,0.2497,0.2527,0.2557,0.2585,0.2597,0.2598,0.26,0.2585,0.2398,0.0639,0.0,-0.0154,-0.1653,-0.2217,-0.2042,-0.0575,-0.014,-0.0135,-0.0,0.0,0.0,0.0,0.0,0.0,0.0,0.0,0.0,0.0,0.1154,0.2509,0.2635,0.2667,0.2526,0.2586,0.2578,0.2566,0.2593,0.2578,0.257,0.2598,0.2627,0.2647,0.2649,0.3007,0.3533,0.3868,0.4372,0.4878,0.5384,0.5384,0.5409,0.0,0.5526,0.5556,0.5559,0.5613,0.5621,0.5564,0.5559,0.5559,0.5559,0.5559,0.5383,0.5383,0.5383,0.5556,0.5732,0.5619,0.5649,0.5651,0.5711,0.5739,0.5741,0.5739,0.5739,0.5739,0.5736,0.5736,0.5736,0.5736,0.57,0.5467,0.4361,0.3771,0.3367,0.0,0.0,0.0,0.0,0.0,0.0,0.0,0.0,0.0,0.0,0.0,0.0,0.0,0.0,0.0,0.0,0.3755,0.3935,0.4115,0.4259,0.4398,0.4537,0.458,0.4632,0.4546,0.4325,0.392,0.3482,0.3231,0.2954,0.2499,0.251,0.2519,0.253,0.254,0.2544,0.2544,0.2545,0.254,0.2527,0.1254,0.0466,-0.0154,-0.1042,-0.175,-0.2151,0.0,-0.0403,0.0,0.0,0.0,0.0,0.0,0.0,0.0,0.0,0.0,0.0282,0.1298,0.2088,0.2619,0.2661,0.2545,0.2575,0.2575,0.2582,0.2585,0.2575,0.2581,0.259,0.26,0.2611,0.2624,0.2975,0.3487,0.4005,0.4369,0.4878,0.5216,0.5384,0.5384,0.0,0.0,0.0,0.0,0.5616,0.5676,0.5878,0.621,0.621,0.621,0.6387,0.6344,0.5966,0.5616,0.5441,0.5443,0.5621,0.5722,0.5771,0.5771,0.5652,0.5657,0.562,0.562,0.5777,0.5741,0.5741,0.5741,0.5741,0.5741,0.5706,0.5654,0.4751,0.4353,0.4291,0.0,0.0,0.0,0.0,0.0,0.0,0.0,0.0,0.0,0.0,0.0,0.0,0.0,0.0,0.0,0.0,0.0,0.3894,0.4052,0.4196,0.4335,0.4471,0.4518,0.457,0.463,0.4433,0.4043,0.3608,0.3375,0.2957,0.2514,0.2514,0.2526,0.2545,0.2545,0.2545,0.2545,0.2545,0.2533,0.2512,0.1713,0.0768,-0.0151,-0.0879,-0.1577,0.0,-0.1742,-0.0922,0.0,0.0,0.0,0.0,0.0,0.0,0.0,0.0,0.0419,0.1159,0.2221,0.2601,0.268,0.2713,0.2583,0.2601,0.2593,0.2589,0.2578,0.2549,0.2549,0.2551,0.254,0.2714,0.2902,0.3263,0.3785,0.4318,0.4703,0.5064,0.5417,0.5417,0.5436,0.5447,0.0,0.0,0.0,0.5616,0.5873,0.6097,0.6454,0.6633,0.6633,0.6633,0.6412,0.6033,0.5676,0.6237,0.6261,0.5747,0.5641,0.5678,0.5867,0.5905,0.5902,0.5864,0.566,0.5628,0.5771,0.5749,0.5741,0.5741,0.5741,0.5719,0.5684,0.513,0.51,0.5058,0.0,0.0,0.0,0.0,0.0,0.0,0.0,0.0,0.0,0.0,0.0,0.0,0.0,0.0,0.0,0.0,0.0,0.0,0.3937,0.4109,0.4237,0.43,0.4412,0.4501,0.4564,0.4627,0.425,0.3561,0.3604,0.3211,0.2504,0.2504,0.2534,0.2587,0.2587,0.2589,0.259,0.2589,0.2556,0.2507,0.1721,0.0761,-0.0146,-0.0718,-0.1547,-0.2192,-0.2264,-0.1186,0.0,0.0,0.0,0.0,0.0,0.0,0.0,0.0,0.1136,0.251,0.2601,0.2652,0.2541,0.2626,0.2626,0.2611,0.2638,0.26,0.2548,0.2517,0.2485,0.2455,0.0,0.0,0.3147,0.319,0.4072,0.4645,0.4705,0.5099,0.5477,0.0,0.0,0.0,0.0,0.0,0.0,0.5743,0.0,0.6633,0.6454,0.6633,0.6812,0.6812,0.6094,0.5912,0.5912,0.7613,0.7695,0.5916,0.5734,0.5921,0.6111,0.6117,0.6117,0.6109,0.5867,0.5657,0.5649,0.5774,0.5749,0.5749,0.5749,0.5749,0.5739,0.5681,0.5657,0.5646,0.0,0.0,0.0,0.0,0.0,0.0,0.0,0.0,0.0,0.0,0.0,0.0,0.0,0.0,0.0,0.0,0.0,0.0,0.3877,0.4008,0.4128,0.4234,0.4311,0.4382,0.4442,0.4545,0.4318,0.3756,0.3658,0.325,0.2826,0.2528,0.2387,0.2401,0.2401,0.2414,0.2433,0.241,0.2406,0.2409,0.1625,0.0728,-0.0,-0.014,-0.1106,-0.2192,-0.2264,-0.1194,0.0,0.0,0.0,0.0,0.0,0.0,0.0,0.0,0.1191,0.2598,0.2646,0.2717,0.2619,0.2642,0.2641,0.2631,0.2616,0.2568,0.2511,0.2458,0.2423,0.2549,0.2839,0.0,0.0,0.3978,0.4367,0.0,0.5261,0.5466,0.0,0.5531,0.0,0.5559,0.5559,0.5438,0.0,0.0,0.6586,0.6273,0.6988,0.6988,0.7349,0.8071,0.7889,0.7889,0.7889,0.8521,0.8791,0.8139,0.6703,0.5981,0.6173,0.6033,0.603,0.6176,0.5973,0.594,0.5713,0.5699,0.5878,0.6061,0.5878,0.5848,0.5807,0.579,0.5758,0.5717,0.0,0.0,0.0,0.0,0.0,0.0,0.0,0.0,0.0,0.0,0.0,0.0,0.0,0.0,0.0,0.0,0.0,0.0,0.0,0.397,0.4065,0.4134,0.4194,0.4243,0.4278,0.4368,0.4141,0.3728,0.3499,0.3109,0.2844,0.2416,0.2282,0.2294,0.2294,0.2304,0.232,0.2316,0.2316,0.0,0.0,0.0711,0.0,0.0,-0.0959,-0.2176,-0.1472,-0.0674,0.0,0.0,0.0,0.0,0.0,0.0,0.0,0.0,0.0923,0.2203,0.2562,0.2609,0.2647,0.2647,0.2637,0.2616,0.2572,0.2517,0.2457,0.2397,0.2507,0.2632,0.2924,0.3265,0.3801,0.0,0.0,0.0,0.545,0.5496,0.5534,0.0,0.5621,0.0,0.5635,0.5491,0.6399,0.0,0.7506,0.6988,0.7167,0.7527,0.8067,0.8607,0.8607,0.8624,0.866,0.8936,0.9036,0.9128,0.7896,0.7366,0.7373,0.6461,0.6079,0.6049,0.0,0.5995,0.5959,0.5935,0.5924,0.6109,0.5924,0.5902,0.5872,0.5872,0.5834,0.5779,0.0,0.0,0.0,0.0,0.0,0.0,0.0,0.0,0.0,0.0,0.3403,0.0,0.0,0.0,0.0,0.0,0.0,0.0,0.0,0.0,0.4025,0.4025,0.4082,0.4115,0.4115,0.4174,0.4073,0.3677,0.3318,0.309,0.2721,0.2307,0.2184,0.221,0.221,0.2214,0.2222,0.2245,0.2244,0.223,0.155,0.0698,0.0,0.0,-0.0817,-0.1751,-0.0405,0.0,0.0,0.029,0.0144,0.0,0.0,0.015,0.0306,0.031,0.0947,0.1614,0.2471,0.2649,0.2647,0.2647,0.2619,0.2575,0.2521,0.2458,0.2394,0.2333,0.2584,0.2844,0.2988,0.3633,0.419,0.435,0.0,0.5256,0.545,0.5523,0.5583,0.5651,0.5709,0.5739,0.5733,0.5912,0.6809,0.8429,0.8607,0.8246,0.7345,0.8246,0.8607,0.8607,0.8607,0.8648,0.8549,0.8824,0.9107,0.902,0.9101,0.9146,0.896,0.7242,0.6288,0.6096,0.0,0.0,0.6022,0.6156,0.6134,0.6131,0.6131,0.6128,0.5935,0.5935,0.5897,0.5845,0.0,0.0,0.0,0.0,0.0,0.0,0.0,0.0,0.0,0.0,0.413,0.4079,0.0,0.0,0.0,0.0,0.0,0.0,0.0,0.0,0.0,0.3965,0.4019,0.4052,0.4052,0.4109,0.4142,0.4013,0.3463,0.3069,0.3075,0.2407,0.2018,0.2023,0.2023,0.205,0.2094,0.2074,0.2091,0.2133,0.147,0.0667,0.0,0.0,0.0,0.0,-0.0138,0.0,0.0141,0.163,0.1201,0.0,0.0,0.1097,0.2224,0.2251,0.228,0.2469,0.2645,0.2647,0.2647,0.2647,0.2587,0.2521,0.2485,0.2711,0.277,0.2697,0.2932,0.332,0.3596,0.3961,0.4231,0.4696,0.5016,0.521,0.5442,0.5523,0.56,0.0,0.5728,0.5733,0.5728,0.7167,0.0,0.0,0.0,0.8607,0.8429,0.8429,0.8607,0.8607,0.8607,0.8648,0.8549,0.864,0.8918,0.9011,0.9101,0.9146,0.9146,0.8763,0.7619,0.6098,0.0,0.0,0.6082,0.7024,0.6828,0.6068,0.6639,0.6606,0.5997,0.5997,0.5959,0.5907,0.0,0.0,0.0,0.0,0.0,0.0,0.0,0.4794,0.489,0.4897,0.4852,0.4793,0.4422,0.4265,0.4217,0.0,0.0,0.0,0.0,0.0,0.0,0.0,0.3913,0.3943,0.3943,0.4003,0.4019,0.3986,0.0,0.3191,0.3167,0.2659,0.2291,0.217,0.217,0.2067,0.1973,0.1989,0.2014,0.2045,0.1698,0.1186,0.0528,0.0,0.0,0.0,0.1102,0.0981,0.0712,0.1618,0.1506,0.1228,0.0781,0.1267,0.2081,0.2577,0.2602,0.2626,0.2626,0.2624,0.262,0.2605,0.2557,0.2497,0.2741,0.2807,0.2859,0.304,0.3275,0.367,0.3806,0.4055,0.449,0.4818,0.497,0.515,0.539,0.5474,0.5556,0.5673,0.5714,0.6091,0.7167,0.8067,0.0,0.0,0.0,0.8607,0.8607,0.8607,0.8607,0.8607,0.8607,0.8628,0.8668,0.862,0.8708,0.9123,0.9077,0.9142,0.9142,0.9142,0.8573,0.7619,0.7049,0.0,0.7242,0.7626,0.7433,0.6859,0.7242,0.7033,0.6438,0.6438,0.621,0.597,0.0,0.0,0.0,0.0,0.0,0.0,0.0,0.4904,0.512,0.5373,0.55,0.5342,0.5013,0.4702,0.4516,0.0,0.0,0.0,0.0,0.0,0.0,0.0,0.0,0.0,0.3839,0.0,0.0,0.3839,0.3587,0.0,0.0,0.0,0.0,0.0,0.2333,0.2221,0.1997,0.1934,0.196,0.0,0.0,0.1837,0.0,0.0,0.0,0.0,0.0,0.1812,0.1423,0.1446,0.1927,0.2284,0.1695,0.1568,0.1754,0.2398,0.2577,0.2597,0.2602,0.2598,0.2586,0.2557,0.2522,0.2626,0.2826,0.2897,0.3098,0.3242,0.3624,0.39,0.3887,0.4284,0.4591,0.476,0.4897,0.5066,0.5305,0.5401,0.5496,0.5627,0.6042,0.0,0.8429,0.8607,0.0,0.0,0.0,0.0,0.8607,0.8607,0.8607,0.8607,0.8607,0.8607,0.8607,0.8596,0.8684,0.9061,0.9056,0.9142,0.9142,0.9142,0.9142,0.8952,0.8189,0.0,0.0,0.8193,0.8003,0.7619,0.7809,0.7429,0.7052,0.6862,0.6639,0.6221,0.0,0.0,0.0,0.0,0.0,0.0,0.0,0.5156,0.5397,0.5358,0.553,0.5666,0.575,0.5448,0.505,0.0,0.0,0.0,0.0,0.0,0.0,0.0,0.0,0.0,0.0,0.0,0.0,0.3777,0.3371,0.0,0.0,0.0,0.0,0.0,0.0,0.2273,0.2193,0.1997,0.0,0.0,0.0,0.0,0.0,0.0,0.0,0.0,0.0,0.2203,0.2078,0.2133,0.2301,0.2312,0.2194,0.2275,0.2366,0.2552,0.2562,0.257,0.2596,0.2583,0.2556,0.2526,0.2785,0.286,0.2897,0.3264,0.3751,0.3727,0.4001,0.4292,0.4234,0.4327,0.4455,0.4578,0.4744,0.4937,0.5016,0.5311,0.5447,0.5616,0.7237,0.0,0.8599,0.8607,0.0,0.0,0.0,0.0,0.8607,0.8607,0.8607,0.8607,0.8607,0.8607,0.8607,0.8596,0.8684,0.9061,0.9056,0.9142,0.9142,0.9142,0.9142,0.9142,0.0,0.0,0.0,0.8379,0.7999,0.7619,0.8189,0.7999,0.7429,0.7052,0.6859,0.6663,0.0,0.0,0.0,0.0,0.0,0.0,0.4778,0.5104,0.5439,0.5677,0.5818,0.5814,0.5908,0.5762,0.5475,0.5181,0.0,0.0,0.0,0.0,0.0,0.0,0.0,0.0,0.0,0.0,0.3768,0.3768,0.3627,0.0,0.0,0.0,0.0,0.0,0.0,0.2365,0.2271,0.1981,0.0,0.0,0.0,0.0,0.0,0.0,0.0,0.0,0.0,0.0,0.2204,0.2228,0.2248,0.2266,0.2277,0.2313,0.2365,0.2431,0.2476,0.2507,0.2519,0.2527,0.2525,0.2806,0.2899,0.2972,0.3313,0.3634,0.3794,0.3929,0.4079,0.4234,0.4174,0.4289,0.4295,0.4411,0.4985,0.5313,0.5057,0.5055,0.5691,0.7003,0.8019,0.0,0.0,0.0,0.0,0.0,0.0,0.0,0.8865,0.8685,0.866,0.8611,0.8656,0.866,0.8607,0.8783,0.9057,0.9061,0.9056,0.9142,0.9142,0.9142,0.9142,0.9142,0.0,0.0,0.0,0.8763,0.8763,0.8573,0.8763,0.8569,0.7999,0.7809,0.7619,0.7242,0.0,0.0,0.0,0.0,0.0,0.4793,0.483,0.5128,0.5435,0.5771,0.5789,0.5898,0.5867,0.5876,0.5839,0.5506,0.5208,0.0,0.0,0.0,0.0,0.0,0.0,0.0,0.0,0.0,0.3861,0.3744,0.376,0.3768,0.0,0.0,0.358,0.3332,0.0,0.0,0.0,0.0,0.0,0.0,0.0,0.0,0.0,0.0,0.0,0.0,0.0,0.0,0.0,0.0,0.0,0.2203,0.2195,0.2204,0.2377,0.2326,0.2388,0.2431,0.2593,0.2619,0.279,0.3064,0.3154,0.3376,0.372,0.387,0.4006,0.415,0.4174,0.4196,0.4136,0.4256,0.4266,0.4241,0.5355,0.6106,0.5736,0.5765,0.6249,0.7877,0.0,0.8444,0.0,0.0,0.0,0.0,0.0,0.0,0.0,0.8799,0.8762,0.8648,0.8701,0.8513,0.8607,0.8758,0.9028,0.9061,0.9032,0.9118,0.9142,0.9142,0.9142,0.9142,0.0,0.0,0.0,0.9105,0.9085,0.9065,0.9093,0.8912,0.8534,0.8368,0.8189,0.7809,0.0,0.0,0.0,0.0,0.0,0.0,0.4838,0.5128,0.5389,0.5373,0.5652,0.592,0.5893,0.5902,0.5864,0.589,0.5764,0.0,0.0,0.0,0.0,0.0,0.0,0.0,0.0,0.0,0.3911,0.3679,0.3739,0.3768,0.3768,0.3768,0.3736,0.3679,0.0,0.0,0.0,0.0,0.0,0.0,0.0,0.0,0.0,0.0,0.0,0.0,0.0,0.0,0.0,0.0,0.0,0.0,0.0,0.2371,0.2582,0.2407,0.2312,0.2341,0.2817,0.3002,0.3023,0.3433,0.3682,0.3909,0.381,0.4121,0.4406,0.415,0.4044,0.4065,0.4136,0.4221,0.4341,0.4316,0.5806,0.7135,0.7494,0.755,0.7601,0.8032,0.0,0.8197,0.864,0.0,0.0,0.0,0.0,0.0,0.0,0.9144,0.9107,0.8923,0.8734,0.8513,0.8607,0.8693,0.8783,0.9057,0.8967,0.9056,0.9142,0.9142,0.9142,0.0,0.0,0.0,0.0,0.9007,0.8954,0.8881,0.8975,0.9007,0.902,0.8538,0.8379,0.8379,0.0,0.0,0.0,0.0,0.0,0.0,0.0,0.4861,0.5098,0.5361,0.548,0.5586,0.5558,0.5745,0.5864,0.589,0.576,0.0,0.0,0.0,0.0,0.0,0.0,0.0,0.0,0.0,0.4044,0.4085,0.392,0.3853,0.3891,0.385,0.382,0.3801,0.3406,0.3272,0.0,0.0,0.0,0.0,0.0,0.0,0.0,0.0,0.0,0.0,0.0,0.0,0.0,0.0,0.0,0.0,0.0,0.0,0.0,0.266,0.2769,0.3025,0.3038,0.307,0.3091,0.3488,0.3703,0.3762,0.4245,0.4372,0.4368,0.4201,0.4076,0.4351,0.554,0.5762,0.5774,0.5848,0.6421,0.7031,0.7117,0.7405,0.7625,0.8036,0.8319,0.8395,0.0,0.0,0.0,0.0,0.0,0.0,0.0,0.8991,0.8926,0.8923,0.8795,0.8573,0.8607,0.8693,0.8932,0.9334,0.9119,0.9211,0.9428,0.9303,0.0,0.0,0.0,0.0,0.0,0.8942,0.8897,0.8873,0.8901,0.8913,0.8926,0.8828,0.886,0.8868,0.0,0.0,0.0,0.0,0.0,0.0,0.0,0.4818,0.4935,0.5372,0.5386,0.5378,0.535,0.5558,0.5708,0.5886,0.5793,0.0,0.0,0.0,0.0,0.0,0.0,0.0,0.0,0.4832,0.4441,0.4035,0.4004,0.3932,0.3948,0.3932,0.3902,0.3858,0.3582,0.3564,0.0,0.0,0.0,0.0,0.0,0.0,0.3007,0.0,0.0,0.0,0.0,0.0,0.0,0.0,0.0,0.0,0.0,0.0,0.0,0.0,0.3316,0.3588,0.3207,0.3117,0.3295,0.3817,0.4021,0.4075,0.4557,0.4409,0.4287,0.4791,0.4787,0.4936,0.6046,0.6394,0.6544,0.6541,0.6843,0.7027,0.7125,0.7401,0.0,0.7974,0.0,0.0,0.0,0.0,0.0,0.0,0.0,0.0,0.0,0.9028,0.9123,0.9156,0.8807,0.875,0.8786,0.902,0.9247,0.983,0.9622,0.9529,0.9755,0.9479,0.0,0.0,0.0,0.0,0.0,0.8893,0.8832,0.8775,0.8807,0.882,0.8832,0.8922,0.8954,0.8967,0.0,0.0,0.0,0.0,0.0,0.0,0.0,0.4878,0.4994,0.5426,0.5482,0.5402,0.5374,0.535,0.5526,0.5881,0.0,0.0,0.0,0.0,0.0,0.0,0.0,0.0,0.0,0.5377,0.4868,0.3973,0.3976,0.4006,0.3951,0.3883,0.3852,0.3872,0.3869,0.3867,0.0,0.0,0.0,0.0,0.0,0.0,0.0,0.0,0.0,0.0,0.0,0.0,0.0,0.0,0.0,0.0,0.0,0.0,0.0,0.0,0.0,0.0,0.0,0.3279,0.3614,0.4255,0.4606,0.4675,0.4613,0.4371,0.0,0.5667,0.5922,0.5954,0.5913,0.6264,0.6552,0.6549,0.6811,0.714,0.7502,0.7719,0.0,0.0,0.8577,0.0,0.0,0.0,0.0,0.0,0.0,0.0,0.0,0.9048,0.9326,0.96,0.9135,0.9045,0.9322,0.9317,0.9724,1.0183,1.0283,1.0198,0.9746,0.9843,0.0,0.0,0.0,0.0,0.0,0.8864,0.8762,0.8615,0.8693,0.8726,0.8738,0.8828,0.886,0.8873,0.0,0.0,0.0,0.0,0.0,0.0,0.0,0.0,0.0,0.0,0.6074,0.5859,0.5506,0.543,0.5526,0.0,0.0,0.0,0.0,0.0,0.0,0.0,0.0,0.0,0.0,0.555,0.5399,0.5178,0.4847,0.4407,0.4014,0.3902,0.3894,0.3867,0.3948,0.3929,0.0,0.0,0.0,0.0,0.0,0.0,0.0,0.0,0.0,0.0,0.3702,0.3712,0.0,0.0,0.0,0.0,0.0,0.0,0.0,0.0,0.3761,0.3933,0.3835,0.0,0.4076,0.4324,0.4274,0.4095,0.0,0.4774,0.5575,0.5826,0.5882,0.5954,0.591,0.6181,0.6509,0.6497,0.6805,0.7154,0.7444,0.9225,0.0,1.073,1.0693,0.0,0.0,0.0,0.0,0.0,0.0,0.0,0.0,0.9879,0.9963,1.0049,0.9761,0.9697,0.9852,0.9852,1.0045,1.0605,1.0354,1.0461,1.0747,1.0487,0.0,0.0,0.0,0.0,0.8864,0.8795,0.8705,0.8611,0.8632,0.8636,0.8648,0.8734,0.8766,0.8779,0.0,0.0,0.0,0.0,0.0,0.0,0.0,0.0,0.0,0.0,0.0,0.6598,0.626,0.5767,0.0,0.0,0.0,0.0,0.0,0.0,0.0,0.0,0.0,0.5529,0.5569,0.5708,0.5682,0.5722,0.5526,0.495,0.4159,0.4063,0.406,0.3904,0.3852,0.3951,0.0,0.0,0.0,0.0,0.391,0.0,0.0,0.0,0.0,0.0,0.3899,0.391,0.0,0.3943,0.3951,0.3951,0.0,0.0,0.0,0.0,0.3846,0.3873,0.3902,0.397,0.4161,0.4134,0.397,0.4065,0.4671,0.5357,0.5929,0.5846,0.5894,0.5978,0.6141,0.6285,0.6602,0.6729,0.6949,0.7672,0.9167,0.0,1.1334,1.1519,1.1478,0.0,0.0,0.0,0.0,0.0,0.0,0.0,0.0,1.0142,1.0427,1.0554,1.0446,1.0387,1.0387,1.0387,1.0565,1.1099,1.086,1.0942,1.1003,1.0796,0.0,0.0,0.0,0.0,0.9232,0.8771,0.8685,0.8607,0.8607,0.8607,0.8611,0.866,0.8677,0.8689,0.0,0.0,0.0,0.0,0.0,0.0,0.0,0.0,0.0,0.0,0.0,0.0,0.0,0.0,0.0,0.0,0.0,0.0,0.0,0.0,0.0,0.0,0.0,0.5565,0.5877,0.5868,0.5839,0.5916,0.5847,0.5507,0.4677,0.4613,0.4345,0.3894,0.3846,0.3951,0.0,0.0,0.0,0.0,0.385,0.0,0.0,0.0,0.0,0.0,0.0,0.0,0.0,0.3916,0.3937,0.3937,0.3948,0.0,0.0,0.0,0.0,0.0,0.4145,0.4251,0.4333,0.4271,0.4251,0.4622,0.5709,0.589,0.5854,0.593,0.5966,0.6058,0.6431,0.657,0.6737,0.7447,0.7907,0.8897,1.1186,1.1317,1.1172,1.1467,0.0,0.0,0.0,0.0,0.0,0.0,0.0,0.0,0.0,1.0417,1.0544,1.1066,1.0794,1.0743,1.0743,1.0743,1.1099,1.1455,1.1558,1.1437,1.1102,1.1105,1.1016,0.0,0.0,0.0,0.9578,0.8948,0.8685,0.8607,0.8607,0.8607,0.8607,0.8607,0.8607,0.8619,0.0,0.0,0.0,0.0,0.0,0.0,0.0,0.0,0.0,0.0,0.0,0.0,0.0,0.0,0.0,0.0,0.0,0.0,0.0,0.0,0.0,0.5618,0.5428,0.551,0.5881,0.5931,0.5904,0.5916,0.5847,0.6054,0.617,0.6186,0.5336,0.3956,0.3948,0.3948,0.3948,0.0,0.0,0.0,0.0,0.0,0.0,0.0,0.0,0.0,0.0,0.0,0.0,0.3853,0.3875,0.3883,0.3935,0.0,0.0,0.0,0.0,0.0,0.5272,0.5801,0.6043,0.6086,0.6062,0.6058,0.5913,0.5894,0.5886,0.5898,0.6153,0.6427,0.6545,0.6766,0.7606,0.0,0.0,1.0645,0.0,0.0,1.1472,0.0,0.0,0.0,0.0,0.0,0.0,0.0,0.0,0.0,0.0,0.0,1.1411,1.1487,1.1465,1.1455,1.1455,1.1455,1.1455,1.1455,1.1476,1.1536,1.1453,1.1491,1.1383,0.0,0.0,1.0311,0.949,0.9472,0.905,0.8607,0.8607,0.8607,0.8607,0.8607,0.8607,0.8611,0.0,0.0,0.0,0.0,0.0,0.0,0.0,0.0,0.0,0.0,0.0,0.0,0.0,0.0,0.0,0.0,0.0,0.0,0.0,0.0,0.6262,0.6262,0.6217,0.6077,0.5958,0.5851,0.5916,0.5916,0.5926,0.6117,0.6502,0.6248,0.5796,0.4933,0.4192,0.3946,0.3943,0.3883,0.0,0.0,0.0,0.0,0.0,0.0,0.0,0.0,0.0,0.0,0.0,0.0,0.3807,0.3931,0.3959,0.0,0.0,0.0,0.0,0.0,0.5693,0.6223,0.66,0.666,0.6677,0.6406,0.6273,0.6233,0.6209,0.6257,0.6373,0.6643,0.6923,0.0,0.9482,1.0759,0.0,0.0,0.0,0.0,0.0,0.0,0.0,0.0,0.0,0.0,0.0,0.0,0.0,0.0,0.0,0.0,1.1514,1.1455,1.1455,1.1455,1.1455,1.1455,1.1455,1.1455,1.1455,1.1482,1.1542,1.1607,1.1485,1.1357,0.0,1.078,1.0187,0.959,0.9182,0.8964,0.8786,0.8607,0.8607,0.8607,0.8607,0.8607,0.0,0.0,0.0,0.0,0.0,0.0,0.0,0.0,0.0,0.0,0.0,0.0,0.0,0.0,0.0,0.0,0.0,0.0,0.0,0.0,0.6779,0.6899,0.6899,0.6649,0.5902,0.5867,0.5916,0.5916,0.5882,0.6055,0.6311,0.6055,0.5882,0.5802,0.481,0.4315,0.4309,0.4349,0.4163,0.0,0.0,0.0,0.0,0.0,0.0,0.0,0.0,0.0,0.0,0.0,0.0,0.0,0.0,0.0,0.0,0.5522,0.5786,0.5843,0.5859,0.6133,0.6527,0.6855,0.676,0.6627,0.6647,0.6598,0.6574,0.6664,0.7038,0.7442,0.8052,0.9455,0.0,1.1014,1.0992,0.0,0.0,0.0,0.0,0.0,0.0,0.0,0.0,0.0,0.0,0.0,0.0,0.0,0.0,0.0,1.1455,1.1455,1.1455,1.1455,1.1455,1.1455,1.1455,1.1455,1.1455,1.1455,1.146,1.1552,1.1596,1.1596,1.1236,1.1056,1.0865,0.9885,0.9496,0.9322,0.8964,0.8607,0.8607,0.8607,0.8607,0.8607,0.0,0.0,0.0,0.0,0.0,0.0,0.0,0.0,0.0,0.0,0.0,0.0,0.0,0.0,0.0,0.0,0.0,0.0,0.0,0.0,0.6888,0.6888,0.7138,0.6719,0.5893,0.5859,0.5912,0.5916,0.5882,0.5926,0.5926,0.5926,0.5882,0.5916,0.5794,0.5798,0.5794,0.5499,0.5424,0.5284,0.0,0.0,0.0,0.0,0.0,0.0,0.0,0.0,0.0,0.0,0.0,0.0,0.0,0.0,0.5314,0.5395,0.5658,0.5839,0.5851,0.6177,0.6623,0.6949,0.7,0.7021,0.696,0.6973,0.6994,0.6933,0.0,0.0,0.0,1.0291,1.0738,1.0898,1.1196,0.0,0.0,0.0,0.0,0.0,0.0,0.0,0.0,0.0,0.0,0.0,0.0,0.0,0.0,0.0,0.0,1.1455,1.1455,1.1455,1.1455,1.1455,1.1455,1.1455,1.1455,1.1455,1.1455,1.1465,1.1465,1.1465,1.1465,1.1109,1.0753,1.057,1.003,0.9322,0.9322,0.8964,0.8607,0.8607,0.8607,0.8607,0.0,0.0,0.0,0.0,0.0,0.0,0.0,0.0,0.0,0.0,0.0,0.0,0.0,0.0,0.0,0.0,0.0,0.0,0.0,0.698,0.7069,0.7261,0.751,0.7362,0.6831,0.6259,0.6031,0.6285,0.6073,0.5846,0.5846,0.5846,0.5798,0.571,0.571,0.5682,0.5741,0.5618,0.5561,0.5434,0.5431,0.0,0.0,0.0,0.0,0.0,0.0,0.0,0.0,0.0,0.5431,0.5439,0.5358,0.537,0.5398,0.5416,0.5696,0.5889,0.5835,0.6177,0.6627,0.6949,0.6981,0.0,0.0,0.7101,0.734,0.7373,0.9041,0.0,0.0,0.0,1.0409,1.0938,0.0,0.0,0.0,0.0,0.0,0.0,0.0,0.0,0.0,0.0,0.0,0.0,0.0,0.0,0.0,0.0,0.0,1.1455,1.1455,1.1455,1.1455,1.1455,1.1455,1.1455,1.1455,1.1455,1.1455,1.1455,1.1455,1.1455,1.1455,1.1455,1.1099,1.0921,1.0565,1.003,0.9496,0.8964,0.8607,0.8607,0.8607,0.8607,0.0,0.0,0.0,0.0,0.0,0.0,0.0,0.0,0.0,0.0,0.0,0.0,0.0,0.0,0.0,0.0,0.0,0.0,0.7111,0.7256,0.737,0.7453,0.7728,0.775,0.7505,0.6766,0.6526,0.6653,0.6285,0.6023,0.5876,0.5876,0.5823,0.5618,0.5618,0.5582,0.5639,0.5545,0.5508,0.5386,0.5414,0.5382,0.0,0.0,0.0,0.0,0.0,0.0,0.0,0.0,0.5382,0.5382,0.5377,0.5398,0.5451,0.5362,0.568,0.5923,0.5874,0.6481,0.722,0.7589,0.7724,0.78,0.784,0.8103,0.8375,0.8434,0.9677,1.0655,1.0694,0.0,0.0,0.0,0.0,0.0,0.0,0.0,0.0,0.0,0.0,0.0,0.0,0.0,0.0,0.0,0.0,0.0,0.0,0.0,0.0,0.0,1.1455,1.1455,1.1455,1.1455,1.1455,1.1455,1.1455,1.1455,1.1455,1.1455,1.1455,1.1455,1.1455,1.1455,1.1455,1.1099,1.0921,1.0565,0.9674,0.9143,0.8786,0.8607,0.8607,0.8607,0.0,0.0,0.0,0.0,0.0,0.0,0.0,0.0,0.0,0.0,0.0,0.0,0.0,0.0,0.0,0.0,0.0,0.0,0.7334,0.7562,0.7698,0.7698,0.7807,0.7867,0.7872,0.7627,0.7266,0.6903,0.6526,0.6233,0.5782,0.5782,0.5733,0.5643,0.5643,0.5643,0.5635,0.5545,0.5504,0.5386,0.5414,0.5382,0.0,0.0,0.0,0.0,0.0,0.0,0.0,0.0,0.5382,0.5382,0.5373,0.5435,0.541,0.5373,0.5642,0.5965,0.5972,0.725,0.8735,0.9242,0.9292,0.9418,0.9853,1.0047,1.0117,1.0667,1.0556,1.0589,1.0541,1.0759,0.0,0.0,0.0,0.0,0.0,0.0,0.0,0.0,0.0,0.0,0.0,0.0,0.0,0.0,0.0,0.0,0.0,0.0,0.0,0.0,1.1455,1.1455,1.1455,1.1455,1.1455,1.1455,1.1455,1.1455,1.1455,1.1455,1.1455,1.1455,1.1455,1.1455,1.1455,1.1455,1.1099,1.0565,0.9674,0.9322,0.9322,0.8786,0.8607,0.8607,0.0,0.0,0.0,0.0,0.0,0.0,0.0,0.0,0.0,0.0,0.0,0.0,0.0,0.0,0.0,0.0,0.0,0.0,0.7328,0.7404,0.7481,0.7568,0.7606,0.7665,0.7747,0.7707,0.751,0.6903,0.6526,0.639,0.6237,0.5931,0.5733,0.5639,0.5578,0.5516,0.5455,0.5431,0.5418,0.5418,0.5394,0.5382,0.0,0.0,0.0,0.0,0.0,0.0,0.0,0.0,0.0,0.0,0.5373,0.6003,0.6809,0.7482,0.7527,0.7361,0.7767,0.8449,0.9131,0.9205,0.9553,0.9869,1.0396,1.0506,1.0449,0.0,1.0704,1.0775,1.0808,0.0,0.0,0.0,0.0,0.0,0.0,0.0,0.0,0.0,0.0,0.0,0.0,0.0,0.0,0.0,0.0,0.0,0.0,0.0,0.0,0.0,1.1632,1.1632,1.1988,1.1632,1.1455,1.1455,1.1455,1.1455,1.1455,1.1455,1.1455,1.1455,1.1455,1.1455,1.1455,1.1455,1.1099,1.0743,1.0387,1.003,0.9674,0.9317,0.9143,0.8964,0.0,0.0,0.0,0.0,0.0,0.0,0.0,0.0,0.0,0.0,0.0,0.0,0.0,0.0,0.0,0.0,0.0,0.0,0.0,0.7307,0.7366,0.7442,0.754,0.7649,0.7769,0.7834,0.775,0.7266,0.7016,0.6729,0.6529,0.6111,0.5777,0.5652,0.5484,0.5431,0.5382,0.5493,0.5579,0.5545,0.5656,0.5634,0.5582,0.0,0.0,0.0,0.0,0.0,0.0,0.0,0.0,0.0,0.6322,0.6863,0.758,0.8193,0.8436,0.8331,0.8762,0.9054,0.9336,0.9601,1.052,1.1306,1.151,1.1151,1.0887,0.0,1.1075,1.1334,1.1334,1.1836,0.0,0.0,0.0,0.0,0.0,0.0,0.0,0.0,0.0,0.0,0.0,0.0,0.0,0.0,0.0,0.0,0.0,0.0,0.0,0.0,1.2165,1.2165,1.252,1.1988,1.181,1.181,1.1632,1.1455,1.1455,1.1455,1.1455,1.1455,1.1455,1.1455,1.1455,1.1455,1.1277,1.0921,1.0743,1.0565,1.0209,0.9674,0.9496,0.95,0.0,0.0,0.0,0.0,0.0,0.0,0.0,0.0,0.0,0.0,0.0,0.0,0.0,0.0,0.0,0.0,0.0,0.0,0.0,0.0,0.7317,0.7317,0.7546,0.772,0.7818,0.7834,0.7839,0.7839,0.7495,0.7155,0.6593,0.6354,0.6014,0.5833,0.5596,0.5481,0.5481,0.5691,0.5744,0.566,0.599,0.6041,0.5941,0.5836,0.0,0.0,0.0,0.0,0.0,0.0,0.0,0.0,0.7777,0.7899,0.7925,0.8187,0.8529,0.8904,0.9291,0.9428,0.9584,1.0389,1.1912,1.3318,1.2836,1.1944,1.1278,1.1108,0.0,1.1807,1.1807,0.0,0.0,0.0,0.0,0.0,0.0,0.0,0.0,0.0,0.0,0.0,0.0,0.0,0.0,0.0,0.0,0.0,0.0,0.0,0.0,0.0,1.2875,1.2875,1.2875,1.252,1.2165,0.0,1.1632,1.1449,1.1438,1.1449,1.1455,1.1455,1.1455,1.1455,1.1455,1.1455,1.1455,1.1455,1.0921,1.0743,1.0743,1.0209,1.003,1.003,0.0,0.0,0.0,0.0,0.0,0.0,0.0,0.0,0.0,0.0,0.0,0.0,0.0,0.0,0.0,0.0,0.0,0.0,0.0,0.7182,0.7192,0.7192,0.7334,0.7426,0.7448,0.7546,0.7595,0.7595,0.7422,0.7317,0.706,0.6622,0.6397,0.627,0.6001,0.5932,0.5927,0.5952,0.5901,0.5882,0.5882,0.5974,0.5941,0.5836,0.586,0.0,0.0,0.0,0.0,0.0,0.0,0.0,0.7533,0.7772,0.7943,0.829,0.8597,0.8921,0.9254,1.0,1.0915,1.1305,1.2359,1.3329,1.2772,1.2621,1.2429,1.2252,1.236,1.2457,1.2457,0.0,0.0,0.0,0.0,0.0,0.0,0.0,0.0,0.0,0.0,0.0,0.0,0.0,0.0,0.0,0.0,0.0,0.0,0.0,0.0,1.3413,1.3053,1.3053,1.3413,1.2698,1.2165,0.0,1.1632,1.1406,1.1313,1.1411,1.1455,1.1455,1.1455,1.1455,1.1455,1.1455,1.1455,1.1455,1.1455,1.1277,1.1277,1.0743,1.0565,1.0565,0.0,0.0,0.0,0.0,0.0,0.0,0.0,0.0,0.0,0.0,0.0,0.0,0.0,0.0,0.0,0.0,0.0,0.0,0.0,0.0,0.7122,0.7236,0.7301,0.7366,0.7421,0.7486,0.7519,0.7519,0.7406,0.7406,0.7285,0.6879,0.665,0.6487,0.616,0.6084,0.6036,0.6085,0.6137,0.6088,0.6192,0.6157,0.6102,0.6149,0.6231,0.6378,0.659,0.0,0.0,0.0,0.0,0.0,0.0,0.0,0.8195,0.8641,0.8957,0.9128,0.9579,1.0372,1.1202,1.2082,1.2651,1.3098,1.2997,1.3128,1.3252,1.3139,1.3153,1.3104,1.3035,0.0,0.0,0.0,0.0,0.0,0.0,0.0,0.0,0.0,0.0,0.0,0.0,0.0,0.0,0.0,0.0,0.0,0.0,1.3591,1.3768,1.3945,1.3768,1.3768,1.3945,1.323,1.2698,1.252,1.1925,1.1483,1.1194,1.1313,1.1368,1.1373,1.1427,1.1455,1.1455,1.1455,1.1455,1.1449,1.1389,1.1368,1.1368,1.1015,1.1015,1.102,0.0,0.0,0.0,0.0,0.0,0.0,0.0,0.0,0.0,0.0,0.0,0.0,0.0,0.0,0.0,0.0,0.0,0.0,0.0,0.0,0.0,0.7269,0.7296,0.735,0.7453,0.7453,0.7453,0.7453,0.7453,0.7404,0.7307,0.7101,0.6873,0.6542,0.631,0.6134,0.6032,0.6333,0.6375,0.6287,0.6487,0.654,0.6469,0.6469,0.0,0.6834,0.694,0.7083,0.7376,0.7721,0.0,0.0,0.0,0.0,0.8313,0.9038,0.9257,0.9303,0.9974,1.0426,1.12,1.2675,1.301,1.2899,1.3385,1.3607,1.3661,1.3783,1.3674,1.365,0.0,0.0,0.0,0.0,0.0,0.0,0.0,0.0,0.0,0.0,0.0,0.0,0.0,0.0,0.0,0.0,0.0,0.0,1.4217,1.4217,1.4217,1.4217,1.4217,1.4217,1.4217,1.3689,1.3337,1.2802,1.2144,1.1507,1.1074,1.1188,1.1253,1.1281,1.14,1.1455,1.1455,1.1455,1.1455,1.1444,1.1319,1.127,1.127,1.127,1.127,1.1291,0.0,0.0,0.0,0.0,0.0,0.0,0.0,0.0,0.0,0.0,0.0,0.0,0.0,0.0,0.0,0.0,0.0,0.0,0.724,0.0,0.0,0.7029,0.7127,0.7187,0.7203,0.7203,0.7203,0.7203,0.7203,0.7192,0.0,0.0,0.7097,0.698,0.6765,0.6653,0.6535,0.6428,0.6374,0.6364,0.6458,0.6513,0.6594,0.0,0.0,0.0,0.0,0.7374,0.7604,0.7826,0.7937,0.0,0.0,0.0,0.8389,0.8812,0.9052,0.9438,0.9973,1.0925,1.1908,1.2874,1.3085,1.3241,1.3397,1.3532,1.3634,0.0,1.3619,1.372,0.0,0.0,0.0,0.0,0.0,0.0,0.0,0.0,0.0,0.0,0.0,0.0,0.0,0.0,0.0,0.0,0.0,0.0,1.3905,1.3905,1.3905,1.3905,1.3905,1.3905,1.3905,1.3382,1.3038,1.2521,1.1533,1.096,1.0949,1.1069,1.1177,1.1281,1.14,1.1455,1.1455,1.1455,1.1455,1.1444,1.1319,1.127,1.127,1.127,1.127,1.1291,0.0,0.0,0.0,0.0,0.0,0.0,0.0,0.0,0.0,0.0,0.0,0.0,0.0,0.0,0.0,0.8031,0.7827,0.766,0.7315,0.7346,0.731,0.731,0.7425,0.746,0.739,0.7454,0.746,0.739,0.7351,0.0,0.0,0.7287,0.7111,0.0,0.0,0.6698,0.6513,0.6458,0.6437,0.6442,0.6513,0.6675,0.6838,0.0,0.0,0.0,0.0,0.0,0.0,0.0,0.8263,0.8288,0.8652,0.0,0.0,0.0,0.9347,0.9755,1.0554,1.1325,1.2172,1.263,1.2942,1.3193,1.3254,1.339,1.3498,1.3498,1.3553,0.0,0.0,0.0,0.0,0.0,0.0,0.0,0.0,0.0,0.0,0.0,0.0,0.0,0.0,0.0,0.0,0.0,0.0,1.3838,1.3838,1.3838,1.3838,1.3838,1.3838,1.3838,1.3838,1.3666,1.3114,1.2356,1.1623,1.1053,1.0824,1.1014,1.1128,1.1188,1.1373,1.1455,1.1455,1.1455,1.1455,1.1444,1.1319,1.127,1.127,1.127,1.127,1.1291,0.0,0.0,0.0,0.0,0.0,0.0,0.0,0.0,0.0,0.0,0.0,0.0,0.0,0.0,0.0,0.0,0.7753,0.7496,0.7434,0.7467,0.7559,0.7596,0.7724,0.7748,0.7651,0.7742,0.7742,0.7651,0.0,0.0,0.7522,0.7396,0.7231,0.0,0.6923,0.6681,0.0,0.0,0.0,0.0,0.0,0.0,0.0,0.0,0.0,0.0,0.0,0.0,0.0,0.0,0.0,0.0,0.0,0.0,0.0,0.0,0.0,0.9969,1.1009,1.1545,1.1979,1.2352,1.2725,1.303,1.3146,1.3261,1.3356,0.0,1.3403,0.0,0.0,0.0,0.0,0.0,0.0,0.0,0.0,0.0,0.0,0.0,0.0,0.0,0.0,0.0,0.0,0.0,0.0,1.3729,1.3729,1.3729,1.3729,1.3729,1.3729,1.3729,1.3729,1.3559,1.3167,1.239,1.1885,1.1328,1.0909,1.096,1.1074,1.1118,1.1351,1.1455,1.1455,1.1455,1.1455,1.1444,1.1319,1.127,1.127,1.127,1.127,1.1291,0.0,0.0,0.0,0.0,0.0,0.0,0.0,0.0,0.0,0.0,0.0,0.0,0.0,0.7916,0.7821,0.7821,0.7699,0.759,0.744,0.7285,0.7315,0.7449,0.7583,0.0,0.7651,0.7657,0.7657,0.7651,0.0,0.0,0.7732,0.7738,0.7846,0.7828,0.7063,0.673,0.6611,0.0,0.0,0.0,0.0,0.0,0.0,0.0,0.0,0.0,0.0,0.0,0.0,0.0,0.0,0.0,0.0,0.0,0.0,0.0,0.0,0.0,1.0629,1.1084,1.1565,1.2155,1.242,1.2651,1.3078,1.318,1.3227,1.337,1.3403,0.0,0.0,0.0,0.0,0.0,0.0,0.0,0.0,0.0,0.0,0.0,0.0,0.0,0.0,0.0,0.0,0.0,0.0,1.3424,1.3424,1.3424,1.3424,1.3424,1.3424,1.3424,1.3424,1.2925,1.2752,1.2746,1.1748,1.1409,1.1409,1.1042,1.0992,1.1118,1.1351,1.1455,1.1455,1.1455,1.1455,1.1444,1.1319,1.127,1.127,1.127,1.127,1.1291,0.0,0.0,0.0,0.0,0.0,0.0,0.0,0.0,0.0,0.0,0.0,0.0,0.0,0.7902,0.7814,0.7814,0.7678,0.7624,0.7482,0.7524,0.7622,0.7674,0.7909,0.7994,0.7896,0.7988,0.7994,0.0,0.0,0.7742,0.7792,0.7675,0.7718,0.7718,0.7541,0.7381,0.7264,0.7473,0.0,0.0,0.0,0.0,0.0,0.0,0.0,0.0,0.0,0.0,0.0,0.0,0.0,0.0,0.0,0.0,0.0,0.0,0.9442,0.9842,1.0447,1.0955,1.1621,1.218,1.2705,1.292,1.3134,1.3137,1.3283,1.3207,1.3254,0.0,0.0,0.0,0.0,0.0,0.0,0.0,0.0,0.0,0.0,0.0,0.0,0.0,0.0,0.0,0.0,0.0,0.0,0.0,1.3403,1.3403,1.3403,1.3403,1.3403,1.3403,1.3403,1.3231,1.3065,1.2733,1.2069,1.1736,1.1409,1.1031,1.0944,1.0992,1.1156,1.1313,1.1455,1.1455,1.1455,1.1449,1.1406,1.1389,1.1389,1.1389,1.1389,1.1395,0.0,0.0,0.0,0.0,0.0,0.0,0.0,0.0,0.0,0.0,0.0,0.0,0.0,0.0,0.7773,0.7672,0.7529,0.7468,0.7516,0.7658,0.776,0.7807,0.8058,0.8147,0.8038,0.814,0.814,0.8038,0.7932,0.7903,0.7955,0.7852,0.7811,0.7861,0.8056,0.7943,0.0,0.0,0.0,0.8018,0.0,0.0,0.9175,0.0,0.0,0.0,0.0,0.0,0.0,0.0,0.0,0.0,0.0,0.0,0.0,0.0,0.0,0.9863,1.0357,1.0854,1.1527,1.2035,1.2499,1.2956,1.3036,1.3281,1.3526,1.3521,1.3626,0.0,0.0,0.0,0.0,0.0,0.0,0.0,0.0,0.0,0.0,0.0,0.0,0.0,0.0,0.0,0.0,0.0,0.0,0.0,1.3403,1.3403,1.3403,1.3403,1.3403,1.3403,1.3403,1.3403,1.3231,1.2899,1.2567,1.2069,1.1576,1.116,1.1047,1.0922,1.1003,1.1177,1.1395,1.1395,1.1417,1.1455,1.1455,1.1455,1.1455,1.1455,1.1455,1.1455,0.0,0.0,0.0,0.0,0.0,0.0,0.0,0.0,0.0,0.8616,0.0,0.0,0.0,0.0,0.0,0.7485,0.7231,0.721,0.7444,0.7509,0.7658,0.7801,0.795,0.8031,0.8038,0.8038,0.8038,0.8038,0.8031,0.8106,0.8255,0.8255,0.833,0.8465,0.8465,0.8157,0.7644,0.0,0.8233,0.851,0.0,0.9564,0.9842,0.0,0.0,0.0,1.1195,1.1217,0.0,0.0,0.0,0.0,0.0,0.0,0.0,0.0,0.0,0.0,0.0,0.0,0.0,1.1635,1.2127,1.2477,1.3118,1.3483,1.3811,1.4147,1.4348,0.0,0.0,0.0,0.0,0.0,0.0,0.0,0.0,0.0,0.0,0.0,0.0,0.0,0.0,0.0,0.0,0.0,0.0,1.339,1.339,1.339,1.339,1.339,1.339,1.339,1.339,1.339,1.339,1.339,1.2893,1.2561,1.2063,1.157,1.1137,1.0916,1.0916,1.1047,1.1264,1.127,1.134,1.1449,1.1455,1.1455,1.1455,1.1455,1.1455,1.1455,0.0,0.0,0.0,0.0,0.0,0.0,0.8616,0.8721,0.881,0.0,0.0,0.0,0.0,0.0,0.827,0.7949,0.7884,0.7818,0.7745,0.7709,0.7773,0.7834,0.789,0.7923,0.8038,0.8038,0.8038,0.8038,0.7929,0.7993,0.8245,0.8245,0.8357,0.8598,0.8714,0.8729,0.8646,0.8554,0.0,0.0,0.9613,1.0081,0.0,0.0,0.0,0.0,0.0,1.1888,0.0,0.0,1.124,1.0808,0.0,0.0,0.0,0.0,0.0,0.0,1.0349,0.0,0.0,0.0,0.0,0.0,1.3036,1.3169,1.3481,1.3759,1.3916,1.4027,0.0,0.0,0.0,0.0,0.0,0.0,0.0,0.0,0.0,0.0,0.0,0.0,0.0,0.0,0.0,0.0,1.3556,1.3401,1.3085,1.3085,1.3085,1.3085,1.3085,1.3085,1.3085,1.3085,1.3085,1.3085,1.2697,1.2578,1.2414,1.1694,1.1421,1.1288,1.0953,1.0873,1.1031,1.1199,1.1291,1.133,1.1422,1.1455,1.1455,1.1455,1.1455,1.1455,0.0,0.0,0.0,0.0,0.0,0.9516,0.9314,0.9377,0.9439,0.0,0.0,0.0,0.0,0.0,0.0,0.8229,0.8139,0.8035,0.7863,0.7915,0.7865,0.7966,0.808,0.8146,0.8238,0.8301,0.8301,0.8245,0.8153,0.8165,0.8203,0.8203,0.8335,0.8594,0.0,0.0,0.0,0.0,0.0,0.0,1.0033,0.0,0.0,1.1773,1.2185,0.0,0.0,0.0,1.2632,1.2257,1.1795,0.0,0.0,0.0,0.0,0.0,0.0,0.0,0.0,0.0,0.0,0.0,0.0,0.0,1.2911,1.3082,1.3436,0.0,1.3945,1.4244,0.0,0.0,0.0,0.0,0.0,0.0,0.0,0.0,0.0,0.0,0.0,0.0,0.0,0.0,0.0,1.3909,1.3909,1.3749,1.3276,1.3116,1.2963,1.2963,1.2963,1.2963,1.2963,1.2963,1.2963,1.2963,1.2721,1.2625,1.252,1.2111,1.1683,1.1403,1.107,1.0942,1.0862,1.1101,1.1232,1.1286,1.1406,1.1455,1.1455,1.1455,1.1455,1.1455,0.0,0.0,1.0387,1.0217,1.0176,1.016,1.016,1.016,1.0168,0.0,0.9983,0.0,0.0,0.0,0.0,0.0,0.8313,0.8148,0.7982,0.8095,0.8087,0.8102,0.8385,0.8557,0.8594,0.8713,0.8713,0.8594,0.8557,0.846,0.8311,0.8311,0.84,0.866,0.0,0.0,0.0,0.0,0.0,1.0099,1.0559,1.1072,0.0,0.0,1.2689,0.0,1.3279,1.3433,1.3376,1.2994,1.2393,0.0,0.0,0.0,0.0,0.0,1.0753,0.0,0.0,0.0,0.0,0.0,0.0,0.0,1.2661,1.3035,1.3433,0.0,1.4213,1.4424,1.4781,0.0,0.0,0.0,0.0,0.0,0.0,0.0,0.0,0.0,0.0,0.0,1.5077,1.4594,1.4336,1.4176,1.4176,1.401,1.3532,1.3228,1.3068,1.2908,1.2908,1.2908,1.2908,1.2908,1.2908,1.2908,1.2929,1.2849,1.2495,1.2514,1.2105,1.157,1.1403,1.1237,1.0753,1.1003,1.1161,1.1264,1.14,1.1455,1.1455,1.1455,1.1455,1.1455,0.0,1.0526,1.0428,1.0387,1.0257,1.016,1.016,1.016,1.0217,1.0363,1.0273,0.0,0.0,0.0,0.0,0.0,0.9051,0.8782,0.8599,0.831,0.8228,0.8367,0.8253,0.8326,0.8586,0.8489,0.8482,0.8594,0.8326,0.8276,0.8421,0.8421,0.8698,0.8965,0.9196,0.0,0.0,0.0,0.0,1.0787,1.1035,0.0,1.1915,1.2901,1.3175,1.3271,1.3693,1.3798,1.3717,0.0,1.2572,1.1947,0.0,0.0,0.0,0.0,0.0,0.0,0.0,0.0,0.0,0.0,0.0,0.0,1.2353,1.2572,1.2873,0.0,1.3555,1.3685,1.4042,1.414,0.0,0.0,0.0,0.0,0.0,0.0,0.0,0.0,0.0,0.0,1.5184,1.5023,1.4764,1.4462,1.3996,1.3678,1.3212,1.3056,1.2901,1.2589,1.2589,1.2589,1.2589,1.2589,1.2589,1.2596,1.2718,1.2854,1.2842,1.2631,1.2433,1.2401,1.1736,1.1403,1.1254,1.1174,1.1118,1.1156,1.1373,1.1455,1.1455,1.1455,1.1455,1.1455,1.0688,1.0623,1.0566,1.0566,1.0485,1.0428,1.0428,1.0428,1.0461,1.055,1.0485,0.0,0.0,0.0,0.0,0.0,0.9194,0.9015,0.8836,0.8569,0.8424,0.8512,0.8509,0.8543,0.8715,0.8715,0.8715,0.8715,0.8543,0.8509,0.852,0.8599,0.8834,0.9104,0.9372,0.964,0.0,0.0,1.0558,1.1013,1.143,0.0,1.225,1.3133,1.3425,1.3539,1.3807,1.3847,1.3717,1.3352,1.2873,0.0,0.0,1.1719,1.1459,0.0,1.1224,1.1224,0.0,0.0,0.0,1.1476,0.0,0.0,0.0,1.2036,1.219,1.2726,1.284,1.2946,1.3576,1.3717,1.4005,0.0,0.0,0.0,0.0,0.0,0.0,0.0,0.0,0.0,1.5236,1.5074,1.4927,1.4549,1.4076,1.377,1.3312,1.3231,1.2965,1.2501,1.2501,1.2501,1.2501,1.2501,1.2501,1.2501,1.2576,1.2739,1.2963,1.2869,1.2697,1.2733,1.2235,1.1736,1.1426,1.1516,1.1274,1.1128,1.1362,1.1455,1.1455,1.1455,1.1455,1.1455,1.0907,0.0,1.0806,1.0798,1.0798,1.0798,1.0798,1.0798,1.0806,1.0907,1.0683,0.0,0.0,0.0,0.0,0.0,0.0,0.912,0.0,0.0,0.8617,0.8617,0.8714,0.8787,0.882,0.8934,0.8942,0.882,0.8787,0.8698,0.8568,0.8739,0.8917,0.9112,0.947,0.9746,0.0,0.0,0.0,1.1062,0.0,1.2101,1.2572,1.3108,1.3433,1.362,1.3823,1.379,1.3751,1.3571,0.0,1.2882,1.2406,1.2258,0.0,0.0,0.0,0.0,0.0,0.0,0.0,0.0,0.0,1.1462,0.0,0.0,0.0,1.2176,1.2274,0.0,1.3088,0.0,0.0,0.0,0.0,0.0,0.0,0.0,0.0,0.0,0.0,0.0,0.0,1.4952,1.4806,1.4667,1.435,1.4065,1.3642,1.3312,1.2937,1.2656,1.2501,1.2501,1.2501,1.2501,1.2501,1.2501,1.2501,1.2664,1.2963,1.2963,1.2956,1.2899,1.2733,1.2235,1.1593,1.1851,1.1618,1.1301,1.1362,1.1455,1.1455,1.1455,1.1455,1.1455,1.1455,1.1455,1.1345,1.1126,1.1017,1.1017,1.1017,1.1017,1.1126,1.1455,1.1437,0.0,0.0,0.0,0.0,0.0,0.0,0.0,0.9307,0.0,0.8787,0.8787,0.8666,0.8666,0.882,0.869,0.869,0.882,0.8674,0.8584,0.8568,0.8739,0.8917,0.9112,0.947,0.0,0.0,0.0,1.0867,0.0,1.1784,1.2134,0.0,1.2921,1.3238,1.3441,1.3782,1.4065,1.4162,0.0,1.3806,1.3709,0.0,1.3274,0.0,0.0,0.0,0.0,0.0,0.0,0.0,0.0,1.2308,0.0,0.0,0.0,1.2125,1.2377,0.0,0.0,0.0,0.0,0.0,0.0,0.0,0.0,0.0,0.0,0.0,0.0,0.0,0.0,0.0,1.4505,1.4481,1.4464,1.4464,1.4231,1.4088,1.3657,1.3283,1.3112,1.2656,1.2501,1.2501,1.2501,1.2501,1.2501,1.2501,1.2664,1.2963,1.2963,1.3125,1.3231,1.2899,1.2567,1.2593,1.2526,1.2128,1.1646,1.1539,1.1455,1.1455,1.1455,1.1455,1.1455,1.1673,1.1564,0.0,1.1455,1.1345,1.1345,1.1345,1.1345,1.1455,1.1564,1.1564,0.0,0.0,0.0,0.0,0.0,0.0,0.0,0.0,0.0,0.0,0.9281,0.9195,0.9144,0.911,0.9042,0.9042,0.911,0.9042,0.905,0.9161,0.9349,0.9597,0.9904,1.0196,0.0,1.0708,0.0,1.1208,0.0,0.0,0.0,0.0,1.3319,1.3846,1.4403,1.4424,1.4566,1.4595,0.0,1.4214,0.0,0.0,0.0,0.0,0.0,0.0,0.0,0.0,0.0,0.0,0.0,0.0,0.0,0.0,0.0,1.1863,0.0,0.0,0.0,0.0,0.0,0.0,0.0,1.3481,0.0,0.0,0.0,0.0,0.0,0.0,0.0,0.0,0.0,0.0,0.0,0.0,1.4059,1.3792,1.3845,1.3672,1.3283,1.3231,1.312,1.2811,1.2811,1.2656,1.2501,1.2501,1.2664,1.2963,1.2963,1.3119,1.3403,1.3231,1.2899,1.2752,1.2783,1.2569,1.2146,1.2155,1.1925,1.1455,1.1455,1.1455,1.1455,0.0,0.0,0.0,0.0,1.1673,1.1673,1.1673,1.1782,1.1809,1.1973,0.0,0.0,1.1638,1.1638,0.0,0.0,0.0,1.0955,0.0,0.0,1.0165,0.0,0.0,0.0,0.0,0.9509,0.9509,0.9509,0.9509,0.958,0.9713,0.9815,1.0088,1.0538,1.0819,1.1065,1.127,0.0,1.1761,1.2147,1.2534,1.3061,1.3613,1.39,1.4432,1.5052,1.5052,1.5052,1.5132,1.4795,1.4773,0.0,1.4164,0.0,0.0,0.0,0.0,0.0,1.3403,0.0,0.0,0.0,0.0,0.0,0.0,0.0,0.0,0.0,0.0,0.0,0.0,0.0,0.0,0.0,0.0,1.3133,0.0,0.0,0.0,0.0,0.0,0.0,0.0,0.0,0.0,0.0,0.0,0.0,1.3657,1.3847,1.3898,1.3642,1.3655,1.3583,1.3274,1.312,1.2965,1.2656,1.2501,1.2664,1.2963,1.2963,1.3119,1.3403,1.3403,1.3238,1.2912,1.3062,1.2841,1.26,1.2737,1.2324,1.172,1.1788,1.1632,1.1455,1.2327,1.2327,0.0,0.0,0.0,1.2001,1.2001,1.2219,1.2512,0.0,0.0,0.0,0.0,0.0,0.0,0.0,0.0,1.1458,1.1274,0.0,1.0502,0.0,0.0,0.0,0.0,0.0,0.9917,0.9917,0.9917,0.9917,0.9926,1.0017,1.0211,1.0538,1.1028,1.1397,1.1617,1.2381,1.2715,1.2776,1.3339,1.405,1.4973,0.0,1.4701,1.5052,1.5052,0.0,0.0,1.5375,1.545,0.0,0.0,0.0,0.0,0.0,0.0,0.0,0.0,0.0,0.0,0.0,0.0,0.0,0.0,0.0,1.2327,0.0,0.0,0.0,0.0,0.0,0.0,0.0,0.0,0.0,0.0,0.0,0.0,0.0,0.0,0.0,0.0,0.0,0.0,0.0,0.0,0.0,1.3904,1.3814,1.3932,1.4096,1.3808,1.3744,1.3737,1.3274,1.312,1.312,1.2656,1.2664,1.2963,1.2963,1.3119,1.3403,1.3403,1.3403,1.341,1.3566,1.329,1.2972,1.3107,1.2822,1.2348,1.2255,1.181,1.1455,0.0,0.0,0.0,0.0,0.0,1.2219,1.2219,1.2449,1.2682,0.0,0.0,0.0,0.0,0.0,1.2927,0.0,0.0,1.2376,1.2036,1.1824,0.0,0.0,0.0,1.0872,0.0,0.0,0.0,0.0,0.0,1.0464,1.0603,1.0573,1.0858,1.1327,1.1593,1.1982,0.0,0.0,0.0,0.0,0.0,1.4508,1.5087,0.0,0.0,1.5753,1.5753,1.5895,0.0,1.5793,1.5587,1.5526,1.53,1.5092,1.4922,1.4846,1.4827,0.0,0.0,0.0,1.4307,1.3807,0.0,0.0,0.0,0.0,0.0,0.0,0.0,0.0,0.0,0.0,0.0,0.0,0.0,0.0,0.0,0.0,0.0,0.0,0.0,0.0,0.0,0.0,0.0,0.0,1.3181,0.0,0.0,1.4035,1.4167,1.4372,1.4509,1.4353,1.4207,1.4053,1.3744,1.312,1.2965,1.2977,1.2963,1.2963,1.3119,1.3403,1.3403,1.3403,1.3403,1.3458,1.3372,1.3297,1.3343,1.3245,1.2834,1.2674,1.239,1.2226,1.3412,0.0,0.0,0.0,0.0,0.0,1.2654,1.2898,0.0,0.0,1.3499,0.0,1.3625,0.0,1.3603,0.0,1.3334,1.3145,1.2795,1.2635,0.0,1.1983,1.1822,0.0,0.0,0.0,0.0,0.0,0.0,1.0981,1.1113,1.1038,1.1293,1.1831,1.1968,1.2275,1.2763,1.3138,1.35,0.0,0.0,1.479,0.0,0.0,1.5522,1.5961,0.0,1.5961,1.5942,1.58,1.5611,1.5422,1.5281,1.5092,1.4931,1.4931,1.4931,1.4903,1.478,1.4685,0.0,0.0,1.3854,0.0,1.3353,0.0,0.0,0.0,0.0,0.0,0.0,0.0,0.0,0.0,0.0,0.0,0.0,1.1791,0.0,0.0,0.0,0.0,0.0,0.0,1.2792,1.2841,1.3038,0.0,0.0,0.0,1.4367,1.4432,1.4781,1.4814,1.4669,1.4515,1.4053,1.3274,1.3176,1.319,1.2963,1.3017,1.3173,1.3403,1.3403,1.3403,1.3403,1.3403,1.3458,1.3546,1.3546,1.3465,1.3278,1.2954,1.2879,1.2759,0.0,0.0,0.0,0.0,1.2917,0.0,0.0,0.0,1.3624,0.0,1.441,1.4751,1.4597,1.469,1.4615,1.4166,1.3835,0.0,1.3438,1.3041,0.0,0.0,1.2408,1.2181,1.2172,0.0,0.0,0.0,0.0,1.1529,1.151,1.1302,1.1425,1.1831,1.2039,1.2484,1.3107,1.374,1.4137,1.4374,1.477,1.5044,1.5215,1.5215,0.0,1.5536,1.5555,1.5564,1.5564,1.5564,1.5413,1.5233,1.5233,1.5092,1.4931,1.4931,1.4931,1.4931,1.4931,1.4789,1.4648,1.4638,0.0,0.0,0.0,0.0,1.3222,0.0,0.0,0.0,0.0,0.0,0.0,0.0,0.0,0.0,0.0,0.0,0.0,0.0,0.0,0.0,0.0,1.2697,1.2821,1.2995,1.3101,1.3244,0.0,0.0,1.4245,1.4424,1.4773,1.496,1.4968,1.4669,1.4207,1.3744,1.344,1.3289,1.2963,1.3105,1.3254,1.3403,1.3403,1.3403,1.3403,1.3403,1.3403,1.3403,1.3403,1.3498,1.3675,1.3441,1.3286,1.3053,1.5085,1.4842,1.471,0.0,1.4003,1.3695,0.0,0.0,0.0,0.0,1.4892,1.5155,1.5216,1.5276,1.5162,1.5102,1.468,0.0,0.0,0.0,0.0,1.324,1.2975,1.2758,1.2606,1.2389,0.0,1.2058,0.0,0.0,1.152,1.1463,1.1567,1.1831,1.2039,1.2484,1.3107,1.374,1.4307,1.478,1.4893,1.4959,0.0,0.0,1.5044,1.513,1.5451,1.5564,1.5564,1.5564,1.5413,1.5233,1.551,1.5497,1.5332,1.5583,1.5714,1.5714,1.5714,1.5674,1.5594,1.5435,1.5266,1.5057,0.0,0.0,0.0,0.0,0.0,0.0,0.0,0.0,0.0,0.0,0.0,0.0,0.0,0.0,0.0,1.1879,0.0,0.0,1.2388,1.2696,1.2755,1.2445,1.2766,0.0,0.0,0.0,0.0,1.4424,1.4659,1.4838,1.496,1.4968,1.4669,1.4214,1.3916,1.3763,1.3436,1.3267,1.3254,1.3403,1.3403,1.3403,1.3403,1.3403,1.3403,1.3403,1.3403,1.3559,1.381,1.3827,1.3995,1.3945,1.5805,0.0,0.0,1.5752,0.0,0.0,1.4697,0.0,0.0,1.5176,1.5608,0.0,1.57,1.5792,1.5813,1.5594,1.5332,0.0,0.0,0.0,0.0,1.4279,1.3966,1.3742,1.3634,1.3,0.0,1.2625,0.0,0.0,1.1642,1.1463,1.1529,1.1822,1.1945,1.2398,1.3117,1.3835,1.4402,1.4808,1.4893,0.0,0.0,1.4931,1.5062,1.5231,1.5471,1.5558,1.5558,1.5691,1.5737,1.5629,1.5761,1.5813,1.5724,1.5974,1.5974,1.5974,1.5974,1.5974,1.5944,1.5822,1.564,1.5428,1.5175,1.4973,1.4801,0.0,0.0,0.0,0.0,0.0,0.0,0.0,0.0,0.0,0.0,0.0,0.0,0.0,1.2011,0.0,1.2367,1.2692,1.2812,1.2706,1.2785,0.0,0.0,0.0,0.0,1.431,1.457,1.4789,1.496,1.4968,1.4814,1.4368,1.4304,1.4147,1.3596,1.3661,1.3487,1.3403,1.3403,1.3403,1.3403,1.3403,1.3403,1.341,1.3546,1.3736,1.396,1.4116,1.4224,1.4299,0.0,0.0,0.0,0.0,0.0,0.0,0.0,1.5836,0.0,1.5899,0.0,1.6615,1.6318,1.6368,1.6421,1.5967,0.0,1.5737,1.5533,1.5492,1.5472,1.5472,1.5075,1.483,1.4799,1.3824,0.0,0.0,0.0,0.0,1.1916,1.1525,1.1544,1.1916,1.1916,1.2402,1.327,1.4089,1.4556,1.4776,1.4985,1.5062,1.5062,1.5062,1.5192,1.5593,1.5593,1.5593,1.5593,1.5844,1.5974,1.5974,1.6104,1.6104,1.6104,1.6104,1.6104,1.6104,1.6104,1.6104,1.6094,1.6063,1.5757,1.5452,1.5391,1.5085,1.481,1.4779,1.4585,0.0,0.0,0.0,0.0,0.0,0.0,0.0,0.0,0.0,0.0,0.0,0.0,0.0,0.0,1.2635,1.2889,0.0,0.0,0.0,0.0,0.0,0.0,1.4164,1.4497,0.0,1.496,0.0,1.4814,1.4523,1.4703,1.4388,1.3756,1.4081,1.3901,1.3569,1.3569,1.3403,1.3403,1.3403,1.341,1.3458,1.3756,1.3953,1.4089,1.4245,1.4299,1.4299,0.0,0.0,0.0,0.0,0.0,1.7518,1.7342,1.7182,1.6989,1.6776,1.7098,0.0,1.6829,1.685,1.6861,1.6818,1.656,0.0,0.0,0.0,0.0,1.559,1.5462,1.5227,1.4923,1.4437,1.3989,0.0,0.0,0.0,1.2432,1.2183,1.2193,1.2442,1.2442,1.3028,1.4179,1.4881,0.0,1.5405,1.5754,1.5844,1.5844,1.5844,1.5844,1.5974,1.6244,1.6114,1.5974,1.5974,1.5974,1.6104,1.6364,1.6374,1.6494,1.6753,1.6872,1.6872,1.6872,1.6872,1.6829,1.6647,1.653,1.637,1.5974,1.5825,1.5707,1.5525,1.5173,1.494,1.4468,0.0,0.0,0.0,0.0,0.0,0.0,0.0,0.0,0.0,0.0,0.0,0.0,0.0,0.0,0.0,0.0,0.0,0.0,0.0,0.0,0.0,1.4375,0.0,0.0,0.0,1.4968,1.4822,1.4861,1.4707,1.4563,1.4564,1.439,1.3901,1.3901,1.3735,1.3403,1.3403,1.3478,1.362,1.3919,1.4048,1.4089,1.4245,1.4299,1.4299,0.0,0.0,0.0,0.0,0.0,0.0,0.0,1.84,0.0,1.7443,1.7475,1.7507,1.7389,1.7378,1.7378,1.7378,1.7246,1.7071,1.6954,1.6707,1.6462,1.6337,1.6234,0.0,1.5658,1.5069,1.4549,1.421,0.0,0.0,1.2809,1.2597,1.2607,1.283,1.3184,1.3699,1.4346,0.0,0.0,1.5671,1.5883,1.5974,1.5974,1.5974,1.6104,1.6234,1.6504,1.6494,1.6483,1.6483,1.6483,1.6494,1.6753,1.6753,1.6753,1.7001,1.7001,1.698,1.6861,1.6829,1.6775,1.6538,1.6387,1.6226,1.6,1.5849,1.5731,1.5623,1.5505,1.5205,1.4603,1.3967,0.0,0.0,0.0,0.0,0.0,0.0,0.0,0.0,0.0,0.0,0.0,0.0,0.0,0.0,0.0,0.0,0.0,0.0,0.0,0.0,0.0,0.0,0.0,0.0,0.0,1.4968,1.5176,1.5034,1.4882,1.5062,1.4886,1.439,1.4232,1.3901,1.3742,1.3652,1.3607,1.3763,1.3987,1.4122,1.4197,1.4272,1.4299,1.4299,0.0,1.9781,0.0,0.0,1.9603,0.0,1.9402,1.9382,1.9138,1.8085,1.7966,1.7912,1.7857,1.7857,1.7857,1.7723,1.7723,1.7647,1.7464,1.74,1.7292,1.7087,1.6861,1.6603,1.6323,1.565,1.5056,0.0,0.0,0.0,0.0,1.2956,1.2997,1.3295,0.0,0.0,0.0,0.0,1.573,1.5926,1.6141,1.6234,1.6234,1.6234,1.6364,1.6623,1.6623,1.6753,1.7001,1.7001,1.7001,1.7001,1.7001,1.7001,1.7001,1.7001,1.6969,1.6894,1.671,1.6624,1.6527,1.6301,1.6097,1.5935,1.5881,1.5731,1.5601,1.5601,1.5558,1.529,1.4802,1.4288,0.0,0.0,0.0,0.0,0.0,0.0,0.0,0.0,0.0,0.0,0.0,0.0,0.0,0.0,0.0,0.0,0.0,0.0,0.0,0.0,0.0,1.4629,1.4859,0.0,1.4968,0.0,1.5342,1.5353,1.4882,1.5388,1.5216,1.4878,1.4555,1.4232,1.4081,1.3768,1.3743,1.3858,1.4048,1.4197,1.4299,1.4299,1.4299,1.4299,0.0,0.0,0.0,0.0,0.0,0.0,0.0,1.9946,1.9685,1.896,1.9003,1.8914,1.8272,1.825,1.8116,1.7723,1.7723,1.7712,1.769,1.7496,1.7367,1.7346,1.7109,1.6764,1.6323,1.6054,1.558,0.0,0.0,0.0,0.0,0.0,0.0,0.0,0.0,0.0,0.0,1.6199,1.6646,1.6678,1.6786,1.6872,1.6872,1.6872,1.6872,1.7001,1.7001,1.7001,1.7001,1.7001,1.7001,1.7001,1.7001,1.7001,1.7001,1.7001,1.6861,1.6689,1.6667,1.6506,1.6291,1.6043,1.5968,1.5892,1.5677,1.5612,1.5601,1.5601,1.5429,1.5268,1.5109,1.4999,1.4703,0.0,0.0,0.0,0.0,0.0,0.0,0.0,0.0,0.0,0.0,0.0,0.0,0.0,0.0,0.0,0.0,0.0,0.0,1.4588,0.0,1.4809,1.5311,1.5031,0.0,1.4968,1.5342,1.5512,1.5528,1.5723,1.5719,1.5381,1.5216,1.4893,1.4088,1.3878,1.3831,1.3871,1.4163,1.4285,1.4299,1.4299,1.4299,1.4299,0.0,0.0,0.0,0.0,0.0,0.0,0.0,2.0796,2.0584,2.0175,1.9784,1.9358,1.9118,1.9107,1.8969,1.8556,1.8418,1.8364,1.7949,1.7723,1.7518,1.7389,1.7141,1.685,1.6527,1.6291,1.5881,0.0,0.0,0.0,0.0,0.0,0.0,0.0,0.0,1.5892,1.6054,1.6484,1.6743,1.6872,1.6969,1.7001,1.7001,1.7001,1.7001,1.7001,1.7001,1.7001,1.698,1.684,1.6894,1.7001,1.7001,1.6915,1.6797,1.6797,1.6635,1.642,1.6269,1.6161,1.6032,1.5795,1.5741,1.572,1.5623,1.5601,1.5601,1.5601,1.5526,1.5461,1.5461,1.5268,1.5149,0.0,0.0,0.0,0.0,0.0,0.0,0.0,0.0,0.0,0.0,0.0,0.0,0.0,0.0,0.0,0.0,0.0,0.0,1.4835,0.0,1.5294,1.5449,1.5438,1.5429,1.5437,1.5499,1.5512,1.5528,1.5886,1.5719,1.5381,1.5051,1.4721,1.4095,1.3892,1.4016,1.4386,1.4527,1.4822,1.5175,1.5175,1.5175,1.5183,2.3128,0.0,2.3009,0.0,2.2413,2.22,2.1895,2.1613,2.1337,2.1065,2.0497,1.9912,1.9831,1.968,1.9541,1.9262,1.9122,1.8916,1.8346,1.8096,1.7857,1.7486,1.7249,0.0,1.6667,1.6495,1.6183,1.5698,1.5537,0.0,0.0,0.0,0.0,0.0,1.6097,1.6323,1.6431,1.6667,1.6861,1.7001,1.7001,1.7001,1.7001,1.7001,1.7001,1.7001,1.7001,1.6958,1.6883,1.6721,1.6721,1.6797,1.6797,1.6689,1.656,1.656,1.6387,1.6172,1.6,1.5903,1.5806,1.5645,1.5601,1.5601,1.5601,1.5601,1.5601,1.5601,1.5601,1.5601,1.5601,1.5461,1.5408,0.0,0.0,0.0,0.0,0.0,0.0,0.0,1.376,1.3307,1.3188,0.0,0.0,0.0,0.0,0.0,0.0,0.0,0.0,0.0,0.0,0.0,0.0,1.5733,1.5744,1.559,1.5656,1.5671,1.5528,1.5886,1.5883,1.5546,1.5051,1.4721,1.4419,1.4231,1.4358,1.4736,1.5053,1.5352,1.5704,1.5704,1.5704,1.5704,2.3442,2.3442,2.3442,2.3454,2.3007,2.2645,2.2645,2.2211,2.1776,2.151,2.1233,2.0814,2.0145,2.011,1.997,1.968,1.9541,1.9401,1.8982,1.8761,1.838,0.0,0.0,1.7152,1.6678,1.6657,1.642,1.5946,0.0,0.0,1.5601,0.0,1.6172,1.5968,1.6678,1.6872,1.6678,1.6904,1.7001,1.7001,1.7001,1.7001,1.7001,1.7001,1.7001,1.7001,1.7001,1.6861,1.6667,1.6667,1.6517,1.6323,1.6323,1.6323,1.6312,1.6312,1.614,1.5946,1.5946,1.5785,1.5601,1.5601,1.5601,1.5601,1.5601,1.5601,1.5601,1.5601,1.5601,1.5601,1.5601,1.5601,1.5601,1.5601,0.0,0.0,0.0,0.0,0.0,0.0,1.3994,1.3639,1.3639,0.0,0.0,0.0,0.0,0.0,0.0,0.0,0.0,1.5838,1.5845,0.0,1.6505,1.6259,1.605,1.559,1.5962,1.5822,1.5528,1.5886,1.6048,1.6048,1.5546,1.5381,1.5404,1.5255,1.522,1.525,1.5578,1.5704,1.5704,1.5704,1.5704,1.5704,2.3719,2.3719,2.3671,2.349,2.3152,2.2862,2.2681,2.2355,2.2042,2.1776,2.1667,2.151,2.1102,2.0754,2.0388,0.0,1.997,1.9831,0.0,1.9175,1.8868,1.838,1.7984,1.7566,1.7152,1.6829,1.6592,1.6431,0.0,0.0,0.0,1.6883,1.7087,1.7163,1.7227,1.7217,1.7141,1.7044,1.7001,1.7001,1.7001,1.7001,1.7001,1.7001,1.7001,1.698,1.6829,1.6721,1.6614,1.628,1.6129,1.6154,1.6123,1.6189,1.6064,1.6064,1.5892,1.5709,1.5709,1.5655,1.5601,1.5601,1.5601,1.5601,1.5601,1.5601,1.5601,1.5601,1.5601,1.5601,1.5601,1.5601,1.5601,1.5601,0.0,0.0,0.0,0.0,0.0,0.0,0.0,1.4498,0.0,1.4528,0.0,0.0,0.0,0.0,0.0,0.0,0.0,0.0,1.6477,0.0,1.6955,1.6706,1.6419,1.6242,1.6179,1.5955,1.5878,1.5991,1.6048,1.6048,1.5546,1.5381,1.5412,1.5248,1.5391,1.5755,1.6094,1.6401,1.6585,1.6585,1.6585,1.6585,2.4184,2.416,2.4086,2.3815,2.3377,2.3145,2.2973,2.2578,2.2162,2.1909,2.1873,2.1764,2.151,2.1172,0.0,2.0697,2.0697,2.0368,1.997,1.982,1.937,1.8913,1.8598,1.8262,1.7906,0.0,0.0,1.7312,1.703,1.7033,1.7281,1.7529,1.7626,1.7593,1.7529,1.741,1.7227,1.7066,1.7001,1.7001,1.7001,1.7001,1.699,1.6904,1.7,1.6979,1.6866,1.6724,1.6604,1.6409,1.631,1.6167,1.6384,1.6496,1.642,1.6112,1.5839,1.5601,1.5601,1.5601,1.5601,1.5601,1.5601,1.5601,1.5601,1.5601,1.5601,1.5601,1.5601,1.5601,1.5601,1.5601,1.5601,1.5601,0.0,1.5601,0.0,0.0,0.0,0.0,0.0,0.0,0.0,1.5487,0.0,0.0,0.0,0.0,0.0,0.0,0.0,1.6282,1.6821,0.0,1.7227,1.7121,1.6979,1.6649,1.644,1.6079,1.6048,1.6048,1.6048,1.6048,1.5711,1.575,1.5664,1.5786,1.5934,1.6191,1.6467,1.6753,1.7112,1.7112,1.7153,1.7201,2.4723,2.4659,0.0,0.0,2.3719,0.0,2.3228,2.2717,2.2323,2.208,2.2044,2.1946,2.1559,2.1535,2.1535,2.1535,0.0,0.0,0.0,2.0509,2.0134,1.9381,1.9324,1.9061,1.8833,1.881,1.8673,1.8399,1.817,1.7895,1.7723,1.8118,1.7988,1.7432,1.7615,1.7443,1.7033,1.7012,1.7001,1.7001,1.7001,1.7001,1.698,1.6764,1.6943,1.7163,1.6908,1.6675,1.6486,1.6816,1.6695,1.6585,1.6937,1.7108,1.7211,1.6373,1.5872,1.5623,1.5601,1.5601,1.5601,1.5601,1.5601,1.5601,1.5601,1.5601,1.5601,1.5601,1.5601,1.5601,1.5601,1.5601,1.5601,1.5601,1.5601,1.5601,1.5623,0.0,0.0,0.0,0.0,0.0,0.0,1.6339,1.6529,0.0,0.0,0.0,0.0,0.0,1.633,1.6519,1.6925,1.7246,1.7445,1.7653,1.7601,1.7162,1.6595,1.6212,1.6048,1.6048,1.6048,1.6048,1.6056,1.6154,1.6316,1.6519,1.6698,1.6868,1.7047,1.7112,1.7112,1.7112,1.7226,1.7364,0.0,0.0,2.4278,2.3998,2.3745,2.3631,2.3429,2.3191,2.3129,2.3066,2.3053,2.288,2.2522,2.2522,2.2374,2.2078,2.1716,2.145,2.1246,2.1042,2.0721,2.018,1.9795,1.9414,1.9084,1.8901,1.8673,1.8399,1.8483,1.8608,1.8541,1.8789,1.8709,1.8314,1.7984,1.7653,1.7281,1.7087,1.7001,1.7001,1.7001,1.7141,1.7389,1.7334,1.7569,1.7791,1.7542,1.7417,1.7338,1.728,1.7211,1.7211,1.7445,1.7491,1.7122,1.6574,1.6364,1.62,1.5764,1.5601,1.5601,1.5601,1.5601,1.5601,1.5601,1.5601,1.5601,1.5601,1.5601,1.5601,1.5601,1.5601,1.5601,1.5601,1.5601,1.5655,1.5838,1.5871,0.0,0.0,1.6463,1.6657,1.7087,1.7203,1.7325,0.0,0.0,0.0,0.0,0.0,1.7211,1.6953,1.736,1.7605,1.7653,1.7861,1.7734,1.7581,1.7008,1.6656,1.6534,1.6205,1.6048,1.6056,1.6186,1.6267,1.6324,1.6657,1.6812,1.6868,1.7047,1.7112,1.7112,1.7112,1.7226,1.738,2.4596,2.4544,2.4454,2.4168,2.3967,2.3766,2.3761,2.3587,2.3438,2.3438,2.3553,2.3492,2.3342,2.3455,2.3379,2.2925,2.2287,2.1788,2.1667,2.151,2.1317,2.0793,2.0507,2.0292,1.9898,1.9757,1.9422,1.9032,1.9055,1.8933,1.881,1.8936,1.8812,1.8553,1.8282,1.7971,1.7718,1.7573,1.7518,1.7518,1.7518,1.7518,1.7776,1.7663,1.7746,1.8082,1.7839,1.7746,1.7735,1.7719,1.7754,1.7711,1.8096,1.8179,1.7976,1.746,1.6864,1.642,1.6155,1.5807,1.5601,1.5601,1.5601,1.5601,1.5601,1.5601,1.5601,1.5601,1.5601,1.5601,1.5601,1.5601,1.5601,1.5601,1.5688,1.5838,1.6086,1.6301,0.0,1.7087,1.7249,1.7496,1.797,1.8132,1.8165,1.8269,0.0,0.0,1.7643,1.7734,1.7563,1.7105,1.7416,1.7634,1.7728,1.8031,1.8135,1.7855,1.7465,1.7018,1.6689,1.6369,1.6254,1.617,1.6259,1.6397,1.6568,1.6771,1.6901,1.6982,1.7071,1.7112,1.7112,1.7112,1.7274,1.7494,2.5077,2.501,2.493,2.4676,2.4341,2.4044,2.4044,2.3774,2.3651,2.3651,2.3907,2.4086,2.4086,2.4291,2.4278,2.3816,2.29,2.2372,2.2005,2.1909,2.1643,2.1148,2.1076,2.0931,2.0678,2.0629,2.0347,1.9675,1.944,1.9177,1.8875,1.8875,1.876,1.8433,1.8387,1.825,1.8033,1.8033,1.8033,1.8033,1.8033,1.8033,1.8011,1.7943,1.7978,1.8321,1.8108,1.8025,1.8025,1.8285,1.8428,1.8356,1.862,1.8891,1.9036,1.8542,1.7642,1.6785,1.6585,1.6166,1.5785,1.5818,1.5709,1.5698,1.5655,1.5655,1.5645,1.5612,1.5601,1.5601,1.5601,1.5623,1.5655,1.5655,1.5881,1.614,1.6387,0.0,1.7292,1.7766,1.8078,1.8422,1.8853,1.8961,1.909,1.9295,1.9043,1.8853,0.0,1.816,1.7699,1.7397,1.7388,1.7587,1.7823,1.8172,1.8294,1.8174,1.801,1.7673,1.6862,1.6723,1.6659,1.6475,1.6365,1.656,1.6852,1.6885,1.6974,1.7112,1.7112,1.7112,1.7112,1.7112,1.7331,1.7616,2.4756,2.4703,2.469,2.4649,2.4488,2.4488,2.4488,2.4701,2.486,2.486,2.5113,2.5132,2.4827,2.4713,2.4585,2.4278,2.3529,2.3027,2.2536,2.2114,2.1728,2.1426,2.1185,2.0931,2.0678,2.0448,2.0207,1.9819,1.9771,1.9627,1.94,1.94,1.9245,1.8947,1.8724,1.8348,1.8033,1.8033,1.8033,1.8033,1.8033,1.8173,1.8431,1.8524,1.864,1.9,1.8963,1.8951,1.8951,1.8951,1.8976,1.9012,1.9012,1.9048,1.9072,1.9024,1.8415,1.7824,1.7028,1.6529,1.631,1.6508,1.644,1.6151,1.5935,1.5892,1.5838,1.5645,1.5601,1.5601,1.5601,1.5763,1.5892,1.5892,1.6269,1.6635,1.6861,0.0,1.7787,1.8272,1.8713,1.909,1.9359,1.9758,2.0005,2.0048,2.0231,2.0206,1.9782,1.9304,1.8827,1.8524,1.7912,1.7861,1.8258,1.8324,1.8456,1.851,1.8174,1.801,1.7846,1.719,1.6952,1.6835,1.6804,1.6803,1.686,1.7006,1.7088,1.7112,1.7112,1.7112,1.7112,1.7112,1.7331,1.764,2.4663,2.4636,2.469,2.485,2.4877,2.493,2.509,2.5224,2.5317,2.5317,2.5571,2.5745,2.5436,2.5581,2.5518,2.5192,2.4495,2.3934,2.3322,2.2518,2.1969,2.1704,2.1426,2.1088,2.0678,2.0557,2.0364,2.0098,1.9953,1.9736,1.9458,1.9326,1.9253,1.8994,1.8875,1.8816,1.8559,1.8559,1.8559,1.8559,1.8559,1.8688,1.8828,1.8828,1.8944,1.9072,1.9072,1.9072,1.9072,1.9072,1.9072,1.9072,1.9072,1.9072,1.9072,1.9072,1.8625,1.8089,1.7345,1.6997,1.6909,1.7022,1.6808,1.6527,1.6407,1.6263,1.6118,1.6011,1.5989,1.5989,1.5989,1.6075,1.6183,1.6312,1.6624,0.0,0.0,1.7884,1.8379,1.9112,1.9233,1.95,2.0037,2.0274,2.0559,2.0404,2.05,2.0409,1.9938,1.9782,1.93,1.8671,1.8103,1.7936,1.8012,1.8239,1.8399,1.8503,1.8454,1.8238,1.8174,1.7776,1.7591,1.729,1.7123,1.7074,1.6998,1.708,1.7112,1.7112,1.7112,1.7112,1.7112,1.7112,1.7331,1.764,2.4985,2.4985,2.5066,2.5144,2.5184,2.5251,2.5478,2.5571,2.5611,2.5611,2.5879,2.6052,2.6052,2.6253,2.6228,2.5911,2.5439,2.4662,2.397,2.3215,2.2509,2.1885,2.1559,2.1185,2.0774,2.0702,2.0545,2.0279,2.0074,1.9833,1.9555,1.9289,1.9169,1.9169,1.9096,1.9072,1.9072,1.9072,1.9108,1.9169,1.9169,1.9169,1.9169,1.9241,1.9229,1.9181,1.9241,1.9265,1.9265,1.9265,1.9217,1.9169,1.9169,1.912,1.9072,1.9072,1.88,1.8345,1.7906,1.7677,1.7529,1.7587,1.7349,1.7077,1.6897,1.668,1.6588,1.6409,1.6441,1.6474,1.6474,1.6517,1.6624,1.6797,0.0,0.0,0.0,1.8368,1.8881,1.9596,1.9711,1.9987,2.0526,2.0823,2.0867,2.0802,2.0802,2.0622,2.0264,2.0264,1.9738,1.8681,1.815,1.7898,1.7728,1.805,1.8258,1.8352,1.8522,1.8566,1.8486,1.8366,1.8238,1.788,1.7577,1.7505,1.7288,1.7112,1.7112,1.7112,1.7112,1.7112,1.7112,1.7112,1.7331,1.764,2.606,2.606,2.5922,2.5478,2.5478,2.5491,2.5504,2.5745,2.5919,2.5919,2.6172,2.636,2.636,2.6373,2.6386,2.6386,2.5792,2.5179,2.4918,2.415,2.3142,2.1897,2.1366,2.1076,2.1028,2.0798,2.0545,2.0279,2.0255,2.011,1.9845,1.9567,1.9434,1.9422,1.9181,1.9072,1.9072,1.9072,1.9217,1.9434,1.9434,1.9434,1.947,1.9724,1.9664,1.947,1.9736,1.9833,1.9833,1.9833,1.9652,1.9434,1.9434,1.9265,1.9072,1.9072,1.906,1.9036,1.9024,1.8578,1.8195,1.8453,1.8244,1.7791,1.7312,1.7307,1.729,1.6805,1.6807,1.6947,1.6947,1.7141,1.7303,1.7324,0.0,0.0,1.81,1.8706,1.9275,1.9176,1.9949,2.0492,2.0523,2.1074,2.1242,2.1206,2.1196,2.1274,2.1233,2.0737,2.0056,1.869,1.8007,1.7738,1.7728,1.7757,1.7965,1.8352,1.8371,1.8588,1.8985,1.867,1.8703,1.8759,1.807,1.7805,1.7647,1.7288,1.7112,1.7112,1.7112,1.7112,1.7112,1.7112,1.7331,1.764,2.6129,2.6129,2.6031,2.5913,2.5785,2.5852,2.6026,2.6159,2.6226,2.6226,2.6319,2.6386,2.6386,2.6386,2.6386,2.6386,2.5962,2.5515,2.4918,2.4479,2.3616,2.2337,2.1943,2.1505,2.1064,2.0798,2.0617,2.0521,2.0352,2.0231,2.0122,1.9857,1.9724,1.9712,1.9434,1.941,1.9567,1.9386,1.947,1.9724,1.9724,1.9724,1.9736,1.9845,1.982,1.9736,1.9845,1.9881,1.9881,1.9881,1.982,1.9724,1.9724,1.9543,1.9314,1.9314,1.9446,1.9579,1.9579,1.9374,1.9064,1.9172,1.9054,1.8742,1.865,1.8301,1.7951,1.773,1.7521,1.7443,1.7443,1.7647,1.7863,1.8013,0.0,1.8492,1.878,1.9127,1.9354,1.9948,2.0103,2.0465,2.1306,2.1947,2.2045,2.1806,2.1445,2.1338,2.1286,2.079,2.0159,1.9364,1.8798,1.825,1.7539,1.7794,1.8012,1.8172,1.8428,1.8768,1.9174,1.9091,1.9136,1.9104,1.8828,1.8339,1.7822,1.7647,1.7288,1.7112,1.7112,1.7112,1.7112,1.7463,1.7695,1.8191,2.6878,2.671,2.6471,2.6364,2.6249,2.6159,2.636,2.6386,2.6386,2.6386,2.6386,2.6386,2.6386,2.6386,2.6386,2.6386,2.6213,2.5777,2.5072,2.4704,2.4013,2.289,2.2601,2.2169,2.1623,2.134,2.1167,2.1081,2.0897,2.081,2.0798,2.0539,2.0404,2.0392,2.0108,2.0096,2.0269,1.994,1.9893,2.0136,2.0014,2.0014,2.0014,2.0098,2.0086,2.0026,2.0098,2.0134,2.0134,2.0134,2.0074,2.0014,2.0014,1.982,1.9603,1.9603,1.9736,1.9881,1.9881,1.9808,1.97,1.9615,1.9603,1.9468,1.9468,1.9059,1.8619,1.8483,1.8331,1.8164,1.8164,1.8315,1.8476,1.8638,1.8608,1.8812,1.9285,1.9375,1.9719,2.0772,2.0596,2.0878,2.2179,2.2587,2.2609,2.2289,2.1728,2.1249,2.1297,2.0952,2.0523,1.9654,1.9324,1.8759,1.7624,1.7908,1.8078,1.8144,1.8503,1.8891,1.9297,1.9363,1.9409,1.9388,1.9277,1.8954,1.8259,1.8083,1.7731,1.7362,1.7128,1.7112,1.7288,1.7647,1.8194,1.8656,2.8289,2.7961,2.7476,2.7018,2.6702,2.6386,2.6386,2.6386,2.6386,2.6386,2.6386,2.6386,2.6386,2.6386,2.6386,2.6386,2.6386,2.6146,2.5558,2.497,2.4193,2.3438,2.3184,2.2904,2.2624,2.2332,2.2039,2.176,2.176,2.176,2.176,2.148,2.1353,2.134,2.1073,2.0946,2.0946,2.0547,2.0563,2.0811,2.0415,2.0279,2.0315,2.0569,2.0509,2.0315,2.0569,2.0665,2.0665,2.0665,2.0496,2.0279,2.0279,2.0098,1.9893,1.9893,1.9893,1.9893,1.9893,2.0086,2.0219,1.9953,1.9893,1.9759,1.948,1.9472,1.9424,1.9133,1.9107,1.9155,1.9155,1.9155,1.9155,1.9155,1.9223,1.9359,1.9187,1.9616,2.0304,2.1243,2.1323,2.1694,2.2681,2.2729,2.2674,2.2732,2.1787,2.1232,2.1297,2.1276,2.0846,1.9814,1.9654,1.9224,1.8059,1.805,1.8154,1.8361,1.8579,1.89,1.9306,1.9505,1.9713,1.993,1.9609,1.9515,1.9515,1.8449,1.8093,1.8076,1.7353,1.7463,1.7822,1.7822,1.8285,1.8822,2.8289,2.8118,2.7961,2.749,2.7319,2.7175,2.686,2.6874,2.6702,2.6386,2.6386,2.6386,2.6386,2.6386,2.6386,2.6386,2.6386,2.6146,2.5558,2.5157,2.4701,2.4193,2.3771,2.3194,2.2624,2.2332,2.2039,2.176,2.176,2.176,2.176,2.1683,2.1645,2.1632,2.1353,2.134,2.1505,2.1179,2.1255,2.1508,2.1096,2.0958,2.097,2.078,2.0617,2.0557,2.0641,2.0665,2.0665,2.0665,2.0617,2.0521,2.034,2.0352,2.04,2.0219,2.0291,2.0436,2.0436,2.0629,2.0726,2.0267,2.0436,2.0714,2.0563,2.0544,2.0364,1.9934,1.977,1.9435,1.9144,1.9284,1.9391,1.9391,1.9629,1.9664,1.9657,2.0337,2.105,2.1295,2.1803,2.2441,2.2681,2.2729,2.2739,2.2627,2.1911,2.1238,2.1297,2.1276,2.1157,2.06,2.0273,1.9821,1.9415,1.8646,1.8371,1.8579,1.8787,1.9108,1.9514,1.9571,1.9713,1.993,1.9952,1.9869,1.9524,1.9303,1.9097,1.8609,1.838,1.8276,1.8339,1.8689,1.899,1.9346,2.8588,2.8446,2.8289,2.7961,2.779,2.7476,2.7333,2.7175,2.7175,2.686,2.686,2.686,2.686,2.6702,2.6702,2.6702,2.6437,2.6012,2.5545,2.5237,2.4943,2.4649,2.4169,2.3799,2.3222,2.2924,2.2639,2.2354,2.2238,2.2173,2.2173,2.2173,2.2173,2.2173,2.2141,2.2017,2.216,2.1855,2.1881,2.191,2.1748,2.1508,2.1381,2.1212,2.1059,2.0822,2.0822,2.0762,2.0665,2.0665,2.0665,2.0641,2.0484,2.0617,2.0798,2.0629,2.0774,2.0991,2.0991,2.11,2.1148,2.0834,2.0991,2.1221,2.1221,2.1138,2.1038,2.0746,2.0388,2.0162,1.9878,1.9839,1.996,1.9908,1.9928,1.9927,1.998,2.0729,2.1233,2.1344,2.2078,2.2675,2.2631,2.2783,2.2772,2.2725,2.1889,2.1381,2.1253,2.1416,2.1317,2.0961,2.0724,2.0503,1.9962,1.9415,1.8961,1.8928,1.9127,1.9354,1.9599,1.9684,1.9845,2.0053,2.0261,2.0215,1.994,1.9879,1.9671,1.9375,1.8945,1.8973,1.8981,1.9156,1.9535,1.9767,2.8886,2.8588,2.8275,2.8275,2.7961,2.7633,2.7633,2.7633,2.7633,2.7633,2.7633,2.7633,2.7633,2.7333,2.7018,2.7018,2.6459,2.602,2.5571,2.5304,2.501,2.469,2.4676,2.4543,2.4249,2.3955,2.3647,2.3327,2.3046,2.2886,2.2859,2.2859,2.2859,2.2859,2.2859,2.2859,2.2859,2.2474,2.2349,2.2375,2.2383,2.2077,2.182,2.2069,2.1734,2.1229,2.1242,2.1084,2.0877,2.0738,2.0738,2.0738,2.0738,2.0907,2.11,2.11,2.1281,2.1474,2.1474,2.1498,2.151,2.151,2.1535,2.1547,2.1523,2.1424,2.132,2.132,2.121,2.1071,2.1071,2.077,2.0547,2.0616,2.0227,1.998,2.0009,2.0761,2.1263,2.1337,2.2154,2.2708,2.2611,2.2675,2.2772,2.2725,2.1933,2.1488,2.1302,2.1653,2.1498,2.1189,2.1222,2.1012,2.0189,2.0021,1.9852,1.9325,1.9514,1.9609,1.9628,1.9826,2.0034,2.0233,2.045,2.0658,2.0847,2.0318,2.0135,2.0098,1.9554,1.9357,1.9542,1.9524,1.9758,1.9968,2.8886,2.89,2.8744,2.8744,2.873,2.8573,2.8118,2.8118,2.7961,2.7633,2.7633,2.7633,2.7633,2.7476,2.7476,2.7476,2.712,2.6643,2.6357,2.5953,2.5531,2.501,2.4983,2.485,2.4556,2.4262,2.3848,2.3327,2.326,2.31,2.2859,2.2859,2.2859,2.2859,2.2859,2.2859,2.2886,2.2988,2.3081,2.3107,2.2975,2.295,2.2821,2.2574,2.2405,2.2212,2.1939,2.1901,2.1709,2.1436,2.1305,2.1305,2.1305,2.1341,2.139,2.139,2.1426,2.1474,2.1474,2.1631,2.1788,2.1788,2.1933,2.2042,2.1836,2.1981,2.2025,2.1727,2.1625,2.1522,2.1222,2.122,2.1041,2.0266,2.0291,2.059,2.1014,2.1242,2.134,2.1302,2.2056,2.2653,2.2747,2.2761,2.2772,2.2725,2.2425,2.2273,2.19,2.1889,2.1986,2.2011,2.1715,2.132,2.0988,2.0643,2.021,1.9533,1.9581,1.9684,1.9855,1.9902,2.0034,2.0233,2.045,2.0658,2.0856,2.0842,2.0814,2.0655,2.0426,2.0287,2.0271,2.0102,2.0018,2.0157,2.9149,2.912,2.9076,2.8915,2.8886,2.89,2.8588,2.8588,2.8431,2.8261,2.8261,2.8261,2.8261,2.8118,2.7805,2.7633,2.749,2.7052,2.6607,2.6425,2.5913,2.5304,2.5157,2.501,2.485,2.4556,2.4195,2.3741,2.3607,2.346,2.33,2.33,2.33,2.33,2.33,2.33,2.33,2.3474,2.3541,2.3567,2.3575,2.355,2.3406,2.3246,2.3062,2.2802,2.2658,2.2425,2.2312,2.1894,2.175,2.175,2.1618,2.1559,2.1667,2.1667,2.1752,2.1848,2.1848,2.1957,2.2054,2.2054,2.2162,2.2223,2.209,2.2162,2.2259,2.196,2.196,2.196,2.166,2.1557,2.1448,2.1397,2.0722,2.0834,2.2202,2.1811,2.1286,2.1381,2.1803,2.2284,2.2653,2.2622,2.2643,2.2696,2.2769,2.2638,2.2327,2.2327,2.2381,2.2331,2.2268,2.2042,2.1649,2.1128,2.0722,2.0096,1.9923,1.9807,1.9921,2.0015,2.0176,2.0384,2.0592,2.0809,2.1007,2.1121,2.1102,2.0998,2.0998,2.0866,2.0658,2.045,2.0242,2.0091,2.9515,2.9412,2.9295,2.9017,2.893,2.8886,2.8886,2.8886,2.8886,2.8886,2.8886,2.8886,2.8886,2.8588,2.8275,2.779,2.779,2.7535,2.6987,2.6818,2.6525,2.5751,2.5509,2.5335,2.5077,2.4836,2.4543,2.4209,2.3968,2.3821,2.3768,2.3768,2.3768,2.3768,2.3768,2.3768,2.3768,2.3821,2.3848,2.3875,2.4155,2.413,2.3865,2.3953,2.3741,2.3254,2.3254,2.2942,2.2739,2.245,2.2344,2.2381,2.1958,2.2154,2.2362,2.2214,2.2347,2.2481,2.2331,2.2295,2.2259,2.2259,2.2259,2.2259,2.2259,2.2259,2.2259,2.2259,2.2259,2.2259,2.2259,2.2035,2.2,2.2889,2.166,2.126,2.3567,2.2556,2.1761,2.1655,2.1541,2.1872,2.2696,2.2783,2.2632,2.2632,2.2663,2.2758,2.2758,2.2758,2.2588,2.2395,2.2579,2.2514,2.1995,2.1475,2.1128,2.0607,2.0133,1.9968,1.9977,2.0148,2.0355,2.0601,2.0771,2.097,2.1168,2.1168,2.1168,2.1168,2.1168,2.1055,2.0866,2.0629,2.028,1.9949,2.9807,2.9573,2.9369,2.9325,2.9076,2.8886,2.8886,2.8886,2.8886,2.8886,2.8886,2.8886,2.8886,2.8886,2.873,2.873,2.8431,2.8104,2.8076,2.7734,2.7125,2.6539,2.6484,2.6071,2.509,2.5037,2.4756,2.4209,2.4168,2.4022,2.3768,2.3768,2.3768,2.3768,2.3768,2.3768,2.3794,2.4035,2.4142,2.4168,2.4462,2.4583,2.4435,2.4475,2.4462,2.4288,2.3979,2.3658,2.3324,2.3176,2.3489,2.3693,2.3542,2.3732,2.396,2.35,2.3352,2.3052,2.2748,2.244,2.2259,2.2259,2.2259,2.2259,2.2259,2.2259,2.2259,2.2259,2.2259,2.2259,2.2259,2.2493,2.2674,2.3043,2.3139,2.3472,2.374,2.3567,2.3419,2.3489,2.2876,2.262,2.2754,2.2627,2.2747,2.2747,2.2729,2.2643,2.2643,2.2643,2.2643,2.2632,2.2665,2.2514,2.1995,2.1475,2.1128,2.0617,2.0267,2.0176,2.0176,2.0204,2.0431,2.08,2.0828,2.097,2.1168,2.1168,2.1168,2.1168,2.1168,2.1149,2.1083,2.0686,2.028,1.9949,3.0173,2.9866,2.9588,2.9412,2.9105,2.8886,2.8886,2.8886,2.8886,2.8886,2.8886,2.8886,2.8886,2.8886,2.8886,2.8886,2.8744,2.8588,2.8289,2.8118,2.7734,2.7139,2.6818,2.6457,2.5891,2.5402,2.4957,2.469,2.4529,2.4382,2.4249,2.4249,2.4249,2.4249,2.4249,2.4249,2.4262,2.4396,2.4449,2.4449,2.4583,2.4636,2.4636,2.4636,2.4743,2.4903,2.4913,2.4665,2.4514,2.4363,2.4302,2.4405,2.4252,2.4176,2.4278,2.4124,2.3728,2.3476,2.3335,2.2834,2.2476,2.2476,2.2367,2.2259,2.2259,2.2259,2.2259,2.2259,2.2259,2.2259,2.2259,2.2353,2.2686,2.3031,2.349,2.3852,2.3864,2.3876,2.3776,2.3782,2.269,2.1993,2.1922,2.1979,2.2129,2.2703,2.2739,2.2686,2.2686,2.2686,2.2686,2.2686,2.2686,2.2686,2.2341,2.1995,2.1537,2.1134,2.0695,2.039,2.0223,2.0459,2.0667,2.0847,2.097,2.1083,2.1168,2.1168,2.1168,2.1168,2.1168,2.1093,2.096,2.0781,2.0526,2.0299]}]]